Time,TemperatureF,DewpointF,PressureIn,WindDirection,WindDirectionDegrees,WindSpeedMPH,WindSpeedGustMPH,Humidity,HourlyPrecipIn,Conditions,Clouds,dailyrainin,SoftwareType,DateUTC
2013-09-02 00:00:00,85.2,49.4,0.00,SSE,158,10.7,15.4,29,0.00,,---,0.00,VWS V14.01,2013-09-02 05:00:00,
2013-09-02 00:01:00,85.2,49.4,0.00,South,180,11.0,11.0,29,0.00,,---,0.00,VWS V14.01,2013-09-02 05:01:00,
2013-09-02 00:02:00,85.2,49.4,0.00,South,180,9.8,11.0,29,0.00,,---,0.00,VWS V14.01,2013-09-02 05:02:00,
2013-09-02 00:03:00,85.2,49.4,0.00,SE,135,13.0,14.8,29,0.00,,---,0.00,VWS V14.01,2013-09-02 05:03:00,
2013-09-02 00:04:00,58.4,38.8,0.00,NNE,22,0.0,0.0,48,0.00,,---,0.00,VWS V14.01,2013-09-02 05:04:00,
2013-09-02 00:05:00,86.0,50.0,0.00,South,180,9.6,14.8,29,0.00,,---,0.00,VWS V14.01,2013-09-02 05:05:00,
2013-09-02 00:06:00,85.2,49.4,0.00,South,180,7.4,14.8,29,0.00,,---,0.00,VWS V14.01,2013-09-02 05:06:00,
2013-09-02 00:07:00,85.2,49.4,0.00,South,180,10.3,14.8,29,0.00,,---,0.00,VWS V14.01,2013-09-02 05:07:00,
2013-09-02 00:08:00,85.2,49.4,0.00,SW,225,9.4,14.8,29,0.00,,---,0.00,VWS V14.01,2013-09-02 05:08:00,
2013-09-02 00:09:00,85.6,48.8,0.00,SW,225,10.1,14.8,28,0.00,,---,0.00,VWS V14.01,2013-09-02 05:09:00,
2013-09-02 00:10:00,85.6,48.8,0.00,SW,225,5.4,14.8,28,0.00,,---,0.00,VWS V14.01,2013-09-02 05:10:00,
2013-09-02 00:11:00,86.3,49.4,0.00,South,180,7.6,14.8,28,0.00,,---,0.00,VWS V14.01,2013-09-02 05:11:00,
2013-09-02 00:12:00,86.3,49.4,0.00,South,180,11.2,14.8,28,0.00,,---,0.00,VWS V14.01,2013-09-02 05:12:00,
2013-09-02 00:13:00,86.3,49.4,0.00,South,180,9.8,14.8,28,0.00,,---,0.00,VWS V14.01,2013-09-02 05:13:00,
2013-09-02 00:14:00,86.3,49.4,0.00,SSW,202,12.5,14.8,28,0.00,,---,0.00,VWS V14.01,2013-09-02 05:14:00,
2013-09-02 00:15:00,86.1,49.2,0.00,South,180,11.4,14.8,28,0.00,,---,0.00,VWS V14.01,2013-09-02 05:15:00,
2013-09-02 00:16:00,86.1,49.2,0.00,SW,225,6.5,11.4,28,0.00,,---,0.00,VWS V14.01,2013-09-02 05:16:00,
2013-09-02 00:17:00,86.1,49.2,0.00,South,180,11.4,11.4,28,0.00,,---,0.00,VWS V14.01,2013-09-02 05:17:00,
2013-09-02 00:18:00,86.3,49.4,0.00,South,180,4.3,11.4,28,0.00,,---,0.00,VWS V14.01,2013-09-02 05:18:00,
2013-09-02 00:19:00,86.5,49.6,0.00,SW,225,7.8,13.0,28,0.00,,---,0.00,VWS V14.01,2013-09-02 05:19:00,
2013-09-02 00:20:00,86.7,49.7,0.00,South,180,9.0,13.0,28,0.00,,---,0.00,VWS V14.01,2013-09-02 05:20:00,
2013-09-02 00:21:00,86.7,49.7,0.00,SSW,202,7.8,13.0,28,0.00,,---,0.00,VWS V14.01,2013-09-02 05:21:00,
2013-09-02 00:22:00,86.7,49.7,0.00,SW,225,12.3,13.0,28,0.00,,---,0.00,VWS V14.01,2013-09-02 05:22:00,
2013-09-02 00:23:00,87.0,49.0,0.00,SW,225,12.3,13.0,27,0.00,,---,0.00,VWS V14.01,2013-09-02 05:23:00,
2013-09-02 00:24:00,87.0,49.0,0.00,SW,225,12.5,13.4,27,0.00,,---,0.00,VWS V14.01,2013-09-02 05:24:00,
2013-09-02 00:25:00,87.0,49.0,0.00,SW,225,12.8,13.4,27,0.00,,---,0.00,VWS V14.01,2013-09-02 05:25:00,
2013-09-02 00:26:00,87.0,49.0,0.00,SSW,202,10.5,13.4,27,0.00,,---,0.00,VWS V14.01,2013-09-02 05:26:00,
2013-09-02 00:27:00,86.3,48.4,0.00,South,180,10.5,13.4,27,0.00,,---,0.00,VWS V14.01,2013-09-02 05:27:00,
2013-09-02 00:28:00,86.3,48.4,0.00,South,180,10.5,13.4,27,0.00,,---,0.00,VWS V14.01,2013-09-02 05:28:00,
2013-09-02 00:29:00,86.0,48.1,0.00,South,180,11.9,13.4,27,0.00,,---,0.00,VWS V14.01,2013-09-02 05:29:00,
2013-09-02 00:30:00,86.3,49.4,0.00,South,180,8.5,13.4,28,0.00,,---,0.00,VWS V14.01,2013-09-02 05:30:00,
2013-09-02 00:31:00,86.1,48.3,0.00,South,180,14.3,14.3,27,0.00,,---,0.00,VWS V14.01,2013-09-02 05:31:00,
2013-09-02 00:32:00,86.3,48.4,0.00,SSE,158,14.8,14.8,27,0.00,,---,0.00,VWS V14.01,2013-09-02 05:32:00,
2013-09-02 00:33:00,85.6,46.8,0.00,SE,135,10.1,14.8,26,0.00,,---,0.00,VWS V14.01,2013-09-02 05:33:00,
2013-09-02 00:34:00,86.3,48.4,0.00,South,180,10.3,14.8,27,0.00,,---,0.00,VWS V14.01,2013-09-02 05:34:00,
2013-09-02 00:35:00,86.5,47.6,0.00,SE,135,7.6,14.8,26,0.00,,---,0.00,VWS V14.01,2013-09-02 05:35:00,
2013-09-02 00:36:00,86.9,48.9,0.00,SSE,158,8.5,14.8,27,0.00,,---,0.00,VWS V14.01,2013-09-02 05:36:00,
2013-09-02 00:37:00,87.0,48.0,0.00,South,180,10.7,14.8,26,0.00,,---,0.00,VWS V14.01,2013-09-02 05:37:00,
2013-09-02 00:38:00,86.7,47.7,0.00,SW,225,11.2,15.2,26,0.00,,---,0.00,VWS V14.01,2013-09-02 05:38:00,
2013-09-02 00:39:00,86.9,47.9,0.00,SW,225,10.3,15.2,26,0.00,,---,0.00,VWS V14.01,2013-09-02 05:39:00,
2013-09-02 00:40:00,87.2,49.2,0.00,SW,225,7.8,15.2,27,0.00,,---,0.00,VWS V14.01,2013-09-02 05:40:00,
2013-09-02 00:41:00,87.4,47.3,0.00,South,180,6.5,15.2,25,0.00,,---,0.00,VWS V14.01,2013-09-02 05:41:00,
2013-09-02 00:42:00,87.4,48.3,0.00,South,180,6.5,15.2,26,0.00,,---,0.00,VWS V14.01,2013-09-02 05:42:00,
2013-09-02 00:43:00,87.8,48.7,0.00,SE,135,10.5,15.2,26,0.00,,---,0.00,VWS V14.01,2013-09-02 05:43:00,
2013-09-02 00:44:00,87.8,47.6,0.00,South,180,10.3,15.2,25,0.00,,---,0.00,VWS V14.01,2013-09-02 05:44:00,
2013-09-02 00:45:00,87.8,47.6,0.00,SW,225,10.7,15.2,25,0.00,,---,0.00,VWS V14.01,2013-09-02 05:45:00,
2013-09-02 00:47:00,87.8,47.6,0.00,SW,225,9.0,10.7,25,0.00,,---,0.00,VWS V14.01,2013-09-02 05:47:00,
2013-09-02 00:48:00,87.6,47.5,0.00,SW,225,7.6,12.5,25,0.00,,---,0.00,VWS V14.01,2013-09-02 05:48:00,
2013-09-02 00:49:00,87.8,47.6,0.00,South,180,6.5,12.5,25,0.00,,---,0.00,VWS V14.01,2013-09-02 05:49:00,
2013-09-02 00:50:00,87.8,47.6,0.00,SW,225,5.8,12.5,25,0.00,,---,0.00,VWS V14.01,2013-09-02 05:50:00,
2013-09-02 00:51:00,88.3,48.1,0.00,South,180,6.5,12.5,25,0.00,,---,0.00,VWS V14.01,2013-09-02 05:51:00,
2013-09-02 00:52:00,87.9,46.7,0.00,South,180,6.3,13.2,24,0.00,,---,0.00,VWS V14.01,2013-09-02 05:52:00,
2013-09-02 00:53:00,87.9,46.7,0.00,SSE,158,8.7,13.2,24,0.00,,---,0.00,VWS V14.01,2013-09-02 05:53:00,
2013-09-02 00:54:00,87.8,47.6,0.00,South,180,8.7,14.5,25,0.00,,---,0.00,VWS V14.01,2013-09-02 05:54:00,
2013-09-02 00:55:00,88.1,47.9,0.00,South,180,14.5,14.5,25,0.00,,---,0.00,VWS V14.01,2013-09-02 05:55:00,
2013-09-02 00:56:00,88.3,48.1,0.00,SSE,158,15.2,15.2,25,0.00,,---,0.00,VWS V14.01,2013-09-02 05:56:00,
2013-09-02 00:57:00,88.3,48.1,0.00,South,180,10.5,15.2,25,0.00,,---,0.00,VWS V14.01,2013-09-02 05:57:00,
2013-09-02 00:58:00,87.8,46.5,0.00,SW,225,5.4,15.2,24,0.00,,---,0.00,VWS V14.01,2013-09-02 05:58:00,
2013-09-02 00:59:00,88.1,47.9,0.00,South,180,9.6,15.2,25,0.00,,---,0.00,VWS V14.01,2013-09-02 05:59:00,
2013-09-02 01:01:00,87.8,47.6,0.00,South,180,12.5,15.2,25,0.00,,---,0.00,VWS V14.01,2013-09-02 06:01:00,
2013-09-02 01:02:00,87.8,47.6,0.00,South,180,8.7,15.2,25,0.00,,---,0.00,VWS V14.01,2013-09-02 06:02:00,
2013-09-02 01:03:00,87.8,47.6,0.00,South,180,8.7,15.2,25,0.00,,---,0.00,VWS V14.01,2013-09-02 06:03:00,
2013-09-02 01:04:00,87.8,47.6,0.00,SW,225,9.8,15.2,25,0.00,,---,0.00,VWS V14.01,2013-09-02 06:04:00,
2013-09-02 01:05:00,88.1,46.8,0.00,SW,225,8.1,15.2,24,0.00,,---,0.00,VWS V14.01,2013-09-02 06:05:00,
2013-09-02 01:06:00,88.3,47.0,0.00,SW,225,8.7,15.2,24,0.00,,---,0.00,VWS V14.01,2013-09-02 06:06:00,
2013-09-02 01:07:00,88.3,47.0,0.00,South,180,10.5,15.2,24,0.00,,---,0.00,VWS V14.01,2013-09-02 06:07:00,
2013-09-02 01:08:00,87.9,46.7,0.00,South,180,8.1,15.2,24,0.00,,---,0.00,VWS V14.01,2013-09-02 06:08:00,
2013-09-02 01:10:00,87.8,47.6,0.00,South,180,12.3,15.2,25,0.00,,---,0.00,VWS V14.01,2013-09-02 06:10:00,
2013-09-02 01:11:00,87.4,46.2,0.00,SW,225,10.5,15.2,24,0.00,,---,0.00,VWS V14.01,2013-09-02 06:11:00,
2013-09-02 01:12:00,87.6,46.4,0.00,South,180,10.5,15.2,24,0.00,,---,0.00,VWS V14.01,2013-09-02 06:12:00,
2013-09-02 01:13:00,87.4,47.3,0.00,South,180,12.1,15.2,25,0.00,,---,0.00,VWS V14.01,2013-09-02 06:13:00,
2013-09-02 01:14:00,87.6,46.4,0.00,South,180,11.0,15.2,24,0.00,,---,0.00,VWS V14.01,2013-09-02 06:14:00,
2013-09-02 01:15:00,87.8,47.6,0.00,SW,225,11.0,15.2,25,0.00,,---,0.00,VWS V14.01,2013-09-02 06:15:00,
2013-09-02 01:16:00,87.4,46.2,0.00,SSW,202,15.2,15.2,24,0.00,,---,0.00,VWS V14.01,2013-09-02 06:16:00,
2013-09-02 01:17:00,87.0,45.9,0.00,South,180,10.7,15.2,24,0.00,,---,0.00,VWS V14.01,2013-09-02 06:17:00,
2013-09-02 01:18:00,87.6,46.4,0.00,South,180,10.7,15.2,24,0.00,,---,0.00,VWS V14.01,2013-09-02 06:18:00,
2013-09-02 01:20:00,87.8,46.5,0.00,South,180,10.1,15.2,24,0.00,,---,0.00,VWS V14.01,2013-09-02 06:20:00,
2013-09-02 01:21:00,87.9,45.5,0.00,South,180,10.1,15.2,23,0.00,,---,0.00,VWS V14.01,2013-09-02 06:21:00,
2013-09-02 01:22:00,87.6,46.4,0.00,South,180,10.7,15.2,24,0.00,,---,0.00,VWS V14.01,2013-09-02 06:22:00,
2013-09-02 01:23:00,87.8,46.5,0.00,SW,225,12.5,17.5,24,0.00,,---,0.00,VWS V14.01,2013-09-02 06:23:00,
2013-09-02 01:24:00,87.8,46.5,0.00,South,180,11.0,17.5,24,0.00,,---,0.00,VWS V14.01,2013-09-02 06:24:00,
2013-09-02 01:25:00,87.9,45.5,0.00,SW,225,8.7,17.5,23,0.00,,---,0.00,VWS V14.01,2013-09-02 06:25:00,
2013-09-02 01:26:00,88.3,47.0,0.00,South,180,12.3,17.5,24,0.00,,---,0.00,VWS V14.01,2013-09-02 06:26:00,
2013-09-02 01:27:00,88.3,47.0,0.00,South,180,10.7,17.5,24,0.00,,---,0.00,VWS V14.01,2013-09-02 06:27:00,
2013-09-02 01:28:00,88.1,45.7,0.00,South,180,11.0,17.5,23,0.00,,---,0.00,VWS V14.01,2013-09-02 06:28:00,
2013-09-02 01:29:00,88.1,45.7,0.00,South,180,7.8,17.5,23,0.00,,---,0.00,VWS V14.01,2013-09-02 06:29:00,
2013-09-02 01:30:00,87.9,45.5,0.00,SSE,158,7.8,17.5,23,0.00,,---,0.00,VWS V14.01,2013-09-02 06:30:00,
2013-09-02 01:31:00,88.7,47.3,0.00,South,180,8.7,10.5,24,0.00,,---,0.00,VWS V14.01,2013-09-02 06:31:00,
2013-09-02 01:32:00,88.7,47.3,0.00,South,180,10.1,14.5,24,0.00,,---,0.00,VWS V14.01,2013-09-02 06:32:00,
2013-09-02 01:33:00,88.8,46.3,0.00,SSW,202,7.6,14.5,23,0.00,,---,0.00,VWS V14.01,2013-09-02 06:33:00,
2013-09-02 01:34:00,88.8,46.3,0.00,South,180,8.7,14.5,23,0.00,,---,0.00,VWS V14.01,2013-09-02 06:34:00,
2013-09-02 01:35:00,88.8,46.3,0.00,South,180,10.1,14.5,23,0.00,,---,0.00,VWS V14.01,2013-09-02 06:35:00,
2013-09-02 01:36:00,88.8,46.3,0.00,SSE,158,10.5,14.5,23,0.00,,---,0.00,VWS V14.01,2013-09-02 06:36:00,
2013-09-02 01:37:00,88.8,46.3,0.00,South,180,8.5,14.5,23,0.00,,---,0.00,VWS V14.01,2013-09-02 06:37:00,
2013-09-02 01:38:00,88.7,46.2,0.00,South,180,8.5,14.5,23,0.00,,---,0.00,VWS V14.01,2013-09-02 06:38:00,
2013-09-02 01:39:00,88.7,46.2,0.00,SSE,158,15.2,15.2,23,0.00,,---,0.00,VWS V14.01,2013-09-02 06:39:00,
2013-09-02 01:40:00,88.7,46.2,0.00,SSE,158,15.2,15.2,23,0.00,,---,0.00,VWS V14.01,2013-09-02 06:40:00,
2013-09-02 01:41:00,89.0,46.5,0.00,SW,225,8.1,15.2,23,0.00,,---,0.00,VWS V14.01,2013-09-02 06:41:00,
2013-09-02 01:42:00,89.4,45.6,0.00,SW,225,5.6,15.2,22,0.00,,---,0.00,VWS V14.01,2013-09-02 06:42:00,
2013-09-02 01:43:00,89.7,47.0,0.00,South,180,10.3,15.2,23,0.00,,---,0.00,VWS V14.01,2013-09-02 06:43:00,
2013-09-02 01:44:00,89.7,45.9,0.00,South,180,8.7,15.2,22,0.00,,---,0.00,VWS V14.01,2013-09-02 06:44:00,
2013-09-02 01:45:00,89.7,45.9,0.00,South,180,10.5,15.2,22,0.00,,---,0.00,VWS V14.01,2013-09-02 06:45:00,
2013-09-02 01:46:00,89.9,46.0,0.00,SSE,158,8.1,10.5,22,0.00,,---,0.00,VWS V14.01,2013-09-02 06:46:00,
2013-09-02 01:47:00,88.8,45.1,0.00,South,180,14.8,17.0,22,0.00,,---,0.00,VWS V14.01,2013-09-02 06:47:00,
2013-09-02 01:48:00,88.3,44.7,0.00,South,180,9.6,17.5,22,0.00,,---,0.00,VWS V14.01,2013-09-02 06:48:00,
2013-09-02 01:49:00,88.7,45.0,0.00,South,180,7.6,17.5,22,0.00,,---,0.00,VWS V14.01,2013-09-02 06:49:00,
2013-09-02 01:50:00,88.7,45.0,0.00,SSW,202,7.6,17.5,22,0.00,,---,0.00,VWS V14.01,2013-09-02 06:50:00,
2013-09-02 01:51:00,88.7,45.0,0.00,South,180,8.1,17.5,22,0.00,,---,0.00,VWS V14.01,2013-09-02 06:51:00,
2013-09-02 01:52:00,88.7,45.0,0.00,South,180,10.7,17.5,22,0.00,,---,0.00,VWS V14.01,2013-09-02 06:52:00,
2013-09-02 01:53:00,89.2,45.4,0.00,SSW,202,11.0,17.5,22,0.00,,---,0.00,VWS V14.01,2013-09-02 06:53:00,
2013-09-02 01:54:00,89.6,46.9,0.00,SW,225,5.6,17.5,23,0.00,,---,0.00,VWS V14.01,2013-09-02 06:54:00,
2013-09-02 01:55:00,89.7,45.9,0.00,SW,225,6.0,17.5,22,0.00,,---,0.00,VWS V14.01,2013-09-02 06:55:00,
2013-09-02 01:56:00,89.7,45.9,0.00,SSW,202,7.8,17.5,22,0.00,,---,0.00,VWS V14.01,2013-09-02 06:56:00,
2013-09-02 01:57:00,89.7,45.9,0.00,SW,225,10.5,17.5,22,0.00,,---,0.00,VWS V14.01,2013-09-02 06:57:00,
2013-09-02 01:58:00,89.7,45.9,0.00,South,180,11.4,17.5,22,0.00,,---,0.00,VWS V14.01,2013-09-02 06:58:00,
2013-09-02 01:59:00,90.1,46.2,0.00,South,180,6.0,17.5,22,0.00,,---,0.00,VWS V14.01,2013-09-02 06:59:00,
2013-09-02 02:00:00,90.1,46.2,0.00,SSE,158,9.4,17.5,22,0.00,,---,0.00,VWS V14.01,2013-09-02 07:00:00,
2013-09-02 02:01:00,90.5,46.5,0.00,South,180,8.1,8.1,22,0.00,,---,0.00,VWS V14.01,2013-09-02 07:01:00,
2013-09-02 02:02:00,90.8,46.8,0.00,South,180,10.5,12.5,22,0.00,,---,0.00,VWS V14.01,2013-09-02 07:02:00,
2013-09-02 02:03:00,90.5,46.5,0.00,South,180,7.4,12.5,22,0.00,,---,0.00,VWS V14.01,2013-09-02 07:03:00,
2013-09-02 02:04:00,90.5,46.5,0.00,South,180,13.0,13.0,22,0.00,,---,0.00,VWS V14.01,2013-09-02 07:04:00,
2013-09-02 02:05:00,89.9,46.0,0.00,South,180,10.5,16.8,22,0.00,,---,0.00,VWS V14.01,2013-09-02 07:05:00,
2013-09-02 02:06:00,89.9,46.0,0.00,SSW,202,7.6,16.8,22,0.00,,---,0.00,VWS V14.01,2013-09-02 07:06:00,
2013-09-02 02:07:00,89.9,46.0,0.00,South,180,13.0,16.8,22,0.00,,---,0.00,VWS V14.01,2013-09-02 07:07:00,
2013-09-02 02:08:00,88.7,45.0,0.00,South,180,13.2,16.8,22,0.00,,---,0.00,VWS V14.01,2013-09-02 07:08:00,
2013-09-02 02:09:00,88.7,45.0,0.00,South,180,13.2,16.8,22,0.00,,---,0.00,VWS V14.01,2013-09-02 07:09:00,
2013-09-02 02:11:00,88.7,45.0,0.00,South,180,7.6,16.8,22,0.00,,---,0.00,VWS V14.01,2013-09-02 07:11:00,
2013-09-02 02:12:00,88.7,45.0,0.00,South,180,7.6,16.8,22,0.00,,---,0.00,VWS V14.01,2013-09-02 07:12:00,
2013-09-02 02:13:00,88.7,46.2,0.00,SSE,158,12.5,16.8,23,0.00,,---,0.00,VWS V14.01,2013-09-02 07:13:00,
2013-09-02 02:14:00,88.3,45.8,0.00,South,180,12.8,16.8,23,0.00,,---,0.00,VWS V14.01,2013-09-02 07:14:00,
2013-09-02 02:15:00,88.3,44.7,0.00,SE,135,17.0,17.0,22,0.00,,---,0.00,VWS V14.01,2013-09-02 07:15:00,
2013-09-02 02:16:00,88.3,45.8,0.00,SSE,158,14.5,19.9,23,0.00,,---,0.00,VWS V14.01,2013-09-02 07:16:00,
2013-09-02 02:17:00,87.4,45.1,0.00,South,180,9.4,19.9,23,0.00,,---,0.00,VWS V14.01,2013-09-02 07:17:00,
2013-09-02 02:18:00,87.6,45.2,0.00,South,180,8.1,19.9,23,0.00,,---,0.00,VWS V14.01,2013-09-02 07:18:00,
2013-09-02 02:19:00,87.6,45.2,0.00,South,180,8.1,19.9,23,0.00,,---,0.00,VWS V14.01,2013-09-02 07:19:00,
2013-09-02 02:20:00,87.6,45.2,0.00,South,180,9.4,19.9,23,0.00,,---,0.00,VWS V14.01,2013-09-02 07:20:00,
2013-09-02 02:21:00,88.3,45.8,0.00,South,180,8.5,19.9,23,0.00,,---,0.00,VWS V14.01,2013-09-02 07:21:00,
2013-09-02 02:22:00,88.7,46.2,0.00,South,180,10.5,19.9,23,0.00,,---,0.00,VWS V14.01,2013-09-02 07:22:00,
2013-09-02 02:23:00,89.4,45.6,0.00,South,180,8.1,19.9,22,0.00,,---,0.00,VWS V14.01,2013-09-02 07:23:00,
2013-09-02 02:25:00,89.4,45.6,0.00,SE,135,7.8,19.9,22,0.00,,---,0.00,VWS V14.01,2013-09-02 07:25:00,
2013-09-02 02:26:00,89.4,45.6,0.00,SE,135,7.8,19.9,22,0.00,,---,0.00,VWS V14.01,2013-09-02 07:26:00,
2013-09-02 02:27:00,89.9,46.0,0.00,SE,135,8.5,19.9,22,0.00,,---,0.00,VWS V14.01,2013-09-02 07:27:00,
2013-09-02 02:28:00,89.9,46.0,0.00,SE,135,8.5,19.9,22,0.00,,---,0.00,VWS V14.01,2013-09-02 07:28:00,
2013-09-02 02:29:00,90.6,46.6,0.00,SE,135,10.1,19.9,22,0.00,,---,0.00,VWS V14.01,2013-09-02 07:29:00,
2013-09-02 02:30:00,90.8,46.8,0.00,South,180,16.8,19.9,22,0.00,,---,0.00,VWS V14.01,2013-09-02 07:30:00,
2013-09-02 02:31:00,90.1,46.2,0.00,South,180,10.5,16.8,22,0.00,,---,0.00,VWS V14.01,2013-09-02 07:31:00,
2013-09-02 02:32:00,90.1,46.2,0.00,South,180,12.3,16.8,22,0.00,,---,0.00,VWS V14.01,2013-09-02 07:32:00,
2013-09-02 02:33:00,89.7,45.9,0.00,SE,135,10.5,16.8,22,0.00,,---,0.00,VWS V14.01,2013-09-02 07:33:00,
2013-09-02 02:34:00,89.2,45.4,0.00,SSE,158,10.1,16.8,22,0.00,,---,0.00,VWS V14.01,2013-09-02 07:34:00,
2013-09-02 02:35:00,88.5,44.8,0.00,SSE,158,10.5,17.7,22,0.00,,---,0.00,VWS V14.01,2013-09-02 07:35:00,
2013-09-02 02:36:00,88.8,46.3,0.00,SE,135,15.9,17.7,23,0.00,,---,0.00,VWS V14.01,2013-09-02 07:36:00,
2013-09-02 02:37:00,89.2,45.4,0.00,SE,135,18.6,18.6,22,0.00,,---,0.00,VWS V14.01,2013-09-02 07:37:00,
2013-09-02 02:38:00,89.0,45.3,0.00,SSE,158,11.0,18.6,22,0.00,,---,0.00,VWS V14.01,2013-09-02 07:38:00,
2013-09-02 02:39:00,89.0,45.3,0.00,South,180,10.5,18.6,22,0.00,,---,0.00,VWS V14.01,2013-09-02 07:39:00,
2013-09-02 02:40:00,89.6,45.7,0.00,SE,135,10.1,18.6,22,0.00,,---,0.00,VWS V14.01,2013-09-02 07:40:00,
2013-09-02 02:41:00,90.1,46.2,0.00,SSE,158,8.1,18.6,22,0.00,,---,0.00,VWS V14.01,2013-09-02 07:41:00,
2013-09-02 02:42:00,90.3,46.3,0.00,SE,135,14.5,18.6,22,0.00,,---,0.00,VWS V14.01,2013-09-02 07:42:00,
2013-09-02 02:43:00,90.8,46.8,0.00,SSE,158,13.2,18.6,22,0.00,,---,0.00,VWS V14.01,2013-09-02 07:43:00,
2013-09-02 02:44:00,90.8,46.8,0.00,SE,135,12.1,19.0,22,0.00,,---,0.00,VWS V14.01,2013-09-02 07:44:00,
2013-09-02 02:45:00,91.2,45.8,0.00,SE,135,11.0,19.0,21,0.00,,---,0.00,VWS V14.01,2013-09-02 07:45:00,
2013-09-02 02:47:00,91.5,46.1,0.00,SW,225,5.8,11.0,21,0.00,,---,0.00,VWS V14.01,2013-09-02 07:47:00,
2013-09-02 02:48:00,90.8,46.8,0.00,South,180,13.2,13.2,22,0.00,,---,0.00,VWS V14.01,2013-09-02 07:48:00,
2013-09-02 02:49:00,90.3,45.1,0.00,SSE,158,12.1,15.7,21,0.00,,---,0.00,VWS V14.01,2013-09-02 07:49:00,
2013-09-02 02:50:00,90.3,46.3,0.00,SE,135,10.1,15.7,22,0.00,,---,0.00,VWS V14.01,2013-09-02 07:50:00,
2013-09-02 02:51:00,90.8,46.8,0.00,South,180,10.1,15.7,22,0.00,,---,0.00,VWS V14.01,2013-09-02 07:51:00,
2013-09-02 02:52:00,90.3,46.3,0.00,South,180,7.4,15.7,22,0.00,,---,0.00,VWS V14.01,2013-09-02 07:52:00,
2013-09-02 02:53:00,90.5,46.5,0.00,South,180,10.5,15.7,22,0.00,,---,0.00,VWS V14.01,2013-09-02 07:53:00,
2013-09-02 02:54:00,90.5,45.2,0.00,SE,135,10.1,15.7,21,0.00,,---,0.00,VWS V14.01,2013-09-02 07:54:00,
2013-09-02 02:55:00,90.5,45.2,0.00,South,180,10.5,15.7,21,0.00,,---,0.00,VWS V14.01,2013-09-02 07:55:00,
2013-09-02 02:57:00,90.5,45.2,0.00,South,180,8.7,15.7,21,0.00,,---,0.00,VWS V14.01,2013-09-02 07:57:00,
2013-09-02 02:58:00,89.4,45.6,0.00,South,180,7.8,15.7,22,0.00,,---,0.00,VWS V14.01,2013-09-02 07:58:00,
2013-09-02 02:59:00,89.4,45.6,0.00,South,180,6.7,15.7,22,0.00,,---,0.00,VWS V14.01,2013-09-02 07:59:00,
2013-09-02 03:00:00,89.4,45.6,0.00,SE,135,5.8,15.7,22,0.00,,---,0.00,VWS V14.01,2013-09-02 08:00:00,
2013-09-02 03:01:00,89.4,45.6,0.00,South,180,7.2,7.2,22,0.00,,---,0.00,VWS V14.01,2013-09-02 08:01:00,
2013-09-02 03:02:00,88.8,45.1,0.00,South,180,9.4,9.4,22,0.00,,---,0.00,VWS V14.01,2013-09-02 08:02:00,
2013-09-02 03:03:00,88.8,46.3,0.00,South,180,10.7,11.2,23,0.00,,---,0.00,VWS V14.01,2013-09-02 08:03:00,
2013-09-02 03:04:00,89.4,46.8,0.00,SSW,202,9.2,11.2,23,0.00,,---,0.00,VWS V14.01,2013-09-02 08:04:00,
2013-09-02 03:05:00,89.0,47.6,0.00,South,180,9.2,11.2,24,0.00,,---,0.00,VWS V14.01,2013-09-02 08:05:00,
2013-09-02 03:06:00,89.0,47.6,0.00,South,180,5.4,11.2,24,0.00,,---,0.00,VWS V14.01,2013-09-02 08:06:00,
2013-09-02 03:07:00,89.2,47.7,0.00,SW,225,7.2,11.2,24,0.00,,---,0.00,VWS V14.01,2013-09-02 08:07:00,
2013-09-02 03:08:00,89.6,46.9,0.00,South,180,6.5,11.2,23,0.00,,---,0.00,VWS V14.01,2013-09-02 08:08:00,
2013-09-02 03:09:00,89.4,46.8,0.00,South,180,5.6,11.2,23,0.00,,---,0.00,VWS V14.01,2013-09-02 08:09:00,
2013-09-02 03:10:00,89.2,46.6,0.00,South,180,5.4,11.2,23,0.00,,---,0.00,VWS V14.01,2013-09-02 08:10:00,
2013-09-02 03:11:00,89.9,48.3,0.00,SSW,202,5.6,11.2,24,0.00,,---,0.00,VWS V14.01,2013-09-02 08:11:00,
2013-09-02 03:12:00,90.3,47.5,0.00,South,180,9.8,11.2,23,0.00,,---,0.00,VWS V14.01,2013-09-02 08:12:00,
2013-09-02 03:13:00,90.6,47.8,0.00,South,180,7.6,11.2,23,0.00,,---,0.00,VWS V14.01,2013-09-02 08:13:00,
2013-09-02 03:14:00,90.6,47.8,0.00,South,180,10.3,11.2,23,0.00,,---,0.00,VWS V14.01,2013-09-02 08:14:00,
2013-09-02 03:15:00,89.9,47.2,0.00,SSE,158,8.7,11.2,23,0.00,,---,0.00,VWS V14.01,2013-09-02 08:15:00,
2013-09-02 03:16:00,89.6,45.7,0.00,South,180,5.6,8.7,22,0.00,,---,0.00,VWS V14.01,2013-09-02 08:16:00,
2013-09-02 03:17:00,89.2,45.4,0.00,SE,135,4.0,8.7,22,0.00,,---,0.00,VWS V14.01,2013-09-02 08:17:00,
2013-09-02 03:18:00,54.5,41.7,0.00,North,0,0.0,1.1,62,0.00,,---,0.00,VWS V14.01,2013-09-02 08:18:00,
2013-09-02 03:19:00,89.4,46.8,0.00,South,180,6.0,9.0,23,0.00,,---,0.00,VWS V14.01,2013-09-02 08:19:00,
2013-09-02 03:20:00,89.6,46.9,0.00,SE,135,11.2,11.2,23,0.00,,---,0.00,VWS V14.01,2013-09-02 08:20:00,
2013-09-02 03:21:00,89.7,47.0,0.00,SSE,158,13.2,13.2,23,0.00,,---,0.00,VWS V14.01,2013-09-02 08:21:00,
2013-09-02 03:22:00,90.3,47.5,0.00,SE,135,8.5,13.2,23,0.00,,---,0.00,VWS V14.01,2013-09-02 08:22:00,
2013-09-02 03:23:00,90.5,47.7,0.00,SE,135,6.5,13.2,23,0.00,,---,0.00,VWS V14.01,2013-09-02 08:23:00,
2013-09-02 03:24:00,90.8,46.8,0.00,South,180,12.5,13.2,22,0.00,,---,0.00,VWS V14.01,2013-09-02 08:24:00,
2013-09-02 03:25:00,90.8,48.0,0.00,South,180,8.7,13.2,23,0.00,,---,0.00,VWS V14.01,2013-09-02 08:25:00,
2013-09-02 03:26:00,90.3,47.5,0.00,South,180,12.5,17.9,23,0.00,,---,0.00,VWS V14.01,2013-09-02 08:26:00,
2013-09-02 03:27:00,90.3,46.3,0.00,SE,135,13.0,17.9,22,0.00,,---,0.00,VWS V14.01,2013-09-02 08:27:00,
2013-09-02 03:28:00,90.5,47.7,0.00,SSE,158,14.8,17.9,23,0.00,,---,0.00,VWS V14.01,2013-09-02 08:28:00,
2013-09-02 03:29:00,90.5,46.5,0.00,SSE,158,12.5,17.9,22,0.00,,---,0.00,VWS V14.01,2013-09-02 08:29:00,
2013-09-02 03:30:00,90.5,46.5,0.00,South,180,10.7,17.9,22,0.00,,---,0.00,VWS V14.01,2013-09-02 08:30:00,
2013-09-02 03:31:00,90.6,46.6,0.00,SSE,158,3.6,13.0,22,0.00,,---,0.00,VWS V14.01,2013-09-02 08:31:00,
2013-09-02 03:32:00,91.4,47.2,0.00,SSE,158,3.6,13.0,22,0.00,,---,0.00,VWS V14.01,2013-09-02 08:32:00,
2013-09-02 03:33:00,91.4,47.2,0.00,SE,135,6.9,13.0,22,0.00,,---,0.00,VWS V14.01,2013-09-02 08:33:00,
2013-09-02 03:34:00,92.1,47.8,0.00,SE,135,8.7,13.0,22,0.00,,---,0.00,VWS V14.01,2013-09-02 08:34:00,
2013-09-02 03:35:00,53.6,41.7,0.00,West,270,2.0,3.4,64,0.00,,---,0.00,VWS V14.01,2013-09-02 08:35:00,
2013-09-02 03:36:00,91.7,47.5,0.00,SE,135,13.2,14.8,22,0.00,,---,0.00,VWS V14.01,2013-09-02 08:36:00,
2013-09-02 03:37:00,91.7,47.5,0.00,SE,135,14.3,14.8,22,0.00,,---,0.00,VWS V14.01,2013-09-02 08:37:00,
2013-09-02 03:38:00,91.7,47.5,0.00,SSE,158,12.3,15.7,22,0.00,,---,0.00,VWS V14.01,2013-09-02 08:38:00,
2013-09-02 03:39:00,91.9,47.7,0.00,South,180,8.7,15.7,22,0.00,,---,0.00,VWS V14.01,2013-09-02 08:39:00,
2013-09-02 03:40:00,91.9,47.7,0.00,South,180,6.0,15.7,22,0.00,,---,0.00,VWS V14.01,2013-09-02 08:40:00,
2013-09-02 03:41:00,91.9,47.7,0.00,South,180,14.8,15.7,22,0.00,,---,0.00,VWS V14.01,2013-09-02 08:41:00,
2013-09-02 03:42:00,91.4,48.4,0.00,South,180,10.1,16.8,23,0.00,,---,0.00,VWS V14.01,2013-09-02 08:42:00,
2013-09-02 03:43:00,91.4,48.4,0.00,South,180,12.3,16.8,23,0.00,,---,0.00,VWS V14.01,2013-09-02 08:43:00,
2013-09-02 03:44:00,91.0,48.1,0.00,South,180,8.1,16.8,23,0.00,,---,0.00,VWS V14.01,2013-09-02 08:44:00,
2013-09-02 03:45:00,91.2,48.2,0.00,South,180,7.4,16.8,23,0.00,,---,0.00,VWS V14.01,2013-09-02 08:45:00,
2013-09-02 03:46:00,91.7,48.7,0.00,South,180,7.8,9.6,23,0.00,,---,0.00,VWS V14.01,2013-09-02 08:46:00,
2013-09-02 03:48:00,91.7,48.7,0.00,SSE,158,7.8,10.3,23,0.00,,---,0.00,VWS V14.01,2013-09-02 08:48:00,
2013-09-02 03:49:00,92.1,47.8,0.00,SSE,158,12.8,13.2,22,0.00,,---,0.00,VWS V14.01,2013-09-02 08:49:00,
2013-09-02 03:50:00,92.1,47.8,0.00,South,180,12.8,13.2,22,0.00,,---,0.00,VWS V14.01,2013-09-02 08:50:00,
2013-09-02 03:51:00,91.2,47.1,0.00,South,180,10.5,16.3,22,0.00,,---,0.00,VWS V14.01,2013-09-02 08:51:00,
2013-09-02 03:52:00,91.0,46.9,0.00,SE,135,9.6,16.3,22,0.00,,---,0.00,VWS V14.01,2013-09-02 08:52:00,
2013-09-02 03:53:00,91.4,47.2,0.00,SE,135,14.8,16.3,22,0.00,,---,0.00,VWS V14.01,2013-09-02 08:53:00,
2013-09-02 03:54:00,91.9,47.7,0.00,SE,135,7.6,16.3,22,0.00,,---,0.00,VWS V14.01,2013-09-02 08:54:00,
2013-09-02 03:55:00,92.1,47.8,0.00,SE,135,7.4,16.3,22,0.00,,---,0.00,VWS V14.01,2013-09-02 08:55:00,
2013-09-02 03:56:00,91.9,48.8,0.00,South,180,8.5,16.3,23,0.00,,---,0.00,VWS V14.01,2013-09-02 08:56:00,
2013-09-02 03:57:00,91.9,48.8,0.00,South,180,9.8,16.3,23,0.00,,---,0.00,VWS V14.01,2013-09-02 08:57:00,
2013-09-02 03:58:00,91.7,48.7,0.00,South,180,8.5,16.3,23,0.00,,---,0.00,VWS V14.01,2013-09-02 08:58:00,
2013-09-02 03:59:00,91.9,48.8,0.00,South,180,7.8,16.3,23,0.00,,---,0.00,VWS V14.01,2013-09-02 08:59:00,
2013-09-02 04:00:00,92.1,49.0,0.00,South,180,10.7,16.3,23,0.00,,---,0.00,VWS V14.01,2013-09-02 09:00:00,
2013-09-02 04:01:00,92.1,49.0,0.00,South,180,14.3,17.7,23,0.00,,---,0.00,VWS V14.01,2013-09-02 09:01:00,
2013-09-02 04:02:00,91.2,48.2,0.00,South,180,13.0,17.7,23,0.00,,---,0.00,VWS V14.01,2013-09-02 09:02:00,
2013-09-02 04:03:00,90.8,49.1,0.00,SE,135,19.9,19.9,24,0.00,,---,0.00,VWS V14.01,2013-09-02 09:03:00,
2013-09-02 04:04:00,90.3,48.6,0.00,South,180,17.7,19.9,24,0.00,,---,0.00,VWS V14.01,2013-09-02 09:04:00,
2013-09-02 04:05:00,90.3,48.6,0.00,South,180,17.7,19.9,24,0.00,,---,0.00,VWS V14.01,2013-09-02 09:05:00,
2013-09-02 04:06:00,91.2,48.2,0.00,SE,135,17.0,19.9,23,0.00,,---,0.00,VWS V14.01,2013-09-02 09:06:00,
2013-09-02 04:07:00,91.4,48.4,0.00,South,180,15.2,19.9,23,0.00,,---,0.00,VWS V14.01,2013-09-02 09:07:00,
2013-09-02 04:08:00,91.4,48.4,0.00,SSE,158,16.6,19.9,23,0.00,,---,0.00,VWS V14.01,2013-09-02 09:08:00,
2013-09-02 04:09:00,91.4,48.4,0.00,South,180,8.7,19.9,23,0.00,,---,0.00,VWS V14.01,2013-09-02 09:09:00,
2013-09-02 04:10:00,91.4,48.4,0.00,South,180,8.7,19.9,23,0.00,,---,0.00,VWS V14.01,2013-09-02 09:10:00,
2013-09-02 04:11:00,91.4,48.4,0.00,South,180,10.5,19.9,23,0.00,,---,0.00,VWS V14.01,2013-09-02 09:11:00,
2013-09-02 04:12:00,91.0,48.1,0.00,South,180,9.8,19.9,23,0.00,,---,0.00,VWS V14.01,2013-09-02 09:12:00,
2013-09-02 04:13:00,91.0,48.1,0.00,South,180,15.2,19.9,23,0.00,,---,0.00,VWS V14.01,2013-09-02 09:13:00,
2013-09-02 04:14:00,91.0,48.1,0.00,South,180,15.2,19.9,23,0.00,,---,0.00,VWS V14.01,2013-09-02 09:14:00,
2013-09-02 04:15:00,91.0,48.1,0.00,SE,135,10.7,19.9,23,0.00,,---,0.00,VWS V14.01,2013-09-02 09:15:00,
2013-09-02 04:16:00,91.2,48.2,0.00,South,180,8.7,12.1,23,0.00,,---,0.00,VWS V14.01,2013-09-02 09:16:00,
2013-09-02 04:17:00,91.2,48.2,0.00,SSE,158,11.9,13.2,23,0.00,,---,0.00,VWS V14.01,2013-09-02 09:17:00,
2013-09-02 04:18:00,91.2,48.2,0.00,SE,135,10.1,13.2,23,0.00,,---,0.00,VWS V14.01,2013-09-02 09:18:00,
2013-09-02 04:19:00,91.2,48.2,0.00,South,180,10.7,15.2,23,0.00,,---,0.00,VWS V14.01,2013-09-02 09:19:00,
2013-09-02 04:21:00,91.2,48.2,0.00,South,180,10.5,15.2,23,0.00,,---,0.00,VWS V14.01,2013-09-02 09:21:00,
2013-09-02 04:23:00,91.5,48.5,0.00,South,180,9.8,15.2,23,0.00,,---,0.00,VWS V14.01,2013-09-02 09:23:00,
2013-09-02 04:24:00,91.2,48.2,0.00,South,180,11.0,15.2,23,0.00,,---,0.00,VWS V14.01,2013-09-02 09:24:00,
2013-09-02 04:25:00,90.6,47.8,0.00,South,180,13.4,15.2,23,0.00,,---,0.00,VWS V14.01,2013-09-02 09:25:00,
2013-09-02 04:26:00,90.8,49.1,0.00,South,180,14.8,19.9,24,0.00,,---,0.00,VWS V14.01,2013-09-02 09:26:00,
2013-09-02 04:27:00,90.6,47.8,0.00,SE,135,12.1,19.9,23,0.00,,---,0.00,VWS V14.01,2013-09-02 09:27:00,
2013-09-02 04:28:00,90.8,49.1,0.00,SE,135,14.8,19.9,24,0.00,,---,0.00,VWS V14.01,2013-09-02 09:28:00,
2013-09-02 04:29:00,91.0,49.2,0.00,South,180,10.1,19.9,24,0.00,,---,0.00,VWS V14.01,2013-09-02 09:29:00,
2013-09-02 04:30:00,90.6,48.9,0.00,SSE,158,10.7,22.6,24,0.00,,---,0.00,VWS V14.01,2013-09-02 09:30:00,
2013-09-02 04:31:00,90.6,48.9,0.00,SSE,158,10.7,10.7,24,0.00,,---,0.00,VWS V14.01,2013-09-02 09:31:00,
2013-09-02 04:32:00,91.2,48.2,0.00,SE,135,12.5,12.5,23,0.00,,---,0.00,VWS V14.01,2013-09-02 09:32:00,
2013-09-02 04:33:00,91.5,48.5,0.00,SE,135,7.4,12.5,23,0.00,,---,0.00,VWS V14.01,2013-09-02 09:33:00,
2013-09-02 04:34:00,91.7,48.7,0.00,South,180,7.6,12.5,23,0.00,,---,0.00,VWS V14.01,2013-09-02 09:34:00,
2013-09-02 04:35:00,91.7,48.7,0.00,South,180,10.1,12.8,23,0.00,,---,0.00,VWS V14.01,2013-09-02 09:35:00,
2013-09-02 04:36:00,91.7,48.7,0.00,South,180,11.9,12.8,23,0.00,,---,0.00,VWS V14.01,2013-09-02 09:36:00,
2013-09-02 04:37:00,90.8,49.1,0.00,SE,135,10.1,13.0,24,0.00,,---,0.00,VWS V14.01,2013-09-02 09:37:00,
2013-09-02 04:38:00,90.8,49.1,0.00,SW,225,8.5,13.0,24,0.00,,---,0.00,VWS V14.01,2013-09-02 09:38:00,
2013-09-02 04:39:00,90.8,49.1,0.00,South,180,11.0,13.0,24,0.00,,---,0.00,VWS V14.01,2013-09-02 09:39:00,
2013-09-02 04:40:00,91.4,48.4,0.00,SW,225,5.6,13.0,23,0.00,,---,0.00,VWS V14.01,2013-09-02 09:40:00,
2013-09-02 04:41:00,91.4,48.4,0.00,SSW,202,8.5,13.0,23,0.00,,---,0.00,VWS V14.01,2013-09-02 09:41:00,
2013-09-02 04:42:00,91.5,48.5,0.00,South,180,6.3,13.0,23,0.00,,---,0.00,VWS V14.01,2013-09-02 09:42:00,
2013-09-02 04:43:00,91.5,48.5,0.00,SSW,202,9.0,13.0,23,0.00,,---,0.00,VWS V14.01,2013-09-02 09:43:00,
2013-09-02 04:44:00,91.5,48.5,0.00,SE,135,12.1,13.0,23,0.00,,---,0.00,VWS V14.01,2013-09-02 09:44:00,
2013-09-02 04:45:00,92.1,49.0,0.00,SW,225,9.2,13.0,23,0.00,,---,0.00,VWS V14.01,2013-09-02 09:45:00,
2013-09-02 04:46:00,92.1,49.0,0.00,SE,135,6.3,9.2,23,0.00,,---,0.00,VWS V14.01,2013-09-02 09:46:00,
2013-09-02 04:47:00,91.5,47.4,0.00,South,180,21.0,21.0,22,0.00,,---,0.00,VWS V14.01,2013-09-02 09:47:00,
2013-09-02 04:48:00,90.6,46.6,0.00,South,180,21.3,22.6,22,0.00,,---,0.00,VWS V14.01,2013-09-02 09:48:00,
2013-09-02 04:49:00,90.8,46.8,0.00,SSE,158,19.2,22.6,22,0.00,,---,0.00,VWS V14.01,2013-09-02 09:49:00,
2013-09-02 04:50:00,51.9,42.5,0.00,NW,315,0.0,2.7,70,0.00,,---,0.00,VWS V14.01,2013-09-02 09:50:00,
2013-09-02 04:51:00,90.6,46.6,0.00,SE,135,12.8,22.6,22,0.00,,---,0.00,VWS V14.01,2013-09-02 09:51:00,
2013-09-02 04:53:00,91.0,46.9,0.00,SE,135,15.2,22.6,22,0.00,,---,0.00,VWS V14.01,2013-09-02 09:53:00,
2013-09-02 04:54:00,90.6,47.8,0.00,SSE,158,14.5,22.6,23,0.00,,---,0.00,VWS V14.01,2013-09-02 09:54:00,
2013-09-02 04:55:00,90.5,47.7,0.00,South,180,14.5,22.6,23,0.00,,---,0.00,VWS V14.01,2013-09-02 09:55:00,
2013-09-02 04:56:00,90.5,47.7,0.00,South,180,14.5,22.6,23,0.00,,---,0.00,VWS V14.01,2013-09-02 09:56:00,
2013-09-02 04:58:00,90.8,48.0,0.00,SSE,158,15.2,22.6,23,0.00,,---,0.00,VWS V14.01,2013-09-02 09:58:00,
2013-09-02 04:59:00,91.2,48.2,0.00,South,180,14.8,22.6,23,0.00,,---,0.00,VWS V14.01,2013-09-02 09:59:00,
2013-09-02 05:00:00,90.6,48.9,0.00,South,180,10.7,22.6,24,0.00,,---,0.00,VWS V14.01,2013-09-02 10:00:00,
2013-09-02 05:01:00,90.8,49.1,0.00,SW,225,12.8,12.8,24,0.00,,---,0.00,VWS V14.01,2013-09-02 10:01:00,
2013-09-02 05:02:00,90.8,48.0,0.00,SW,225,9.6,12.8,23,0.00,,---,0.00,VWS V14.01,2013-09-02 10:02:00,
2013-09-02 05:03:00,90.8,48.0,0.00,SW,225,8.5,12.8,23,0.00,,---,0.00,VWS V14.01,2013-09-02 10:03:00,
2013-09-02 05:04:00,91.2,48.2,0.00,SW,225,8.1,12.8,23,0.00,,---,0.00,VWS V14.01,2013-09-02 10:04:00,
2013-09-02 05:05:00,91.4,48.4,0.00,South,180,8.1,12.8,23,0.00,,---,0.00,VWS V14.01,2013-09-02 10:05:00,
2013-09-02 05:06:00,51.8,43.0,0.00,NW,315,2.0,2.5,72,0.00,,---,0.00,VWS V14.01,2013-09-02 10:06:00,
2013-09-02 05:07:00,91.5,48.5,0.00,South,180,8.1,12.8,23,0.00,,---,0.00,VWS V14.01,2013-09-02 10:07:00,
2013-09-02 05:08:00,91.5,48.5,0.00,South,180,8.1,12.8,23,0.00,,---,0.00,VWS V14.01,2013-09-02 10:08:00,
2013-09-02 05:09:00,91.2,48.2,0.00,South,180,9.8,12.8,23,0.00,,---,0.00,VWS V14.01,2013-09-02 10:09:00,
2013-09-02 05:10:00,91.4,48.4,0.00,SW,225,10.3,12.8,23,0.00,,---,0.00,VWS V14.01,2013-09-02 10:10:00,
2013-09-02 05:11:00,91.4,48.4,0.00,SW,225,10.3,12.8,23,0.00,,---,0.00,VWS V14.01,2013-09-02 10:11:00,
2013-09-02 05:12:00,91.4,47.2,0.00,South,180,6.5,12.8,22,0.00,,---,0.00,VWS V14.01,2013-09-02 10:12:00,
2013-09-02 05:13:00,91.2,48.2,0.00,SW,225,8.7,12.8,23,0.00,,---,0.00,VWS V14.01,2013-09-02 10:13:00,
2013-09-02 05:14:00,91.2,47.1,0.00,SSW,202,11.0,12.8,22,0.00,,---,0.00,VWS V14.01,2013-09-02 10:14:00,
2013-09-02 05:15:00,91.2,47.1,0.00,SSW,202,11.0,12.8,22,0.00,,---,0.00,VWS V14.01,2013-09-02 10:15:00,
2013-09-02 05:16:00,91.2,47.1,0.00,South,180,14.5,14.5,22,0.00,,---,0.00,VWS V14.01,2013-09-02 10:16:00,
2013-09-02 05:17:00,90.8,48.0,0.00,South,180,9.2,14.8,23,0.00,,---,0.00,VWS V14.01,2013-09-02 10:17:00,
2013-09-02 05:18:00,91.0,48.1,0.00,South,180,7.8,14.8,23,0.00,,---,0.00,VWS V14.01,2013-09-02 10:18:00,
2013-09-02 05:19:00,91.0,48.1,0.00,SW,225,8.7,14.8,23,0.00,,---,0.00,VWS V14.01,2013-09-02 10:19:00,
2013-09-02 05:21:00,90.5,47.7,0.00,South,180,14.5,14.8,23,0.00,,---,0.00,VWS V14.01,2013-09-02 10:21:00,
2013-09-02 05:22:00,90.3,47.5,0.00,SW,225,7.8,14.8,23,0.00,,---,0.00,VWS V14.01,2013-09-02 10:22:00,
2013-09-02 05:23:00,90.6,47.8,0.00,SW,225,7.6,14.8,23,0.00,,---,0.00,VWS V14.01,2013-09-02 10:23:00,
2013-09-02 05:24:00,90.6,47.8,0.00,SE,135,12.8,14.8,23,0.00,,---,0.00,VWS V14.01,2013-09-02 10:24:00,
2013-09-02 05:25:00,90.6,47.8,0.00,South,180,12.1,14.8,23,0.00,,---,0.00,VWS V14.01,2013-09-02 10:25:00,
2013-09-02 05:26:00,90.8,48.0,0.00,South,180,7.6,14.8,23,0.00,,---,0.00,VWS V14.01,2013-09-02 10:26:00,
2013-09-02 05:27:00,90.8,48.0,0.00,South,180,13.2,14.8,23,0.00,,---,0.00,VWS V14.01,2013-09-02 10:27:00,
2013-09-02 05:28:00,90.5,46.5,0.00,South,180,12.3,15.7,22,0.00,,---,0.00,VWS V14.01,2013-09-02 10:28:00,
2013-09-02 05:29:00,89.7,47.0,0.00,SSE,158,13.4,15.7,23,0.00,,---,0.00,VWS V14.01,2013-09-02 10:29:00,
2013-09-02 05:30:00,89.7,47.0,0.00,South,180,16.6,16.6,23,0.00,,---,0.00,VWS V14.01,2013-09-02 10:30:00,
2013-09-02 05:31:00,89.7,47.0,0.00,SSE,158,12.8,16.6,23,0.00,,---,0.00,VWS V14.01,2013-09-02 10:31:00,
2013-09-02 05:32:00,89.7,47.0,0.00,South,180,17.7,17.7,23,0.00,,---,0.00,VWS V14.01,2013-09-02 10:32:00,
2013-09-02 05:33:00,89.6,46.9,0.00,SE,135,10.3,17.7,23,0.00,,---,0.00,VWS V14.01,2013-09-02 10:33:00,
2013-09-02 05:34:00,89.7,47.0,0.00,SE,135,10.5,17.7,23,0.00,,---,0.00,VWS V14.01,2013-09-02 10:34:00,
2013-09-02 05:35:00,89.9,46.0,0.00,SSE,158,10.7,17.7,22,0.00,,---,0.00,VWS V14.01,2013-09-02 10:35:00,
2013-09-02 05:36:00,90.1,46.2,0.00,SE,135,19.5,19.5,22,0.00,,---,0.00,VWS V14.01,2013-09-02 10:36:00,
2013-09-02 05:37:00,89.7,47.0,0.00,South,180,15.7,19.5,23,0.00,,---,0.00,VWS V14.01,2013-09-02 10:37:00,
2013-09-02 05:38:00,89.4,46.8,0.00,South,180,17.7,19.5,23,0.00,,---,0.00,VWS V14.01,2013-09-02 10:38:00,
2013-09-02 05:39:00,89.4,46.8,0.00,SE,135,14.1,19.5,23,0.00,,---,0.00,VWS V14.01,2013-09-02 10:39:00,
2013-09-02 05:40:00,89.4,46.8,0.00,South,180,13.2,19.5,23,0.00,,---,0.00,VWS V14.01,2013-09-02 10:40:00,
2013-09-02 05:41:00,89.4,46.8,0.00,SE,135,10.5,19.5,23,0.00,,---,0.00,VWS V14.01,2013-09-02 10:41:00,
2013-09-02 05:42:00,89.4,46.8,0.00,SE,135,13.2,19.5,23,0.00,,---,0.00,VWS V14.01,2013-09-02 10:42:00,
2013-09-02 05:43:00,89.4,46.8,0.00,SSE,158,12.8,19.5,23,0.00,,---,0.00,VWS V14.01,2013-09-02 10:43:00,
2013-09-02 05:44:00,89.6,46.9,0.00,SE,135,12.5,19.5,23,0.00,,---,0.00,VWS V14.01,2013-09-02 10:44:00,
2013-09-02 05:45:00,89.6,46.9,0.00,SE,135,14.5,19.5,23,0.00,,---,0.00,VWS V14.01,2013-09-02 10:45:00,
2013-09-02 05:46:00,89.6,46.9,0.00,SE,135,14.8,15.9,23,0.00,,---,0.00,VWS V14.01,2013-09-02 10:46:00,
2013-09-02 05:47:00,89.4,46.8,0.00,SE,135,12.1,15.9,23,0.00,,---,0.00,VWS V14.01,2013-09-02 10:47:00,
2013-09-02 05:48:00,89.4,46.8,0.00,South,180,15.2,15.9,23,0.00,,---,0.00,VWS V14.01,2013-09-02 10:48:00,
2013-09-02 05:49:00,89.4,46.8,0.00,SE,135,13.2,15.9,23,0.00,,---,0.00,VWS V14.01,2013-09-02 10:49:00,
2013-09-02 05:50:00,89.4,46.8,0.00,SE,135,13.2,15.9,23,0.00,,---,0.00,VWS V14.01,2013-09-02 10:50:00,
2013-09-02 05:51:00,89.4,46.8,0.00,South,180,15.4,15.9,23,0.00,,---,0.00,VWS V14.01,2013-09-02 10:51:00,
2013-09-02 05:52:00,89.4,46.8,0.00,South,180,13.2,15.9,23,0.00,,---,0.00,VWS V14.01,2013-09-02 10:52:00,
2013-09-02 05:53:00,88.8,47.4,0.00,South,180,11.2,15.9,24,0.00,,---,0.00,VWS V14.01,2013-09-02 10:53:00,
2013-09-02 05:54:00,88.8,46.3,0.00,South,180,17.0,17.5,23,0.00,,---,0.00,VWS V14.01,2013-09-02 10:54:00,
2013-09-02 05:55:00,88.7,47.3,0.00,SSE,158,14.1,17.5,24,0.00,,---,0.00,VWS V14.01,2013-09-02 10:55:00,
2013-09-02 05:56:00,88.7,47.3,0.00,SE,135,17.5,17.5,24,0.00,,---,0.00,VWS V14.01,2013-09-02 10:56:00,
2013-09-02 05:57:00,88.7,47.3,0.00,SSE,158,22.4,22.4,24,0.00,,---,0.00,VWS V14.01,2013-09-02 10:57:00,
2013-09-02 05:58:00,88.7,47.3,0.00,South,180,16.3,22.4,24,0.00,,---,0.00,VWS V14.01,2013-09-02 10:58:00,
2013-09-02 05:59:00,88.1,46.8,0.00,SSE,158,10.5,22.4,24,0.00,,---,0.00,VWS V14.01,2013-09-02 10:59:00,
2013-09-02 06:00:00,88.3,45.8,0.00,South,180,10.5,22.4,23,0.00,,---,0.00,VWS V14.01,2013-09-02 11:00:00,
2013-09-02 06:01:00,88.3,47.0,0.00,South,180,9.6,12.3,24,0.00,,---,0.00,VWS V14.01,2013-09-02 11:01:00,
2013-09-02 06:02:00,88.3,45.8,0.00,SE,135,10.7,12.3,23,0.00,,---,0.00,VWS V14.01,2013-09-02 11:02:00,
2013-09-02 06:03:00,88.5,46.0,0.00,SE,135,15.2,16.8,23,0.00,,---,0.00,VWS V14.01,2013-09-02 11:03:00,
2013-09-02 06:05:00,88.5,46.0,0.00,SE,135,12.3,16.8,23,0.00,,---,0.00,VWS V14.01,2013-09-02 11:05:00,
2013-09-02 06:06:00,88.5,46.0,0.00,SE,135,12.8,16.8,23,0.00,,---,0.00,VWS V14.01,2013-09-02 11:06:00,
2013-09-02 06:07:00,88.5,46.0,0.00,SE,135,12.1,16.8,23,0.00,,---,0.00,VWS V14.01,2013-09-02 11:07:00,
2013-09-02 06:08:00,88.5,46.0,0.00,SE,135,15.4,16.8,23,0.00,,---,0.00,VWS V14.01,2013-09-02 11:08:00,
2013-09-02 06:09:00,88.3,45.8,0.00,South,180,9.8,16.8,23,0.00,,---,0.00,VWS V14.01,2013-09-02 11:09:00,
2013-09-02 06:10:00,88.3,47.0,0.00,South,180,10.3,16.8,24,0.00,,---,0.00,VWS V14.01,2013-09-02 11:10:00,
2013-09-02 06:11:00,88.3,47.0,0.00,SW,225,7.4,16.8,24,0.00,,---,0.00,VWS V14.01,2013-09-02 11:11:00,
2013-09-02 06:12:00,88.3,47.0,0.00,South,180,11.0,16.8,24,0.00,,---,0.00,VWS V14.01,2013-09-02 11:12:00,
2013-09-02 06:13:00,88.1,47.9,0.00,South,180,8.1,16.8,25,0.00,,---,0.00,VWS V14.01,2013-09-02 11:13:00,
2013-09-02 06:14:00,88.1,46.8,0.00,South,180,8.7,16.8,24,0.00,,---,0.00,VWS V14.01,2013-09-02 11:14:00,
2013-09-02 06:15:00,87.9,46.7,0.00,SSE,158,8.5,16.8,24,0.00,,---,0.00,VWS V14.01,2013-09-02 11:15:00,
2013-09-02 06:16:00,87.9,46.7,0.00,SE,135,14.8,14.8,24,0.00,,---,0.00,VWS V14.01,2013-09-02 11:16:00,
2013-09-02 06:17:00,87.9,46.7,0.00,SSE,158,12.8,14.8,24,0.00,,---,0.00,VWS V14.01,2013-09-02 11:17:00,
2013-09-02 06:18:00,87.8,46.5,0.00,SSE,158,15.9,15.9,24,0.00,,---,0.00,VWS V14.01,2013-09-02 11:18:00,
2013-09-02 06:19:00,87.8,46.5,0.00,SE,135,10.5,15.9,24,0.00,,---,0.00,VWS V14.01,2013-09-02 11:19:00,
2013-09-02 06:20:00,87.8,46.5,0.00,SE,135,9.8,15.9,24,0.00,,---,0.00,VWS V14.01,2013-09-02 11:20:00,
2013-09-02 06:21:00,87.8,46.5,0.00,SSE,158,11.9,15.9,24,0.00,,---,0.00,VWS V14.01,2013-09-02 11:21:00,
2013-09-02 06:22:00,87.8,47.6,0.00,SSE,158,10.5,15.9,25,0.00,,---,0.00,VWS V14.01,2013-09-02 11:22:00,
2013-09-02 06:23:00,87.8,47.6,0.00,South,180,10.5,15.9,25,0.00,,---,0.00,VWS V14.01,2013-09-02 11:23:00,
2013-09-02 06:24:00,87.8,47.6,0.00,South,180,9.6,15.9,25,0.00,,---,0.00,VWS V14.01,2013-09-02 11:24:00,
2013-09-02 06:25:00,87.8,47.6,0.00,South,180,12.5,15.9,25,0.00,,---,0.00,VWS V14.01,2013-09-02 11:25:00,
2013-09-02 06:26:00,87.9,47.8,0.00,South,180,10.1,15.9,25,0.00,,---,0.00,VWS V14.01,2013-09-02 11:26:00,
2013-09-02 06:27:00,87.9,47.8,0.00,SSE,158,12.1,15.9,25,0.00,,---,0.00,VWS V14.01,2013-09-02 11:27:00,
2013-09-02 06:28:00,87.9,47.8,0.00,SSE,158,15.2,15.9,25,0.00,,---,0.00,VWS V14.01,2013-09-02 11:28:00,
2013-09-02 06:29:00,87.6,47.5,0.00,SSE,158,12.3,15.9,25,0.00,,---,0.00,VWS V14.01,2013-09-02 11:29:00,
2013-09-02 06:30:00,87.6,47.5,0.00,SSE,158,12.3,15.9,25,0.00,,---,0.00,VWS V14.01,2013-09-02 11:30:00,
2013-09-02 06:31:00,87.2,47.2,0.00,South,180,15.2,15.2,25,0.00,,---,0.00,VWS V14.01,2013-09-02 11:31:00,
2013-09-02 06:32:00,87.2,47.2,0.00,South,180,8.7,15.2,25,0.00,,---,0.00,VWS V14.01,2013-09-02 11:32:00,
2013-09-02 06:33:00,51.2,42.9,0.00,North,0,0.0,0.0,73,0.00,,---,0.00,VWS V14.01,2013-09-02 11:33:00,
2013-09-02 06:34:00,86.9,46.8,0.00,South,180,8.7,15.2,25,0.00,,---,0.00,VWS V14.01,2013-09-02 11:34:00,
2013-09-02 06:35:00,87.0,47.0,0.00,SSE,158,11.4,15.2,25,0.00,,---,0.00,VWS V14.01,2013-09-02 11:35:00,
2013-09-02 06:36:00,87.0,47.0,0.00,SE,135,12.8,15.2,25,0.00,,---,0.00,VWS V14.01,2013-09-02 11:36:00,
2013-09-02 06:37:00,87.0,47.0,0.00,South,180,13.2,15.2,25,0.00,,---,0.00,VWS V14.01,2013-09-02 11:37:00,
2013-09-02 06:38:00,86.9,46.8,0.00,South,180,13.2,15.2,25,0.00,,---,0.00,VWS V14.01,2013-09-02 11:38:00,
2013-09-02 06:39:00,86.7,47.7,0.00,SE,135,10.1,15.2,26,0.00,,---,0.00,VWS V14.01,2013-09-02 11:39:00,
2013-09-02 06:40:00,86.7,46.7,0.00,South,180,17.0,17.0,25,0.00,,---,0.00,VWS V14.01,2013-09-02 11:40:00,
2013-09-02 06:41:00,86.7,46.7,0.00,South,180,12.5,17.0,25,0.00,,---,0.00,VWS V14.01,2013-09-02 11:41:00,
2013-09-02 06:42:00,86.7,46.7,0.00,SE,135,15.2,17.7,25,0.00,,---,0.00,VWS V14.01,2013-09-02 11:42:00,
2013-09-02 06:43:00,86.5,46.5,0.00,SSE,158,12.5,17.7,25,0.00,,---,0.00,VWS V14.01,2013-09-02 11:43:00,
2013-09-02 06:44:00,86.7,46.7,0.00,SSE,158,12.8,17.7,25,0.00,,---,0.00,VWS V14.01,2013-09-02 11:44:00,
2013-09-02 06:45:00,86.7,46.7,0.00,SE,135,12.8,17.7,25,0.00,,---,0.00,VWS V14.01,2013-09-02 11:45:00,
2013-09-02 06:46:00,86.7,46.7,0.00,SE,135,14.8,15.4,25,0.00,,---,0.00,VWS V14.01,2013-09-02 11:46:00,
2013-09-02 06:47:00,86.7,47.7,0.00,SSE,158,15.4,15.4,26,0.00,,---,0.00,VWS V14.01,2013-09-02 11:47:00,
2013-09-02 06:48:00,86.7,46.7,0.00,SE,135,11.4,15.4,25,0.00,,---,0.00,VWS V14.01,2013-09-02 11:48:00,
2013-09-02 06:49:00,86.7,46.7,0.00,South,180,11.0,15.4,25,0.00,,---,0.00,VWS V14.01,2013-09-02 11:49:00,
2013-09-02 06:50:00,86.3,47.4,0.00,South,180,12.5,15.4,26,0.00,,---,0.00,VWS V14.01,2013-09-02 11:50:00,
2013-09-02 06:51:00,86.1,47.3,0.00,SSW,202,14.3,17.7,26,0.00,,---,0.00,VWS V14.01,2013-09-02 11:51:00,
2013-09-02 06:52:00,86.1,47.3,0.00,SE,135,17.2,17.7,26,0.00,,---,0.00,VWS V14.01,2013-09-02 11:52:00,
2013-09-02 06:53:00,86.1,47.3,0.00,South,180,10.1,17.7,26,0.00,,---,0.00,VWS V14.01,2013-09-02 11:53:00,
2013-09-02 06:54:00,86.1,47.3,0.00,South,180,10.1,17.7,26,0.00,,---,0.00,VWS V14.01,2013-09-02 11:54:00,
2013-09-02 06:55:00,86.1,47.3,0.00,South,180,12.8,17.7,26,0.00,,---,0.00,VWS V14.01,2013-09-02 11:55:00,
2013-09-02 06:56:00,86.1,47.3,0.00,South,180,9.8,17.7,26,0.00,,---,0.00,VWS V14.01,2013-09-02 11:56:00,
2013-09-02 06:57:00,86.1,47.3,0.00,South,180,10.7,17.7,26,0.00,,---,0.00,VWS V14.01,2013-09-02 11:57:00,
2013-09-02 06:58:00,86.0,47.1,0.00,SSE,158,10.1,17.7,26,0.00,,---,0.00,VWS V14.01,2013-09-02 11:58:00,
2013-09-02 07:00:00,86.0,47.1,0.00,South,180,15.2,17.7,26,0.00,,---,0.00,VWS V14.01,2013-09-02 12:00:00,
2013-09-02 07:01:00,85.6,46.8,0.00,South,180,10.5,15.2,26,0.00,,---,0.00,VWS V14.01,2013-09-02 12:01:00,
2013-09-02 07:02:00,85.6,46.8,0.00,South,180,10.1,15.2,26,0.00,,---,0.00,VWS V14.01,2013-09-02 12:02:00,
2013-09-02 07:03:00,85.6,47.8,0.00,South,180,9.4,15.2,27,0.00,,---,0.00,VWS V14.01,2013-09-02 12:03:00,
2013-09-02 07:04:00,85.6,47.8,0.00,South,180,6.7,15.2,27,0.00,,---,0.00,VWS V14.01,2013-09-02 12:04:00,
2013-09-02 07:05:00,85.4,47.7,0.00,South,180,12.3,15.2,27,0.00,,---,0.00,VWS V14.01,2013-09-02 12:05:00,
2013-09-02 07:06:00,85.4,47.7,0.00,South,180,12.3,15.2,27,0.00,,---,0.00,VWS V14.01,2013-09-02 12:06:00,
2013-09-02 07:07:00,85.2,47.5,0.00,South,180,13.0,15.2,27,0.00,,---,0.00,VWS V14.01,2013-09-02 12:07:00,
2013-09-02 07:08:00,85.2,47.5,0.00,SE,135,10.7,15.2,27,0.00,,---,0.00,VWS V14.01,2013-09-02 12:08:00,
2013-09-02 07:09:00,85.2,47.5,0.00,South,180,13.2,15.2,27,0.00,,---,0.00,VWS V14.01,2013-09-02 12:09:00,
2013-09-02 07:10:00,85.2,47.5,0.00,SSE,158,10.1,15.2,27,0.00,,---,0.00,VWS V14.01,2013-09-02 12:10:00,
2013-09-02 07:11:00,85.2,47.5,0.00,SSE,158,10.3,15.2,27,0.00,,---,0.00,VWS V14.01,2013-09-02 12:11:00,
2013-09-02 07:12:00,85.1,47.4,0.00,South,180,13.0,15.2,27,0.00,,---,0.00,VWS V14.01,2013-09-02 12:12:00,
2013-09-02 07:13:00,85.1,47.4,0.00,SSE,158,10.5,15.2,27,0.00,,---,0.00,VWS V14.01,2013-09-02 12:13:00,
2013-09-02 07:14:00,85.1,47.4,0.00,SE,135,11.0,15.2,27,0.00,,---,0.00,VWS V14.01,2013-09-02 12:14:00,
2013-09-02 07:15:00,85.1,47.4,0.00,South,180,12.8,15.2,27,0.00,,---,0.00,VWS V14.01,2013-09-02 12:15:00,
2013-09-02 07:16:00,84.9,47.2,0.00,South,180,12.8,15.2,27,0.00,,---,0.00,VWS V14.01,2013-09-02 12:16:00,
2013-09-02 07:17:00,84.7,47.1,0.00,South,180,10.7,15.2,27,0.00,,---,0.00,VWS V14.01,2013-09-02 12:17:00,
2013-09-02 07:18:00,84.7,48.0,0.00,South,180,10.7,15.2,28,0.00,,---,0.00,VWS V14.01,2013-09-02 12:18:00,
2013-09-02 07:19:00,84.7,48.0,0.00,South,180,12.3,15.9,28,0.00,,---,0.00,VWS V14.01,2013-09-02 12:19:00,
2013-09-02 07:20:00,84.5,47.9,0.00,South,180,12.8,15.9,28,0.00,,---,0.00,VWS V14.01,2013-09-02 12:20:00,
2013-09-02 07:21:00,84.5,47.9,0.00,South,180,12.3,15.9,28,0.00,,---,0.00,VWS V14.01,2013-09-02 12:21:00,
2013-09-02 07:22:00,84.5,47.9,0.00,South,180,8.5,15.9,28,0.00,,---,0.00,VWS V14.01,2013-09-02 12:22:00,
2013-09-02 07:23:00,84.3,47.7,0.00,South,180,11.9,15.9,28,0.00,,---,0.00,VWS V14.01,2013-09-02 12:23:00,
2013-09-02 07:24:00,84.3,47.7,0.00,South,180,10.7,15.9,28,0.00,,---,0.00,VWS V14.01,2013-09-02 12:24:00,
2013-09-02 07:25:00,84.3,47.7,0.00,South,180,12.5,15.9,28,0.00,,---,0.00,VWS V14.01,2013-09-02 12:25:00,
2013-09-02 07:26:00,84.3,47.7,0.00,South,180,8.5,15.9,28,0.00,,---,0.00,VWS V14.01,2013-09-02 12:26:00,
2013-09-02 07:27:00,84.3,47.7,0.00,SE,135,10.1,15.9,28,0.00,,---,0.00,VWS V14.01,2013-09-02 12:27:00,
2013-09-02 07:28:00,84.3,47.7,0.00,South,180,10.3,15.9,28,0.00,,---,0.00,VWS V14.01,2013-09-02 12:28:00,
2013-09-02 07:30:00,84.2,47.6,0.00,South,180,13.0,15.9,28,0.00,,---,0.00,VWS V14.01,2013-09-02 12:30:00,
2013-09-02 07:32:00,84.0,47.4,0.00,South,180,9.8,18.6,28,0.00,,---,0.00,VWS V14.01,2013-09-02 12:32:00,
2013-09-02 07:33:00,50.0,42.4,0.00,NE,45,0.0,0.0,75,0.00,,---,0.00,VWS V14.01,2013-09-02 12:33:00,
2013-09-02 07:34:00,84.0,47.4,0.00,South,180,10.1,18.6,28,0.00,,---,0.00,VWS V14.01,2013-09-02 12:34:00,
2013-09-02 07:35:00,83.4,47.9,0.00,SSE,158,10.5,18.6,29,0.00,,---,0.00,VWS V14.01,2013-09-02 12:35:00,
2013-09-02 07:36:00,83.3,47.7,0.00,South,180,13.9,18.6,29,0.00,,---,0.00,VWS V14.01,2013-09-02 12:36:00,
2013-09-02 07:37:00,83.3,47.7,0.00,South,180,11.9,18.6,29,0.00,,---,0.00,VWS V14.01,2013-09-02 12:37:00,
2013-09-02 07:38:00,83.1,47.6,0.00,SSE,158,12.3,18.6,29,0.00,,---,0.00,VWS V14.01,2013-09-02 12:38:00,
2013-09-02 07:39:00,83.1,47.6,0.00,South,180,10.3,18.6,29,0.00,,---,0.00,VWS V14.01,2013-09-02 12:39:00,
2013-09-02 07:40:00,82.9,47.4,0.00,South,180,8.1,18.6,29,0.00,,---,0.00,VWS V14.01,2013-09-02 12:40:00,
2013-09-02 07:41:00,82.7,47.3,0.00,South,180,8.5,18.6,29,0.00,,---,0.00,VWS V14.01,2013-09-02 12:41:00,
2013-09-02 07:42:00,82.7,47.3,0.00,South,180,9.8,18.6,29,0.00,,---,0.00,VWS V14.01,2013-09-02 12:42:00,
2013-09-02 07:43:00,82.5,47.1,0.00,SE,135,10.1,18.6,29,0.00,,---,0.00,VWS V14.01,2013-09-02 12:43:00,
2013-09-02 07:44:00,82.5,47.1,0.00,South,180,8.5,18.6,29,0.00,,---,0.00,VWS V14.01,2013-09-02 12:44:00,
2013-09-02 07:45:00,82.4,47.0,0.00,South,180,10.5,18.6,29,0.00,,---,0.00,VWS V14.01,2013-09-02 12:45:00,
2013-09-02 07:46:00,82.4,47.0,0.00,South,180,9.6,13.2,29,0.00,,---,0.00,VWS V14.01,2013-09-02 12:46:00,
2013-09-02 07:47:00,82.2,46.8,0.00,South,180,10.5,13.2,29,0.00,,---,0.00,VWS V14.01,2013-09-02 12:47:00,
2013-09-02 07:49:00,82.0,46.6,0.00,South,180,8.1,13.2,29,0.00,,---,0.00,VWS V14.01,2013-09-02 12:49:00,
2013-09-02 07:51:00,82.0,46.6,0.00,SSE,158,7.6,13.2,29,0.00,,---,0.00,VWS V14.01,2013-09-02 12:51:00,
2013-09-02 07:52:00,82.0,46.6,0.00,South,180,9.8,13.2,29,0.00,,---,0.00,VWS V14.01,2013-09-02 12:52:00,
2013-09-02 07:53:00,81.8,47.4,0.00,SSE,158,8.5,13.2,30,0.00,,---,0.00,VWS V14.01,2013-09-02 12:53:00,
2013-09-02 07:54:00,81.8,47.4,0.00,SSE,158,6.9,13.2,30,0.00,,---,0.00,VWS V14.01,2013-09-02 12:54:00,
2013-09-02 07:55:00,81.8,47.4,0.00,South,180,8.1,13.2,30,0.00,,---,0.00,VWS V14.01,2013-09-02 12:55:00,
2013-09-02 07:56:00,81.6,47.2,0.00,SSE,158,8.5,13.2,30,0.00,,---,0.00,VWS V14.01,2013-09-02 12:56:00,
2013-09-02 07:57:00,81.6,47.2,0.00,SE,135,8.5,13.2,30,0.00,,---,0.00,VWS V14.01,2013-09-02 12:57:00,
2013-09-02 07:58:00,81.5,47.1,0.00,SSE,158,10.5,13.2,30,0.00,,---,0.00,VWS V14.01,2013-09-02 12:58:00,
2013-09-02 07:59:00,81.5,47.1,0.00,SE,135,9.8,13.2,30,0.00,,---,0.00,VWS V14.01,2013-09-02 12:59:00,
2013-09-02 08:00:00,81.5,47.1,0.00,SSE,158,10.1,13.2,30,0.00,,---,0.00,VWS V14.01,2013-09-02 13:00:00,
2013-09-02 08:01:00,81.1,46.8,0.00,SSE,158,7.8,11.2,30,0.00,,---,0.00,VWS V14.01,2013-09-02 13:01:00,
2013-09-02 08:02:00,81.1,46.8,0.00,SE,135,7.4,11.2,30,0.00,,---,0.00,VWS V14.01,2013-09-02 13:02:00,
2013-09-02 08:04:00,80.9,46.6,0.00,SSE,158,7.6,11.2,30,0.00,,---,0.00,VWS V14.01,2013-09-02 13:04:00,
2013-09-02 08:05:00,80.4,46.1,0.00,South,180,8.1,11.2,30,0.00,,---,0.00,VWS V14.01,2013-09-02 13:05:00,
2013-09-02 08:06:00,80.4,46.1,0.00,SSE,158,8.1,11.2,30,0.00,,---,0.00,VWS V14.01,2013-09-02 13:06:00,
2013-09-02 08:07:00,80.2,46.0,0.00,SSE,158,13.4,13.4,30,0.00,,---,0.00,VWS V14.01,2013-09-02 13:07:00,
2013-09-02 08:08:00,79.8,45.7,0.00,SSE,158,10.1,13.4,30,0.00,,---,0.00,VWS V14.01,2013-09-02 13:08:00,
2013-09-02 08:10:00,79.8,46.5,0.00,SE,135,8.5,13.4,31,0.00,,---,0.00,VWS V14.01,2013-09-02 13:10:00,
2013-09-02 08:12:00,79.7,46.4,0.00,South,180,7.4,13.4,31,0.00,,---,0.00,VWS V14.01,2013-09-02 13:12:00,
2013-09-02 08:13:00,79.3,46.1,0.00,SE,135,7.8,13.4,31,0.00,,---,0.00,VWS V14.01,2013-09-02 13:13:00,
2013-09-02 08:14:00,79.3,46.1,0.00,SE,135,7.4,13.4,31,0.00,,---,0.00,VWS V14.01,2013-09-02 13:14:00,
2013-09-02 08:15:00,79.3,46.1,0.00,SE,135,7.8,13.4,31,0.00,,---,0.00,VWS V14.01,2013-09-02 13:15:00,
2013-09-02 08:16:00,78.9,45.8,0.00,SE,135,10.5,10.5,31,0.00,,---,0.00,VWS V14.01,2013-09-02 13:16:00,
2013-09-02 08:17:00,78.8,45.6,0.00,SE,135,8.7,10.5,31,0.00,,---,0.00,VWS V14.01,2013-09-02 13:17:00,
2013-09-02 08:18:00,78.8,45.6,0.00,SE,135,7.8,10.5,31,0.00,,---,0.00,VWS V14.01,2013-09-02 13:18:00,
2013-09-02 08:19:00,78.6,45.5,0.00,SE,135,11.2,11.2,31,0.00,,---,0.00,VWS V14.01,2013-09-02 13:19:00,
2013-09-02 08:20:00,78.6,45.5,0.00,South,180,7.8,11.2,31,0.00,,---,0.00,VWS V14.01,2013-09-02 13:20:00,
2013-09-02 08:21:00,78.6,45.5,0.00,South,180,7.6,11.2,31,0.00,,---,0.00,VWS V14.01,2013-09-02 13:21:00,
2013-09-02 08:22:00,78.6,45.5,0.00,SSE,158,8.7,11.2,31,0.00,,---,0.00,VWS V14.01,2013-09-02 13:22:00,
2013-09-02 08:23:00,78.4,45.3,0.00,SSE,158,7.2,11.2,31,0.00,,---,0.00,VWS V14.01,2013-09-02 13:23:00,
2013-09-02 08:24:00,78.4,45.3,0.00,SW,225,8.1,11.2,31,0.00,,---,0.00,VWS V14.01,2013-09-02 13:24:00,
2013-09-02 08:25:00,78.2,45.1,0.00,SSE,158,10.3,11.2,31,0.00,,---,0.00,VWS V14.01,2013-09-02 13:25:00,
2013-09-02 08:26:00,78.0,45.0,0.00,SE,135,7.8,11.2,31,0.00,,---,0.00,VWS V14.01,2013-09-02 13:26:00,
2013-09-02 08:27:00,78.0,45.0,0.00,SE,135,8.5,11.2,31,0.00,,---,0.00,VWS V14.01,2013-09-02 13:27:00,
2013-09-02 08:28:00,77.9,44.8,0.00,South,180,7.6,11.2,31,0.00,,---,0.00,VWS V14.01,2013-09-02 13:28:00,
2013-09-02 08:29:00,77.9,44.8,0.00,SE,135,11.0,11.2,31,0.00,,---,0.00,VWS V14.01,2013-09-02 13:29:00,
2013-09-02 08:30:00,77.7,44.7,0.00,SE,135,8.5,11.2,31,0.00,,---,0.00,VWS V14.01,2013-09-02 13:30:00,
2013-09-02 08:31:00,77.7,44.7,0.00,SE,135,10.1,10.1,31,0.00,,---,0.00,VWS V14.01,2013-09-02 13:31:00,
2013-09-02 08:32:00,77.7,44.7,0.00,SSE,158,7.8,10.1,31,0.00,,---,0.00,VWS V14.01,2013-09-02 13:32:00,
2013-09-02 08:33:00,77.5,44.5,0.00,SE,135,8.7,10.1,31,0.00,,---,0.00,VWS V14.01,2013-09-02 13:33:00,
2013-09-02 08:34:00,77.5,44.5,0.00,SE,135,8.7,10.7,31,0.00,,---,0.00,VWS V14.01,2013-09-02 13:34:00,
2013-09-02 08:35:00,77.3,44.4,0.00,SE,135,9.2,10.7,31,0.00,,---,0.00,VWS V14.01,2013-09-02 13:35:00,
2013-09-02 08:36:00,77.3,44.4,0.00,SSE,158,7.8,10.7,31,0.00,,---,0.00,VWS V14.01,2013-09-02 13:36:00,
2013-09-02 08:37:00,77.3,45.2,0.00,SE,135,8.7,10.7,32,0.00,,---,0.00,VWS V14.01,2013-09-02 13:37:00,
2013-09-02 08:38:00,77.1,45.0,0.00,SE,135,7.8,10.7,32,0.00,,---,0.00,VWS V14.01,2013-09-02 13:38:00,
2013-09-02 08:39:00,77.1,45.0,0.00,SSE,158,7.4,10.7,32,0.00,,---,0.00,VWS V14.01,2013-09-02 13:39:00,
2013-09-02 08:40:00,77.0,44.9,0.00,South,180,8.1,10.7,32,0.00,,---,0.00,VWS V14.01,2013-09-02 13:40:00,
2013-09-02 08:41:00,77.0,44.9,0.00,SE,135,8.1,10.7,32,0.00,,---,0.00,VWS V14.01,2013-09-02 13:41:00,
2013-09-02 08:42:00,76.8,44.7,0.00,SSE,158,7.4,10.7,32,0.00,,---,0.00,VWS V14.01,2013-09-02 13:42:00,
2013-09-02 08:43:00,76.8,44.7,0.00,SE,135,8.1,10.7,32,0.00,,---,0.00,VWS V14.01,2013-09-02 13:43:00,
2013-09-02 08:44:00,76.8,44.7,0.00,SSE,158,6.3,10.7,32,0.00,,---,0.00,VWS V14.01,2013-09-02 13:44:00,
2013-09-02 08:45:00,76.6,44.6,0.00,SSE,158,8.1,10.7,32,0.00,,---,0.00,VWS V14.01,2013-09-02 13:45:00,
2013-09-02 08:46:00,76.4,44.4,0.00,SSE,158,8.5,8.5,32,0.00,,---,0.00,VWS V14.01,2013-09-02 13:46:00,
2013-09-02 08:47:00,76.4,44.4,0.00,SSE,158,7.2,8.7,32,0.00,,---,0.00,VWS V14.01,2013-09-02 13:47:00,
2013-09-02 08:48:00,76.2,44.2,0.00,SSE,158,7.8,10.3,32,0.00,,---,0.00,VWS V14.01,2013-09-02 13:48:00,
2013-09-02 08:49:00,76.2,44.2,0.00,SE,135,10.1,10.3,32,0.00,,---,0.00,VWS V14.01,2013-09-02 13:49:00,
2013-09-02 08:50:00,76.1,44.1,0.00,SE,135,9.6,10.3,32,0.00,,---,0.00,VWS V14.01,2013-09-02 13:50:00,
2013-09-02 08:51:00,76.1,44.1,0.00,SSE,158,6.5,10.3,32,0.00,,---,0.00,VWS V14.01,2013-09-02 13:51:00,
2013-09-02 08:53:00,75.9,44.8,0.00,SE,135,9.2,10.3,33,0.00,,---,0.00,VWS V14.01,2013-09-02 13:53:00,
2013-09-02 08:54:00,75.7,44.6,0.00,SSE,158,6.0,10.3,33,0.00,,---,0.00,VWS V14.01,2013-09-02 13:54:00,
2013-09-02 08:55:00,75.7,44.6,0.00,SE,135,8.7,10.3,33,0.00,,---,0.00,VWS V14.01,2013-09-02 13:55:00,
2013-09-02 08:56:00,75.7,44.6,0.00,SE,135,7.4,10.3,33,0.00,,---,0.00,VWS V14.01,2013-09-02 13:56:00,
2013-09-02 08:57:00,75.5,44.4,0.00,SE,135,8.5,10.3,33,0.00,,---,0.00,VWS V14.01,2013-09-02 13:57:00,
2013-09-02 08:58:00,75.5,44.4,0.00,SE,135,7.8,10.3,33,0.00,,---,0.00,VWS V14.01,2013-09-02 13:58:00,
2013-09-02 08:59:00,75.5,44.4,0.00,SE,135,10.7,10.7,33,0.00,,---,0.00,VWS V14.01,2013-09-02 13:59:00,
2013-09-02 09:00:00,75.3,44.3,0.00,SE,135,7.4,10.7,33,0.00,,---,0.00,VWS V14.01,2013-09-02 14:00:00,
2013-09-02 09:01:00,75.3,44.3,0.00,South,180,7.2,8.5,33,0.00,,---,0.00,VWS V14.01,2013-09-02 14:01:00,
2013-09-02 09:02:00,75.3,44.3,0.00,SSE,158,5.8,8.5,33,0.00,,---,0.00,VWS V14.01,2013-09-02 14:02:00,
2013-09-02 09:03:00,75.3,44.3,0.00,SSE,158,5.6,8.5,33,0.00,,---,0.00,VWS V14.01,2013-09-02 14:03:00,
2013-09-02 09:04:00,75.0,44.0,0.00,SE,135,4.9,8.5,33,0.00,,---,0.00,VWS V14.01,2013-09-02 14:04:00,
2013-09-02 09:05:00,75.0,44.0,0.00,SSE,158,8.5,8.5,33,0.00,,---,0.00,VWS V14.01,2013-09-02 14:05:00,
2013-09-02 09:06:00,74.8,43.8,0.00,South,180,6.0,8.5,33,0.00,,---,0.00,VWS V14.01,2013-09-02 14:06:00,
2013-09-02 09:07:00,74.8,43.8,0.00,SSE,158,6.3,8.5,33,0.00,,---,0.00,VWS V14.01,2013-09-02 14:07:00,
2013-09-02 09:08:00,74.6,44.4,0.00,SSE,158,6.0,8.5,34,0.00,,---,0.00,VWS V14.01,2013-09-02 14:08:00,
2013-09-02 09:09:00,74.6,44.4,0.00,SE,135,5.4,8.5,34,0.00,,---,0.00,VWS V14.01,2013-09-02 14:09:00,
2013-09-02 09:10:00,74.6,44.4,0.00,SSE,158,7.2,8.5,34,0.00,,---,0.00,VWS V14.01,2013-09-02 14:10:00,
2013-09-02 09:12:00,74.3,44.1,0.00,SSE,158,5.4,8.5,34,0.00,,---,0.00,VWS V14.01,2013-09-02 14:12:00,
2013-09-02 09:13:00,74.1,44.0,0.00,SE,135,6.5,8.5,34,0.00,,---,0.00,VWS V14.01,2013-09-02 14:13:00,
2013-09-02 09:15:00,74.1,44.0,0.00,South,180,6.5,7.2,34,0.00,,---,0.00,VWS V14.01,2013-09-02 14:15:00,
2013-09-02 09:16:00,74.1,44.0,0.00,South,180,6.5,7.2,34,0.00,,---,0.00,VWS V14.01,2013-09-02 14:16:00,
2013-09-02 09:17:00,74.1,44.0,0.00,SSE,158,6.9,7.2,34,0.00,,---,0.00,VWS V14.01,2013-09-02 14:17:00,
2013-09-02 09:18:00,73.7,43.6,0.00,SSE,158,6.3,7.6,34,0.00,,---,0.00,VWS V14.01,2013-09-02 14:18:00,
2013-09-02 09:19:00,73.5,44.2,0.00,SE,135,6.5,7.6,35,0.00,,---,0.00,VWS V14.01,2013-09-02 14:19:00,
2013-09-02 09:20:00,73.5,44.2,0.00,SSE,158,6.5,7.6,35,0.00,,---,0.00,VWS V14.01,2013-09-02 14:20:00,
2013-09-02 09:21:00,73.4,44.1,0.00,SSE,158,7.6,10.1,35,0.00,,---,0.00,VWS V14.01,2013-09-02 14:21:00,
2013-09-02 09:22:00,73.4,44.1,0.00,SSE,158,10.5,10.5,35,0.00,,---,0.00,VWS V14.01,2013-09-02 14:22:00,
2013-09-02 09:23:00,73.4,44.1,0.00,SSE,158,5.6,10.5,35,0.00,,---,0.00,VWS V14.01,2013-09-02 14:23:00,
2013-09-02 09:24:00,73.4,44.1,0.00,SSE,158,6.0,10.5,35,0.00,,---,0.00,VWS V14.01,2013-09-02 14:24:00,
2013-09-02 09:26:00,73.2,43.9,0.00,South,180,6.3,10.5,35,0.00,,---,0.00,VWS V14.01,2013-09-02 14:26:00,
2013-09-02 09:27:00,73.2,43.9,0.00,South,180,6.0,10.5,35,0.00,,---,0.00,VWS V14.01,2013-09-02 14:27:00,
2013-09-02 09:28:00,73.0,43.8,0.00,South,180,6.5,10.5,35,0.00,,---,0.00,VWS V14.01,2013-09-02 14:28:00,
2013-09-02 09:29:00,73.0,43.8,0.00,SSE,158,5.8,10.5,35,0.00,,---,0.00,VWS V14.01,2013-09-02 14:29:00,
2013-09-02 09:30:00,72.8,44.3,0.00,South,180,6.5,10.5,36,0.00,,---,0.00,VWS V14.01,2013-09-02 14:30:00,
2013-09-02 09:31:00,72.8,44.3,0.00,SE,135,6.5,6.5,36,0.00,,---,0.00,VWS V14.01,2013-09-02 14:31:00,
2013-09-02 09:32:00,72.8,44.3,0.00,SSE,158,5.6,6.5,36,0.00,,---,0.00,VWS V14.01,2013-09-02 14:32:00,
2013-09-02 09:33:00,72.8,44.3,0.00,SSE,158,6.0,8.7,36,0.00,,---,0.00,VWS V14.01,2013-09-02 14:33:00,
2013-09-02 09:34:00,72.8,44.3,0.00,South,180,6.0,8.7,36,0.00,,---,0.00,VWS V14.01,2013-09-02 14:34:00,
2013-09-02 09:35:00,72.6,44.2,0.00,South,180,6.3,8.7,36,0.00,,---,0.00,VWS V14.01,2013-09-02 14:35:00,
2013-09-02 09:36:00,72.6,44.2,0.00,South,180,6.3,8.7,36,0.00,,---,0.00,VWS V14.01,2013-09-02 14:36:00,
2013-09-02 09:37:00,72.6,44.2,0.00,SSE,158,10.5,10.5,36,0.00,,---,0.00,VWS V14.01,2013-09-02 14:37:00,
2013-09-02 09:38:00,72.6,44.2,0.00,SE,135,5.8,10.5,36,0.00,,---,0.00,VWS V14.01,2013-09-02 14:38:00,
2013-09-02 09:39:00,72.6,44.9,0.00,South,180,5.8,10.5,37,0.00,,---,0.00,VWS V14.01,2013-09-02 14:39:00,
2013-09-02 09:40:00,72.5,44.7,0.00,South,180,8.7,10.5,37,0.00,,---,0.00,VWS V14.01,2013-09-02 14:40:00,
2013-09-02 09:41:00,72.5,44.7,0.00,SSE,158,5.8,10.5,37,0.00,,---,0.00,VWS V14.01,2013-09-02 14:41:00,
2013-09-02 09:42:00,72.5,44.7,0.00,SE,135,4.9,10.5,37,0.00,,---,0.00,VWS V14.01,2013-09-02 14:42:00,
2013-09-02 09:44:00,72.5,44.7,0.00,SE,135,6.0,10.5,37,0.00,,---,0.00,VWS V14.01,2013-09-02 14:44:00,
2013-09-02 09:45:00,72.1,44.4,0.00,SSE,158,6.3,10.5,37,0.00,,---,0.00,VWS V14.01,2013-09-02 14:45:00,
2013-09-02 09:46:00,72.1,44.4,0.00,SE,135,5.8,6.9,37,0.00,,---,0.00,VWS V14.01,2013-09-02 14:46:00,
2013-09-02 09:47:00,72.1,44.4,0.00,SE,135,6.0,6.9,37,0.00,,---,0.00,VWS V14.01,2013-09-02 14:47:00,
2013-09-02 09:48:00,72.1,44.4,0.00,SSE,158,4.9,6.9,37,0.00,,---,0.00,VWS V14.01,2013-09-02 14:48:00,
2013-09-02 09:49:00,71.7,44.1,0.00,SE,135,4.3,6.9,37,0.00,,---,0.00,VWS V14.01,2013-09-02 14:49:00,
2013-09-02 09:50:00,71.7,44.1,0.00,SSE,158,4.9,6.9,37,0.00,,---,0.00,VWS V14.01,2013-09-02 14:50:00,
2013-09-02 09:52:00,71.6,43.9,0.00,SE,135,5.8,6.9,37,0.00,,---,0.00,VWS V14.01,2013-09-02 14:52:00,
2013-09-02 09:53:00,71.6,43.9,0.00,SE,135,4.3,6.9,37,0.00,,---,0.00,VWS V14.01,2013-09-02 14:53:00,
2013-09-02 09:54:00,71.4,43.8,0.00,SE,135,5.6,6.9,37,0.00,,---,0.00,VWS V14.01,2013-09-02 14:54:00,
2013-09-02 09:55:00,71.2,44.3,0.00,SE,135,4.9,6.9,38,0.00,,---,0.00,VWS V14.01,2013-09-02 14:55:00,
2013-09-02 09:56:00,71.2,44.3,0.00,SE,135,5.4,6.9,38,0.00,,---,0.00,VWS V14.01,2013-09-02 14:56:00,
2013-09-02 09:57:00,71.0,44.2,0.00,SE,135,4.9,6.9,38,0.00,,---,0.00,VWS V14.01,2013-09-02 14:57:00,
2013-09-02 09:58:00,71.0,44.2,0.00,SE,135,4.7,6.9,38,0.00,,---,0.00,VWS V14.01,2013-09-02 14:58:00,
2013-09-02 09:59:00,70.8,44.0,0.00,SSE,158,4.9,6.9,38,0.00,,---,0.00,VWS V14.01,2013-09-02 14:59:00,
2013-09-02 10:00:00,70.8,44.0,0.00,SSE,158,4.0,6.9,38,0.00,,---,0.00,VWS V14.01,2013-09-02 15:00:00,
2013-09-02 10:01:00,70.8,44.0,0.00,SSE,158,4.3,6.0,38,0.00,,---,0.00,VWS V14.01,2013-09-02 15:01:00,
2013-09-02 10:02:00,70.7,44.5,0.00,South,180,4.3,6.0,39,0.00,,---,0.00,VWS V14.01,2013-09-02 15:02:00,
2013-09-02 10:03:00,70.7,44.5,0.00,SE,135,5.4,6.0,39,0.00,,---,0.00,VWS V14.01,2013-09-02 15:03:00,
2013-09-02 10:04:00,74.1,47.6,0.00,SE,135,4.3,8.5,39,0.00,,---,0.00,VWS V14.01,2013-09-02 15:04:00,
2013-09-02 10:05:00,70.7,44.5,0.00,South,180,4.7,6.3,39,0.00,,---,0.00,VWS V14.01,2013-09-02 15:05:00,
2013-09-02 10:06:00,70.7,44.5,0.00,SE,135,6.3,7.6,39,0.00,,---,0.00,VWS V14.01,2013-09-02 15:06:00,
2013-09-02 10:07:00,70.7,44.5,0.00,SE,135,6.3,7.6,39,0.00,,---,0.00,VWS V14.01,2013-09-02 15:07:00,
2013-09-02 10:08:00,70.7,44.5,0.00,SE,135,6.3,7.6,39,0.00,,---,0.00,VWS V14.01,2013-09-02 15:08:00,
2013-09-02 10:09:00,70.7,44.5,0.00,SE,135,7.6,7.6,39,0.00,,---,0.00,VWS V14.01,2013-09-02 15:09:00,
2013-09-02 10:10:00,70.5,45.0,0.00,SE,135,7.6,8.1,40,0.00,,---,0.00,VWS V14.01,2013-09-02 15:10:00,
2013-09-02 10:11:00,70.5,45.0,0.00,SSE,158,8.1,11.2,40,0.00,,---,0.00,VWS V14.01,2013-09-02 15:11:00,
2013-09-02 10:12:00,70.7,45.2,0.00,SE,135,10.1,12.3,40,0.00,,---,0.00,VWS V14.01,2013-09-02 15:12:00,
2013-09-02 10:13:00,70.7,45.2,0.00,SE,135,7.4,12.3,40,0.00,,---,0.00,VWS V14.01,2013-09-02 15:13:00,
2013-09-02 10:15:00,70.7,45.2,0.00,SE,135,10.3,12.3,40,0.00,,---,0.00,VWS V14.01,2013-09-02 15:15:00,
2013-09-02 10:16:00,70.7,45.2,0.00,SE,135,7.8,10.3,40,0.00,,---,0.00,VWS V14.01,2013-09-02 15:16:00,
2013-09-02 10:17:00,70.7,45.2,0.00,SSE,158,6.7,10.3,40,0.00,,---,0.00,VWS V14.01,2013-09-02 15:17:00,
2013-09-02 10:18:00,70.7,45.2,0.00,South,180,7.8,10.3,40,0.00,,---,0.00,VWS V14.01,2013-09-02 15:18:00,
2013-09-02 10:19:00,70.7,45.2,0.00,SSE,158,6.5,10.3,40,0.00,,---,0.00,VWS V14.01,2013-09-02 15:19:00,
2013-09-02 10:20:00,70.7,45.2,0.00,SSE,158,6.5,10.3,40,0.00,,---,0.00,VWS V14.01,2013-09-02 15:20:00,
2013-09-02 10:21:00,70.5,45.0,0.00,SSE,158,6.9,10.3,40,0.00,,---,0.00,VWS V14.01,2013-09-02 15:21:00,
2013-09-02 10:22:00,76.4,48.2,0.00,SW,225,4.7,8.5,37,0.00,,---,0.00,VWS V14.01,2013-09-02 15:22:00,
2013-09-02 10:23:00,70.5,45.0,0.00,SSE,158,5.6,10.3,40,0.00,,---,0.00,VWS V14.01,2013-09-02 15:23:00,
2013-09-02 10:24:00,70.3,44.9,0.00,SSE,158,6.9,10.3,40,0.00,,---,0.00,VWS V14.01,2013-09-02 15:24:00,
2013-09-02 10:25:00,70.3,44.9,0.00,SSE,158,5.8,10.3,40,0.00,,---,0.00,VWS V14.01,2013-09-02 15:25:00,
2013-09-02 10:26:00,70.3,44.9,0.00,SSE,158,7.4,10.3,40,0.00,,---,0.00,VWS V14.01,2013-09-02 15:26:00,
2013-09-02 10:27:00,70.3,44.9,0.00,SSE,158,8.5,10.3,40,0.00,,---,0.00,VWS V14.01,2013-09-02 15:27:00,
2013-09-02 10:28:00,70.3,44.9,0.00,SSE,158,6.9,10.3,40,0.00,,---,0.00,VWS V14.01,2013-09-02 15:28:00,
2013-09-02 10:29:00,70.3,44.9,0.00,SE,135,7.6,10.3,40,0.00,,---,0.00,VWS V14.01,2013-09-02 15:29:00,
2013-09-02 10:30:00,70.3,45.5,0.00,SE,135,5.6,10.3,41,0.00,,---,0.00,VWS V14.01,2013-09-02 15:30:00,
2013-09-02 10:31:00,70.1,45.3,0.00,SE,135,6.5,7.4,41,0.00,,---,0.00,VWS V14.01,2013-09-02 15:31:00,
2013-09-02 10:32:00,70.1,45.3,0.00,SSE,158,6.5,7.4,41,0.00,,---,0.00,VWS V14.01,2013-09-02 15:32:00,
2013-09-02 10:33:00,70.1,45.3,0.00,SSE,158,6.5,7.4,41,0.00,,---,0.00,VWS V14.01,2013-09-02 15:33:00,
2013-09-02 10:34:00,69.9,45.2,0.00,SSE,158,8.7,8.7,41,0.00,,---,0.00,VWS V14.01,2013-09-02 15:34:00,
2013-09-02 10:35:00,69.9,45.2,0.00,SE,135,6.5,8.7,41,0.00,,---,0.00,VWS V14.01,2013-09-02 15:35:00,
2013-09-02 10:36:00,69.8,45.0,0.00,SE,135,8.7,8.7,41,0.00,,---,0.00,VWS V14.01,2013-09-02 15:36:00,
2013-09-02 10:37:00,69.8,45.0,0.00,SE,135,7.8,8.7,41,0.00,,---,0.00,VWS V14.01,2013-09-02 15:37:00,
2013-09-02 10:38:00,69.8,45.0,0.00,SE,135,7.6,8.7,41,0.00,,---,0.00,VWS V14.01,2013-09-02 15:38:00,
2013-09-02 10:39:00,69.8,45.0,0.00,SSE,158,5.6,8.7,41,0.00,,---,0.00,VWS V14.01,2013-09-02 15:39:00,
2013-09-02 10:40:00,69.9,45.2,0.00,South,180,8.7,8.7,41,0.00,,---,0.00,VWS V14.01,2013-09-02 15:40:00,
2013-09-02 10:41:00,69.9,45.2,0.00,South,180,6.5,8.7,41,0.00,,---,0.00,VWS V14.01,2013-09-02 15:41:00,
2013-09-02 10:42:00,69.9,45.2,0.00,SE,135,7.4,8.7,41,0.00,,---,0.00,VWS V14.01,2013-09-02 15:42:00,
2013-09-02 10:43:00,69.8,45.0,0.00,SE,135,7.4,10.1,41,0.00,,---,0.00,VWS V14.01,2013-09-02 15:43:00,
2013-09-02 10:44:00,69.9,45.2,0.00,South,180,6.3,10.1,41,0.00,,---,0.00,VWS V14.01,2013-09-02 15:44:00,
2013-09-02 10:45:00,69.9,45.2,0.00,SE,135,8.7,10.1,41,0.00,,---,0.00,VWS V14.01,2013-09-02 15:45:00,
2013-09-02 10:46:00,69.9,45.2,0.00,South,180,8.1,10.5,41,0.00,,---,0.00,VWS V14.01,2013-09-02 15:46:00,
2013-09-02 10:47:00,70.1,45.3,0.00,South,180,8.1,11.0,41,0.00,,---,0.00,VWS V14.01,2013-09-02 15:47:00,
2013-09-02 10:48:00,70.1,45.3,0.00,South,180,8.5,11.0,41,0.00,,---,0.00,VWS V14.01,2013-09-02 15:48:00,
2013-09-02 10:49:00,70.1,45.3,0.00,SSE,158,5.4,11.0,41,0.00,,---,0.00,VWS V14.01,2013-09-02 15:49:00,
2013-09-02 10:50:00,70.1,45.3,0.00,SE,135,4.3,11.0,41,0.00,,---,0.00,VWS V14.01,2013-09-02 15:50:00,
2013-09-02 10:51:00,70.1,45.3,0.00,SSE,158,6.5,11.0,41,0.00,,---,0.00,VWS V14.01,2013-09-02 15:51:00,
2013-09-02 10:52:00,70.1,45.3,0.00,South,180,8.1,11.0,41,0.00,,---,0.00,VWS V14.01,2013-09-02 15:52:00,
2013-09-02 10:53:00,70.1,45.3,0.00,SSE,158,8.1,11.0,41,0.00,,---,0.00,VWS V14.01,2013-09-02 15:53:00,
2013-09-02 10:54:00,70.1,45.3,0.00,SSE,158,5.8,11.0,41,0.00,,---,0.00,VWS V14.01,2013-09-02 15:54:00,
2013-09-02 10:55:00,70.1,45.3,0.00,SSE,158,6.0,11.0,41,0.00,,---,0.00,VWS V14.01,2013-09-02 15:55:00,
2013-09-02 10:56:00,70.1,45.3,0.00,South,180,6.5,11.0,41,0.00,,---,0.00,VWS V14.01,2013-09-02 15:56:00,
2013-09-02 10:57:00,70.1,45.3,0.00,South,180,8.7,11.0,41,0.00,,---,0.00,VWS V14.01,2013-09-02 15:57:00,
2013-09-02 10:58:00,70.1,45.3,0.00,SSE,158,5.8,11.0,41,0.00,,---,0.00,VWS V14.01,2013-09-02 15:58:00,
2013-09-02 10:59:00,70.1,45.3,0.00,South,180,7.2,11.0,41,0.00,,---,0.00,VWS V14.01,2013-09-02 15:59:00,
2013-09-02 11:00:00,70.1,45.3,0.00,SSE,158,7.6,11.0,41,0.00,,---,0.00,VWS V14.01,2013-09-02 16:00:00,
2013-09-02 11:01:00,70.1,45.3,0.00,SSE,158,6.0,9.4,41,0.00,,---,0.00,VWS V14.01,2013-09-02 16:01:00,
2013-09-02 11:02:00,70.1,45.3,0.00,South,180,5.8,9.4,41,0.00,,---,0.00,VWS V14.01,2013-09-02 16:02:00,
2013-09-02 11:03:00,70.1,45.3,0.00,South,180,5.4,9.4,41,0.00,,---,0.00,VWS V14.01,2013-09-02 16:03:00,
2013-09-02 11:04:00,70.1,45.3,0.00,South,180,5.4,9.4,41,0.00,,---,0.00,VWS V14.01,2013-09-02 16:04:00,
2013-09-02 11:05:00,69.9,45.2,0.00,SSE,158,6.5,9.4,41,0.00,,---,0.00,VWS V14.01,2013-09-02 16:05:00,
2013-09-02 11:06:00,69.9,45.2,0.00,SE,135,8.1,9.4,41,0.00,,---,0.00,VWS V14.01,2013-09-02 16:06:00,
2013-09-02 11:07:00,69.9,45.2,0.00,SSE,158,5.8,9.4,41,0.00,,---,0.00,VWS V14.01,2013-09-02 16:07:00,
2013-09-02 11:08:00,69.9,45.2,0.00,SSE,158,7.6,9.4,41,0.00,,---,0.00,VWS V14.01,2013-09-02 16:08:00,
2013-09-02 11:09:00,69.9,45.2,0.00,South,180,10.5,10.5,41,0.00,,---,0.00,VWS V14.01,2013-09-02 16:09:00,
2013-09-02 11:10:00,69.9,45.2,0.00,South,180,10.5,10.5,41,0.00,,---,0.00,VWS V14.01,2013-09-02 16:10:00,
2013-09-02 11:11:00,69.9,45.2,0.00,South,180,6.5,10.5,41,0.00,,---,0.00,VWS V14.01,2013-09-02 16:11:00,
2013-09-02 11:12:00,69.9,45.2,0.00,South,180,8.1,10.5,41,0.00,,---,0.00,VWS V14.01,2013-09-02 16:12:00,
2013-09-02 11:14:00,69.9,45.2,0.00,South,180,8.1,10.5,41,0.00,,---,0.00,VWS V14.01,2013-09-02 16:14:00,
2013-09-02 11:15:00,69.8,45.0,0.00,SE,135,7.6,10.5,41,0.00,,---,0.00,VWS V14.01,2013-09-02 16:15:00,
2013-09-02 11:16:00,69.8,45.0,0.00,SE,135,6.5,8.5,41,0.00,,---,0.00,VWS V14.01,2013-09-02 16:16:00,
2013-09-02 11:17:00,69.8,45.7,0.00,SE,135,6.0,8.5,42,0.00,,---,0.00,VWS V14.01,2013-09-02 16:17:00,
2013-09-02 11:18:00,69.8,45.7,0.00,SE,135,6.0,8.5,42,0.00,,---,0.00,VWS V14.01,2013-09-02 16:18:00,
2013-09-02 11:19:00,69.6,45.5,0.00,SE,135,3.1,8.5,42,0.00,,---,0.00,VWS V14.01,2013-09-02 16:19:00,
2013-09-02 11:20:00,69.6,44.9,0.00,SE,135,3.4,8.5,41,0.00,,---,0.00,VWS V14.01,2013-09-02 16:20:00,
2013-09-02 11:21:00,69.4,45.3,0.00,SE,135,5.4,8.5,42,0.00,,---,0.00,VWS V14.01,2013-09-02 16:21:00,
2013-09-02 11:22:00,69.2,45.2,0.00,SE,135,5.6,8.5,42,0.00,,---,0.00,VWS V14.01,2013-09-02 16:22:00,
2013-09-02 11:23:00,69.2,45.2,0.00,SE,135,5.4,8.5,42,0.00,,---,0.00,VWS V14.01,2013-09-02 16:23:00,
2013-09-02 11:24:00,69.0,45.0,0.00,SE,135,7.6,8.5,42,0.00,,---,0.00,VWS V14.01,2013-09-02 16:24:00,
2013-09-02 11:25:00,69.0,45.0,0.00,SE,135,6.0,8.5,42,0.00,,---,0.00,VWS V14.01,2013-09-02 16:25:00,
2013-09-02 11:26:00,69.0,45.0,0.00,SE,135,6.5,8.5,42,0.00,,---,0.00,VWS V14.01,2013-09-02 16:26:00,
2013-09-02 11:27:00,69.0,45.0,0.00,SE,135,4.9,8.5,42,0.00,,---,0.00,VWS V14.01,2013-09-02 16:27:00,
2013-09-02 11:28:00,68.9,44.8,0.00,SE,135,5.4,8.5,42,0.00,,---,0.00,VWS V14.01,2013-09-02 16:28:00,
2013-09-02 11:29:00,68.9,44.8,0.00,SE,135,6.0,8.5,42,0.00,,---,0.00,VWS V14.01,2013-09-02 16:29:00,
2013-09-02 11:30:00,68.9,44.8,0.00,SE,135,5.6,8.5,42,0.00,,---,0.00,VWS V14.01,2013-09-02 16:30:00,
2013-09-02 11:31:00,68.7,44.7,0.00,SE,135,3.8,5.6,42,0.00,,---,0.00,VWS V14.01,2013-09-02 16:31:00,
2013-09-02 11:32:00,68.7,44.7,0.00,SE,135,4.3,5.6,42,0.00,,---,0.00,VWS V14.01,2013-09-02 16:32:00,
2013-09-02 11:33:00,83.8,48.2,0.00,SW,225,10.5,11.2,29,0.00,,---,0.00,VWS V14.01,2013-09-02 16:33:00,
2013-09-02 11:34:00,68.5,44.5,0.00,SE,135,4.3,5.6,42,0.00,,---,0.00,VWS V14.01,2013-09-02 16:34:00,
2013-09-02 11:35:00,68.5,44.5,0.00,SE,135,4.7,5.6,42,0.00,,---,0.00,VWS V14.01,2013-09-02 16:35:00,
2013-09-02 11:36:00,68.3,45.0,0.00,ESE,112,3.8,5.6,43,0.00,,---,0.00,VWS V14.01,2013-09-02 16:36:00,
2013-09-02 11:37:00,68.1,44.8,0.00,SE,135,4.3,5.6,43,0.00,,---,0.00,VWS V14.01,2013-09-02 16:37:00,
2013-09-02 11:38:00,68.1,44.8,0.00,SE,135,3.8,5.6,43,0.00,,---,0.00,VWS V14.01,2013-09-02 16:38:00,
2013-09-02 11:39:00,68.1,44.8,0.00,SE,135,4.0,6.3,43,0.00,,---,0.00,VWS V14.01,2013-09-02 16:39:00,
2013-09-02 11:40:00,68.1,44.8,0.00,SE,135,3.6,6.3,43,0.00,,---,0.00,VWS V14.01,2013-09-02 16:40:00,
2013-09-02 11:41:00,68.1,44.8,0.00,SE,135,4.7,6.3,43,0.00,,---,0.00,VWS V14.01,2013-09-02 16:41:00,
2013-09-02 11:42:00,68.1,44.8,0.00,South,180,4.9,6.3,43,0.00,,---,0.00,VWS V14.01,2013-09-02 16:42:00,
2013-09-02 11:43:00,68.1,44.8,0.00,SE,135,5.8,6.7,43,0.00,,---,0.00,VWS V14.01,2013-09-02 16:43:00,
2013-09-02 11:44:00,68.1,44.8,0.00,SE,135,5.4,6.7,43,0.00,,---,0.00,VWS V14.01,2013-09-02 16:44:00,
2013-09-02 11:45:00,68.1,44.8,0.00,SE,135,5.4,6.7,43,0.00,,---,0.00,VWS V14.01,2013-09-02 16:45:00,
2013-09-02 11:46:00,68.1,44.8,0.00,SE,135,5.8,5.8,43,0.00,,---,0.00,VWS V14.01,2013-09-02 16:46:00,
2013-09-02 11:47:00,68.1,44.8,0.00,SE,135,5.8,5.8,43,0.00,,---,0.00,VWS V14.01,2013-09-02 16:47:00,
2013-09-02 11:48:00,68.3,45.0,0.00,SE,135,4.9,5.8,43,0.00,,---,0.00,VWS V14.01,2013-09-02 16:48:00,
2013-09-02 11:49:00,68.1,44.8,0.00,South,180,8.5,8.5,43,0.00,,---,0.00,VWS V14.01,2013-09-02 16:49:00,
2013-09-02 11:51:00,68.1,44.8,0.00,SE,135,6.0,8.5,43,0.00,,---,0.00,VWS V14.01,2013-09-02 16:51:00,
2013-09-02 11:52:00,68.1,44.8,0.00,SE,135,5.4,8.5,43,0.00,,---,0.00,VWS V14.01,2013-09-02 16:52:00,
2013-09-02 11:53:00,68.1,44.8,0.00,South,180,7.6,8.5,43,0.00,,---,0.00,VWS V14.01,2013-09-02 16:53:00,
2013-09-02 11:54:00,68.1,44.8,0.00,SE,135,7.8,9.8,43,0.00,,---,0.00,VWS V14.01,2013-09-02 16:54:00,
2013-09-02 11:55:00,68.1,44.8,0.00,SE,135,4.9,9.8,43,0.00,,---,0.00,VWS V14.01,2013-09-02 16:55:00,
2013-09-02 11:56:00,68.1,44.8,0.00,SSE,158,4.7,9.8,43,0.00,,---,0.00,VWS V14.01,2013-09-02 16:56:00,
2013-09-02 11:57:00,68.0,44.7,0.00,SE,135,4.9,9.8,43,0.00,,---,0.00,VWS V14.01,2013-09-02 16:57:00,
2013-09-02 11:58:00,68.0,44.7,0.00,SE,135,7.6,10.3,43,0.00,,---,0.00,VWS V14.01,2013-09-02 16:58:00,
2013-09-02 12:00:00,68.0,44.7,0.00,South,180,7.6,10.3,43,0.00,,---,0.00,VWS V14.01,2013-09-02 17:00:00,
2013-09-02 12:01:00,68.0,45.3,0.00,SE,135,5.8,6.5,44,0.00,,---,0.00,VWS V14.01,2013-09-02 17:01:00,
2013-09-02 12:02:00,68.0,45.3,0.00,SSE,158,5.8,6.5,44,0.00,,---,0.00,VWS V14.01,2013-09-02 17:02:00,
2013-09-02 12:03:00,68.0,45.3,0.00,SSE,158,5.8,6.5,44,0.00,,---,0.00,VWS V14.01,2013-09-02 17:03:00,
2013-09-02 12:04:00,67.8,45.1,0.00,SE,135,5.8,7.6,44,0.00,,---,0.00,VWS V14.01,2013-09-02 17:04:00,
2013-09-02 12:05:00,67.8,45.1,0.00,SE,135,5.6,7.6,44,0.00,,---,0.00,VWS V14.01,2013-09-02 17:05:00,
2013-09-02 12:07:00,67.6,44.9,0.00,SSE,158,6.5,7.6,44,0.00,,---,0.00,VWS V14.01,2013-09-02 17:07:00,
2013-09-02 12:08:00,67.6,44.9,0.00,SE,135,6.3,7.6,44,0.00,,---,0.00,VWS V14.01,2013-09-02 17:08:00,
2013-09-02 12:09:00,67.6,44.9,0.00,SSE,158,6.0,7.6,44,0.00,,---,0.00,VWS V14.01,2013-09-02 17:09:00,
2013-09-02 12:10:00,67.6,44.9,0.00,SSE,158,6.5,7.6,44,0.00,,---,0.00,VWS V14.01,2013-09-02 17:10:00,
2013-09-02 12:11:00,67.6,44.9,0.00,SSE,158,7.6,8.7,44,0.00,,---,0.00,VWS V14.01,2013-09-02 17:11:00,
2013-09-02 12:12:00,67.6,44.9,0.00,SE,135,4.5,8.7,44,0.00,,---,0.00,VWS V14.01,2013-09-02 17:12:00,
2013-09-02 12:13:00,67.6,44.9,0.00,SE,135,6.0,8.7,44,0.00,,---,0.00,VWS V14.01,2013-09-02 17:13:00,
2013-09-02 12:14:00,67.6,44.9,0.00,SE,135,5.6,8.7,44,0.00,,---,0.00,VWS V14.01,2013-09-02 17:14:00,
2013-09-02 12:15:00,67.4,45.4,0.00,SE,135,8.5,8.7,45,0.00,,---,0.00,VWS V14.01,2013-09-02 17:15:00,
2013-09-02 12:16:00,67.4,45.4,0.00,SE,135,6.5,8.5,45,0.00,,---,0.00,VWS V14.01,2013-09-02 17:16:00,
2013-09-02 12:17:00,67.4,45.4,0.00,SSE,158,5.8,8.5,45,0.00,,---,0.00,VWS V14.01,2013-09-02 17:17:00,
2013-09-02 12:18:00,67.4,45.4,0.00,SE,135,6.9,8.5,45,0.00,,---,0.00,VWS V14.01,2013-09-02 17:18:00,
2013-09-02 12:20:00,67.4,45.4,0.00,SE,135,7.8,10.7,45,0.00,,---,0.00,VWS V14.01,2013-09-02 17:20:00,
2013-09-02 12:21:00,67.4,45.4,0.00,SSE,158,5.6,10.7,45,0.00,,---,0.00,VWS V14.01,2013-09-02 17:21:00,
2013-09-02 12:22:00,67.6,45.5,0.00,SSE,158,11.9,11.9,45,0.00,,---,0.00,VWS V14.01,2013-09-02 17:22:00,
2013-09-02 12:23:00,86.7,49.7,0.00,SW,225,10.1,13.0,28,0.00,,---,0.00,VWS V14.01,2013-09-02 17:23:00,
2013-09-02 12:24:00,67.6,45.5,0.00,SSE,158,2.5,11.9,45,0.00,,---,0.00,VWS V14.01,2013-09-02 17:24:00,
2013-09-02 12:25:00,67.6,45.5,0.00,South,180,3.1,11.9,45,0.00,,---,0.00,VWS V14.01,2013-09-02 17:25:00,
2013-09-02 12:26:00,67.4,45.4,0.00,SSE,158,4.9,11.9,45,0.00,,---,0.00,VWS V14.01,2013-09-02 17:26:00,
2013-09-02 12:27:00,67.4,45.4,0.00,SSE,158,8.1,11.9,45,0.00,,---,0.00,VWS V14.01,2013-09-02 17:27:00,
2013-09-02 12:28:00,67.4,45.4,0.00,South,180,11.2,11.9,45,0.00,,---,0.00,VWS V14.01,2013-09-02 17:28:00,
2013-09-02 12:29:00,67.4,45.4,0.00,South,180,7.4,11.9,45,0.00,,---,0.00,VWS V14.01,2013-09-02 17:29:00,
2013-09-02 12:31:00,67.4,45.4,0.00,South,180,7.4,11.9,45,0.00,,---,0.00,VWS V14.01,2013-09-02 17:31:00,
2013-09-02 12:32:00,67.2,45.8,0.00,SE,135,8.7,11.9,46,0.00,,---,0.00,VWS V14.01,2013-09-02 17:32:00,
2013-09-02 12:33:00,67.4,45.9,0.00,SE,135,10.1,11.9,46,0.00,,---,0.00,VWS V14.01,2013-09-02 17:33:00,
2013-09-02 12:34:00,67.4,45.9,0.00,SSE,158,6.5,11.9,46,0.00,,---,0.00,VWS V14.01,2013-09-02 17:34:00,
2013-09-02 12:35:00,67.4,45.9,0.00,South,180,6.5,11.9,46,0.00,,---,0.00,VWS V14.01,2013-09-02 17:35:00,
2013-09-02 12:36:00,67.4,45.9,0.00,South,180,7.8,11.9,46,0.00,,---,0.00,VWS V14.01,2013-09-02 17:36:00,
2013-09-02 12:37:00,67.4,45.9,0.00,South,180,7.8,11.9,46,0.00,,---,0.00,VWS V14.01,2013-09-02 17:37:00,
2013-09-02 12:38:00,67.4,45.9,0.00,SE,135,7.4,11.9,46,0.00,,---,0.00,VWS V14.01,2013-09-02 17:38:00,
2013-09-02 12:39:00,67.4,45.9,0.00,SE,135,7.4,11.9,46,0.00,,---,0.00,VWS V14.01,2013-09-02 17:39:00,
2013-09-02 12:40:00,67.4,45.9,0.00,SE,135,5.8,11.9,46,0.00,,---,0.00,VWS V14.01,2013-09-02 17:40:00,
2013-09-02 12:41:00,67.4,45.9,0.00,SE,135,5.8,11.9,46,0.00,,---,0.00,VWS V14.01,2013-09-02 17:41:00,
2013-09-02 12:42:00,67.2,45.8,0.00,SE,135,5.4,11.9,46,0.00,,---,0.00,VWS V14.01,2013-09-02 17:42:00,
2013-09-02 12:43:00,67.2,45.8,0.00,South,180,3.1,11.9,46,0.00,,---,0.00,VWS V14.01,2013-09-02 17:43:00,
2013-09-02 12:44:00,67.2,45.8,0.00,SE,135,6.3,11.9,46,0.00,,---,0.00,VWS V14.01,2013-09-02 17:44:00,
2013-09-02 12:45:00,67.1,45.6,0.00,ESE,112,4.9,11.9,46,0.00,,---,0.00,VWS V14.01,2013-09-02 17:45:00,
2013-09-02 12:46:00,67.1,45.6,0.00,ESE,112,5.6,5.6,46,0.00,,---,0.00,VWS V14.01,2013-09-02 17:46:00,
2013-09-02 12:47:00,87.8,47.6,0.00,SW,225,9.0,10.7,25,0.00,,---,0.00,VWS V14.01,2013-09-02 17:47:00,
2013-09-02 12:48:00,67.1,45.6,0.00,SE,135,3.1,5.6,46,0.00,,---,0.00,VWS V14.01,2013-09-02 17:48:00,
2013-09-02 12:49:00,67.1,45.6,0.00,SE,135,3.8,5.6,46,0.00,,---,0.00,VWS V14.01,2013-09-02 17:49:00,
2013-09-02 12:50:00,67.1,45.6,0.00,SE,135,4.3,5.6,46,0.00,,---,0.00,VWS V14.01,2013-09-02 17:50:00,
2013-09-02 12:51:00,66.9,45.5,0.00,SE,135,2.9,5.6,46,0.00,,---,0.00,VWS V14.01,2013-09-02 17:51:00,
2013-09-02 12:52:00,66.9,45.5,0.00,ESE,112,5.8,5.8,46,0.00,,---,0.00,VWS V14.01,2013-09-02 17:52:00,
2013-09-02 12:53:00,66.9,45.5,0.00,ESE,112,5.8,5.8,46,0.00,,---,0.00,VWS V14.01,2013-09-02 17:53:00,
2013-09-02 12:54:00,66.9,45.5,0.00,ESE,112,4.7,5.8,46,0.00,,---,0.00,VWS V14.01,2013-09-02 17:54:00,
2013-09-02 12:55:00,66.9,45.5,0.00,ESE,112,4.7,5.8,46,0.00,,---,0.00,VWS V14.01,2013-09-02 17:55:00,
2013-09-02 12:56:00,66.7,45.3,0.00,SE,135,5.6,5.8,46,0.00,,---,0.00,VWS V14.01,2013-09-02 17:56:00,
2013-09-02 12:57:00,66.7,45.3,0.00,SE,135,4.9,5.8,46,0.00,,---,0.00,VWS V14.01,2013-09-02 17:57:00,
2013-09-02 12:59:00,66.9,45.5,0.00,SE,135,4.9,5.8,46,0.00,,---,0.00,VWS V14.01,2013-09-02 17:59:00,
2013-09-02 13:00:00,66.9,45.5,0.00,SE,135,3.8,5.8,46,0.00,,---,0.00,VWS V14.01,2013-09-02 18:00:00,
2013-09-02 13:01:00,66.9,45.5,0.00,SE,135,3.8,6.3,46,0.00,,---,0.00,VWS V14.01,2013-09-02 18:01:00,
2013-09-02 13:02:00,66.9,45.5,0.00,SE,135,3.8,6.3,46,0.00,,---,0.00,VWS V14.01,2013-09-02 18:02:00,
2013-09-02 13:03:00,66.9,46.0,0.00,ESE,112,4.0,7.4,47,0.00,,---,0.00,VWS V14.01,2013-09-02 18:03:00,
2013-09-02 13:04:00,66.7,45.8,0.00,SE,135,4.9,7.4,47,0.00,,---,0.00,VWS V14.01,2013-09-02 18:04:00,
2013-09-02 13:06:00,66.7,45.8,0.00,East,90,3.8,7.4,47,0.00,,---,0.00,VWS V14.01,2013-09-02 18:06:00,
2013-09-02 13:07:00,66.7,45.8,0.00,East,90,4.0,7.4,47,0.00,,---,0.00,VWS V14.01,2013-09-02 18:07:00,
2013-09-02 13:09:00,66.7,45.8,0.00,SE,135,4.9,7.4,47,0.00,,---,0.00,VWS V14.01,2013-09-02 18:09:00,
2013-09-02 13:10:00,66.7,45.8,0.00,East,90,4.7,7.4,47,0.00,,---,0.00,VWS V14.01,2013-09-02 18:10:00,
2013-09-02 13:12:00,66.7,45.8,0.00,SE,135,4.9,7.4,47,0.00,,---,0.00,VWS V14.01,2013-09-02 18:12:00,
2013-09-02 13:13:00,66.7,45.8,0.00,SE,135,4.5,7.4,47,0.00,,---,0.00,VWS V14.01,2013-09-02 18:13:00,
2013-09-02 13:14:00,66.5,45.7,0.00,South,180,4.9,7.4,47,0.00,,---,0.00,VWS V14.01,2013-09-02 18:14:00,
2013-09-02 13:15:00,66.5,45.7,0.00,SE,135,4.9,7.4,47,0.00,,---,0.00,VWS V14.01,2013-09-02 18:15:00,
2013-09-02 13:16:00,66.5,45.7,0.00,South,180,3.4,4.9,47,0.00,,---,0.00,VWS V14.01,2013-09-02 18:16:00,
2013-09-02 13:17:00,66.5,45.7,0.00,SSE,158,4.0,6.5,47,0.00,,---,0.00,VWS V14.01,2013-09-02 18:17:00,
2013-09-02 13:18:00,66.5,45.7,0.00,SSE,158,4.0,6.5,47,0.00,,---,0.00,VWS V14.01,2013-09-02 18:18:00,
2013-09-02 13:19:00,66.5,45.7,0.00,South,180,6.5,6.5,47,0.00,,---,0.00,VWS V14.01,2013-09-02 18:19:00,
2013-09-02 13:21:00,66.5,45.7,0.00,SE,135,6.3,7.8,47,0.00,,---,0.00,VWS V14.01,2013-09-02 18:21:00,
2013-09-02 13:22:00,66.5,45.7,0.00,SE,135,3.6,7.8,47,0.00,,---,0.00,VWS V14.01,2013-09-02 18:22:00,
2013-09-02 13:23:00,66.5,45.7,0.00,SE,135,4.0,7.8,47,0.00,,---,0.00,VWS V14.01,2013-09-02 18:23:00,
2013-09-02 13:24:00,66.5,45.7,0.00,SE,135,4.9,7.8,47,0.00,,---,0.00,VWS V14.01,2013-09-02 18:24:00,
2013-09-02 13:25:00,66.5,45.7,0.00,SSE,158,5.8,8.7,47,0.00,,---,0.00,VWS V14.01,2013-09-02 18:25:00,
2013-09-02 13:26:00,66.5,45.7,0.00,SE,135,6.0,8.7,47,0.00,,---,0.00,VWS V14.01,2013-09-02 18:26:00,
2013-09-02 13:27:00,66.5,45.7,0.00,SE,135,10.1,10.1,47,0.00,,---,0.00,VWS V14.01,2013-09-02 18:27:00,
2013-09-02 13:28:00,66.5,45.7,0.00,SE,135,4.5,10.1,47,0.00,,---,0.00,VWS V14.01,2013-09-02 18:28:00,
2013-09-02 13:29:00,66.5,45.7,0.00,SE,135,6.0,10.1,47,0.00,,---,0.00,VWS V14.01,2013-09-02 18:29:00,
2013-09-02 13:30:00,66.5,45.7,0.00,SE,135,5.8,5.8,47,0.00,,---,0.00,VWS V14.01,2013-09-02 18:30:00,
2013-09-02 13:31:00,66.3,45.5,0.00,SE,135,5.8,6.5,47,0.00,,---,0.00,VWS V14.01,2013-09-02 18:31:00,
2013-09-02 13:32:00,66.3,45.5,0.00,SE,135,7.4,7.4,47,0.00,,---,0.00,VWS V14.01,2013-09-02 18:32:00,
2013-09-02 13:33:00,66.3,45.5,0.00,SE,135,6.3,7.4,47,0.00,,---,0.00,VWS V14.01,2013-09-02 18:33:00,
2013-09-02 13:34:00,66.3,45.5,0.00,SE,135,6.3,7.4,47,0.00,,---,0.00,VWS V14.01,2013-09-02 18:34:00,
2013-09-02 13:35:00,66.3,45.5,0.00,SSE,158,6.5,7.4,47,0.00,,---,0.00,VWS V14.01,2013-09-02 18:35:00,
2013-09-02 13:37:00,66.3,45.5,0.00,SE,135,4.9,7.4,47,0.00,,---,0.00,VWS V14.01,2013-09-02 18:37:00,
2013-09-02 13:38:00,66.3,45.5,0.00,SE,135,4.9,7.4,47,0.00,,---,0.00,VWS V14.01,2013-09-02 18:38:00,
2013-09-02 13:39:00,66.2,45.4,0.00,SE,135,8.5,8.5,47,0.00,,---,0.00,VWS V14.01,2013-09-02 18:39:00,
2013-09-02 13:40:00,66.3,45.5,0.00,SSE,158,7.6,13.2,47,0.00,,---,0.00,VWS V14.01,2013-09-02 18:40:00,
2013-09-02 13:41:00,66.3,45.5,0.00,SSE,158,6.3,13.2,47,0.00,,---,0.00,VWS V14.01,2013-09-02 18:41:00,
2013-09-02 13:42:00,66.3,45.5,0.00,South,180,6.5,13.2,47,0.00,,---,0.00,VWS V14.01,2013-09-02 18:42:00,
2013-09-02 13:45:00,66.2,45.4,0.00,SSE,158,6.5,8.5,47,0.00,,---,0.00,VWS V14.01,2013-09-02 18:45:00,
2013-09-02 13:46:00,66.2,45.4,0.00,South,180,5.6,8.5,47,0.00,,---,0.00,VWS V14.01,2013-09-02 18:46:00,
2013-09-02 13:47:00,66.2,45.9,0.00,SSE,158,7.8,8.5,48,0.00,,---,0.00,VWS V14.01,2013-09-02 18:47:00,
2013-09-02 13:48:00,66.2,45.9,0.00,SE,135,8.1,8.5,48,0.00,,---,0.00,VWS V14.01,2013-09-02 18:48:00,
2013-09-02 13:49:00,66.2,45.9,0.00,SSE,158,8.5,8.5,48,0.00,,---,0.00,VWS V14.01,2013-09-02 18:49:00,
2013-09-02 13:50:00,66.2,45.9,0.00,SE,135,8.7,9.6,48,0.00,,---,0.00,VWS V14.01,2013-09-02 18:50:00,
2013-09-02 13:51:00,66.2,45.9,0.00,South,180,7.4,9.8,48,0.00,,---,0.00,VWS V14.01,2013-09-02 18:51:00,
2013-09-02 13:52:00,66.0,45.8,0.00,South,180,7.4,9.8,48,0.00,,---,0.00,VWS V14.01,2013-09-02 18:52:00,
2013-09-02 13:53:00,66.2,45.9,0.00,South,180,9.6,9.8,48,0.00,,---,0.00,VWS V14.01,2013-09-02 18:53:00,
2013-09-02 13:55:00,66.0,45.8,0.00,South,180,8.1,10.3,48,0.00,,---,0.00,VWS V14.01,2013-09-02 18:55:00,
2013-09-02 13:56:00,66.0,45.8,0.00,SSE,158,6.7,10.3,48,0.00,,---,0.00,VWS V14.01,2013-09-02 18:56:00,
2013-09-02 13:57:00,66.0,45.8,0.00,South,180,5.8,10.3,48,0.00,,---,0.00,VWS V14.01,2013-09-02 18:57:00,
2013-09-02 13:59:00,65.6,46.0,0.00,SSE,158,7.8,10.3,49,0.00,,---,0.00,VWS V14.01,2013-09-02 18:59:00,
2013-09-02 14:00:00,65.6,46.0,0.00,SE,135,7.8,10.3,49,0.00,,---,0.00,VWS V14.01,2013-09-02 19:00:00,
2013-09-02 14:01:00,65.6,46.0,0.00,South,180,9.8,9.8,49,0.00,,---,0.00,VWS V14.01,2013-09-02 19:01:00,
2013-09-02 14:02:00,65.6,46.0,0.00,South,180,6.3,9.8,49,0.00,,---,0.00,VWS V14.01,2013-09-02 19:02:00,
2013-09-02 14:03:00,65.4,45.8,0.00,SSE,158,6.5,9.8,49,0.00,,---,0.00,VWS V14.01,2013-09-02 19:03:00,
2013-09-02 14:04:00,65.4,45.8,0.00,South,180,6.3,9.8,49,0.00,,---,0.00,VWS V14.01,2013-09-02 19:04:00,
2013-09-02 14:05:00,65.4,45.8,0.00,South,180,4.9,9.8,49,0.00,,---,0.00,VWS V14.01,2013-09-02 19:05:00,
2013-09-02 14:06:00,65.3,45.6,0.00,SSE,158,5.4,9.8,49,0.00,,---,0.00,VWS V14.01,2013-09-02 19:06:00,
2013-09-02 14:07:00,65.3,45.6,0.00,South,180,6.0,9.8,49,0.00,,---,0.00,VWS V14.01,2013-09-02 19:07:00,
2013-09-02 14:08:00,65.1,45.5,0.00,South,180,6.5,9.8,49,0.00,,---,0.00,VWS V14.01,2013-09-02 19:08:00,
2013-09-02 14:09:00,65.1,45.5,0.00,SSE,158,10.1,10.7,49,0.00,,---,0.00,VWS V14.01,2013-09-02 19:09:00,
2013-09-02 14:10:00,65.3,45.6,0.00,South,180,6.5,10.7,49,0.00,,---,0.00,VWS V14.01,2013-09-02 19:10:00,
2013-09-02 14:11:00,88.7,45.0,0.00,South,180,7.6,16.8,22,0.00,,---,0.00,VWS V14.01,2013-09-02 19:11:00,
2013-09-02 14:12:00,65.3,46.2,0.00,SSE,158,9.6,10.7,50,0.00,,---,0.00,VWS V14.01,2013-09-02 19:12:00,
2013-09-02 14:14:00,65.3,46.2,0.00,South,180,5.6,10.7,50,0.00,,---,0.00,VWS V14.01,2013-09-02 19:14:00,
2013-09-02 14:15:00,65.1,46.0,0.00,South,180,4.3,10.7,50,0.00,,---,0.00,VWS V14.01,2013-09-02 19:15:00,
2013-09-02 14:16:00,65.1,46.0,0.00,SSE,158,4.3,6.3,50,0.00,,---,0.00,VWS V14.01,2013-09-02 19:16:00,
2013-09-02 14:17:00,65.1,46.0,0.00,SE,135,3.6,6.3,50,0.00,,---,0.00,VWS V14.01,2013-09-02 19:17:00,
2013-09-02 14:18:00,64.9,45.8,0.00,South,180,3.4,6.3,50,0.00,,---,0.00,VWS V14.01,2013-09-02 19:18:00,
2013-09-02 14:19:00,64.9,45.8,0.00,South,180,3.1,6.3,50,0.00,,---,0.00,VWS V14.01,2013-09-02 19:19:00,
2013-09-02 14:20:00,64.9,45.8,0.00,SSE,158,4.0,6.3,50,0.00,,---,0.00,VWS V14.01,2013-09-02 19:20:00,
2013-09-02 14:21:00,64.9,45.8,0.00,South,180,3.4,6.3,50,0.00,,---,0.00,VWS V14.01,2013-09-02 19:21:00,
2013-09-02 14:23:00,64.9,45.8,0.00,SE,135,3.8,6.3,50,0.00,,---,0.00,VWS V14.01,2013-09-02 19:23:00,
2013-09-02 14:24:00,64.7,45.7,0.00,South,180,4.3,6.3,50,0.00,,---,0.00,VWS V14.01,2013-09-02 19:24:00,
2013-09-02 14:25:00,89.4,45.6,0.00,SE,135,7.8,19.9,22,0.00,,---,0.00,VWS V14.01,2013-09-02 19:25:00,
2013-09-02 14:26:00,64.5,45.5,0.00,South,180,3.8,6.3,50,0.00,,---,0.00,VWS V14.01,2013-09-02 19:26:00,
2013-09-02 14:27:00,64.7,46.2,0.00,South,180,4.0,6.3,51,0.00,,---,0.00,VWS V14.01,2013-09-02 19:27:00,
2013-09-02 14:28:00,64.7,46.2,0.00,SSW,202,2.5,6.3,51,0.00,,---,0.00,VWS V14.01,2013-09-02 19:28:00,
2013-09-02 14:29:00,64.5,46.0,0.00,SSE,158,4.7,6.3,51,0.00,,---,0.00,VWS V14.01,2013-09-02 19:29:00,
2013-09-02 14:30:00,64.5,46.0,0.00,South,180,5.4,6.3,51,0.00,,---,0.00,VWS V14.01,2013-09-02 19:30:00,
2013-09-02 14:31:00,64.5,46.0,0.00,South,180,4.0,5.8,51,0.00,,---,0.00,VWS V14.01,2013-09-02 19:31:00,
2013-09-02 14:32:00,64.5,46.0,0.00,South,180,3.4,5.8,51,0.00,,---,0.00,VWS V14.01,2013-09-02 19:32:00,
2013-09-02 14:33:00,64.5,46.0,0.00,South,180,3.8,5.8,51,0.00,,---,0.00,VWS V14.01,2013-09-02 19:33:00,
2013-09-02 14:34:00,64.5,46.0,0.00,South,180,2.7,5.8,51,0.00,,---,0.00,VWS V14.01,2013-09-02 19:34:00,
2013-09-02 14:35:00,64.4,45.9,0.00,SSE,158,2.9,5.8,51,0.00,,---,0.00,VWS V14.01,2013-09-02 19:35:00,
2013-09-02 14:36:00,64.4,45.9,0.00,South,180,3.1,5.8,51,0.00,,---,0.00,VWS V14.01,2013-09-02 19:36:00,
2013-09-02 14:37:00,64.2,45.7,0.00,SW,225,2.9,5.8,51,0.00,,---,0.00,VWS V14.01,2013-09-02 19:37:00,
2013-09-02 14:38:00,64.2,45.7,0.00,South,180,3.8,5.8,51,0.00,,---,0.00,VWS V14.01,2013-09-02 19:38:00,
2013-09-02 14:39:00,64.2,45.7,0.00,South,180,1.6,5.8,51,0.00,,---,0.00,VWS V14.01,2013-09-02 19:39:00,
2013-09-02 14:40:00,64.2,45.7,0.00,South,180,2.5,5.8,51,0.00,,---,0.00,VWS V14.01,2013-09-02 19:40:00,
2013-09-02 14:41:00,64.0,45.5,0.00,South,180,2.2,5.8,51,0.00,,---,0.00,VWS V14.01,2013-09-02 19:41:00,
2013-09-02 14:42:00,64.0,45.5,0.00,SSW,202,2.5,5.8,51,0.00,,---,0.00,VWS V14.01,2013-09-02 19:42:00,
2013-09-02 14:43:00,64.0,45.5,0.00,South,180,2.2,5.8,51,0.00,,---,0.00,VWS V14.01,2013-09-02 19:43:00,
2013-09-02 14:45:00,64.0,46.0,0.00,SSW,202,3.4,5.8,52,0.00,,---,0.00,VWS V14.01,2013-09-02 19:45:00,
2013-09-02 14:46:00,64.2,46.2,0.00,South,180,5.6,5.6,52,0.00,,---,0.00,VWS V14.01,2013-09-02 19:46:00,
2013-09-02 14:47:00,64.2,46.2,0.00,SW,225,3.1,5.6,52,0.00,,---,0.00,VWS V14.01,2013-09-02 19:47:00,
2013-09-02 14:48:00,64.2,46.2,0.00,South,180,4.7,5.6,52,0.00,,---,0.00,VWS V14.01,2013-09-02 19:48:00,
2013-09-02 14:49:00,64.2,46.2,0.00,SSW,202,3.6,5.6,52,0.00,,---,0.00,VWS V14.01,2013-09-02 19:49:00,
2013-09-02 14:50:00,64.2,46.2,0.00,SW,225,2.0,5.6,52,0.00,,---,0.00,VWS V14.01,2013-09-02 19:50:00,
2013-09-02 14:51:00,64.2,46.7,0.00,South,180,3.1,5.6,53,0.00,,---,0.00,VWS V14.01,2013-09-02 19:51:00,
2013-09-02 14:52:00,64.0,46.5,0.00,SW,225,4.9,5.6,53,0.00,,---,0.00,VWS V14.01,2013-09-02 19:52:00,
2013-09-02 14:53:00,64.0,46.5,0.00,South,180,4.3,5.6,53,0.00,,---,0.00,VWS V14.01,2013-09-02 19:53:00,
2013-09-02 14:54:00,64.0,46.5,0.00,South,180,4.0,5.6,53,0.00,,---,0.00,VWS V14.01,2013-09-02 19:54:00,
2013-09-02 14:55:00,64.0,46.5,0.00,South,180,3.6,5.6,53,0.00,,---,0.00,VWS V14.01,2013-09-02 19:55:00,
2013-09-02 14:56:00,63.8,46.4,0.00,South,180,2.9,5.6,53,0.00,,---,0.00,VWS V14.01,2013-09-02 19:56:00,
2013-09-02 14:57:00,63.8,46.4,0.00,South,180,3.8,5.6,53,0.00,,---,0.00,VWS V14.01,2013-09-02 19:57:00,
2013-09-02 14:58:00,63.6,46.7,0.00,South,180,3.1,5.6,54,0.00,,---,0.00,VWS V14.01,2013-09-02 19:58:00,
2013-09-02 14:59:00,63.6,46.7,0.00,South,180,3.6,5.6,54,0.00,,---,0.00,VWS V14.01,2013-09-02 19:59:00,
2013-09-02 15:00:00,63.6,47.2,0.00,South,180,4.0,5.6,55,0.00,,---,0.00,VWS V14.01,2013-09-02 20:00:00,
2013-09-02 15:01:00,63.6,47.2,0.00,South,180,2.9,4.0,55,0.00,,---,0.00,VWS V14.01,2013-09-02 20:01:00,
2013-09-02 15:02:00,63.5,47.0,0.00,South,180,3.6,4.0,55,0.00,,---,0.00,VWS V14.01,2013-09-02 20:02:00,
2013-09-02 15:03:00,63.5,47.0,0.00,South,180,3.4,4.0,55,0.00,,---,0.00,VWS V14.01,2013-09-02 20:03:00,
2013-09-02 15:04:00,63.5,47.5,0.00,South,180,5.6,5.6,56,0.00,,---,0.00,VWS V14.01,2013-09-02 20:04:00,
2013-09-02 15:05:00,63.5,47.5,0.00,SSE,158,3.8,5.6,56,0.00,,---,0.00,VWS V14.01,2013-09-02 20:05:00,
2013-09-02 15:06:00,63.5,47.5,0.00,South,180,3.8,5.6,56,0.00,,---,0.00,VWS V14.01,2013-09-02 20:06:00,
2013-09-02 15:07:00,63.5,47.5,0.00,South,180,3.8,5.6,56,0.00,,---,0.00,VWS V14.01,2013-09-02 20:07:00,
2013-09-02 15:08:00,63.5,47.5,0.00,South,180,4.3,5.6,56,0.00,,---,0.00,VWS V14.01,2013-09-02 20:08:00,
2013-09-02 15:10:00,63.5,47.5,0.00,SE,135,4.3,5.6,56,0.00,,---,0.00,VWS V14.01,2013-09-02 20:10:00,
2013-09-02 15:11:00,63.3,47.3,0.00,South,180,4.9,5.6,56,0.00,,---,0.00,VWS V14.01,2013-09-02 20:11:00,
2013-09-02 15:12:00,63.3,47.3,0.00,South,180,4.9,6.0,56,0.00,,---,0.00,VWS V14.01,2013-09-02 20:12:00,
2013-09-02 15:13:00,63.3,47.3,0.00,South,180,4.9,6.0,56,0.00,,---,0.00,VWS V14.01,2013-09-02 20:13:00,
2013-09-02 15:14:00,63.3,47.3,0.00,South,180,6.3,6.3,56,0.00,,---,0.00,VWS V14.01,2013-09-02 20:14:00,
2013-09-02 15:15:00,63.3,47.3,0.00,South,180,6.0,6.3,56,0.00,,---,0.00,VWS V14.01,2013-09-02 20:15:00,
2013-09-02 15:16:00,63.3,47.3,0.00,SE,135,5.4,6.0,56,0.00,,---,0.00,VWS V14.01,2013-09-02 20:16:00,
2013-09-02 15:17:00,63.3,47.3,0.00,SSE,158,5.4,6.0,56,0.00,,---,0.00,VWS V14.01,2013-09-02 20:17:00,
2013-09-02 15:18:00,63.3,47.3,0.00,SSE,158,5.4,6.0,56,0.00,,---,0.00,VWS V14.01,2013-09-02 20:18:00,
2013-09-02 15:19:00,63.3,47.3,0.00,South,180,4.9,6.0,56,0.00,,---,0.00,VWS V14.01,2013-09-02 20:19:00,
2013-09-02 15:20:00,63.1,47.2,0.00,SSE,158,5.4,6.0,56,0.00,,---,0.00,VWS V14.01,2013-09-02 20:20:00,
2013-09-02 15:21:00,63.1,47.2,0.00,SSE,158,6.0,6.5,56,0.00,,---,0.00,VWS V14.01,2013-09-02 20:21:00,
2013-09-02 15:23:00,63.1,47.2,0.00,SSE,158,6.0,6.5,56,0.00,,---,0.00,VWS V14.01,2013-09-02 20:23:00,
2013-09-02 15:24:00,63.1,47.2,0.00,South,180,5.6,6.5,56,0.00,,---,0.00,VWS V14.01,2013-09-02 20:24:00,
2013-09-02 15:25:00,62.9,47.5,0.00,SSE,158,6.0,6.5,57,0.00,,---,0.00,VWS V14.01,2013-09-02 20:25:00,
2013-09-02 15:26:00,62.9,47.5,0.00,South,180,6.0,6.5,57,0.00,,---,0.00,VWS V14.01,2013-09-02 20:26:00,
2013-09-02 15:27:00,62.9,47.5,0.00,SE,135,5.4,6.5,57,0.00,,---,0.00,VWS V14.01,2013-09-02 20:27:00,
2013-09-02 15:29:00,62.9,47.5,0.00,SSE,158,6.0,6.5,57,0.00,,---,0.00,VWS V14.01,2013-09-02 20:29:00,
2013-09-02 15:30:00,62.7,47.3,0.00,South,180,5.6,6.5,57,0.00,,---,0.00,VWS V14.01,2013-09-02 20:30:00,
2013-09-02 15:31:00,62.7,47.8,0.00,South,180,4.7,5.6,58,0.00,,---,0.00,VWS V14.01,2013-09-02 20:31:00,
2013-09-02 15:32:00,62.6,47.6,0.00,South,180,6.0,6.0,58,0.00,,---,0.00,VWS V14.01,2013-09-02 20:32:00,
2013-09-02 15:33:00,62.6,47.6,0.00,SSE,158,5.6,6.0,58,0.00,,---,0.00,VWS V14.01,2013-09-02 20:33:00,
2013-09-02 15:34:00,62.6,47.6,0.00,South,180,4.5,6.0,58,0.00,,---,0.00,VWS V14.01,2013-09-02 20:34:00,
2013-09-02 15:35:00,62.6,48.0,0.00,South,180,3.6,6.0,59,0.00,,---,0.00,VWS V14.01,2013-09-02 20:35:00,
2013-09-02 15:36:00,62.4,47.9,0.00,South,180,5.8,6.0,59,0.00,,---,0.00,VWS V14.01,2013-09-02 20:36:00,
2013-09-02 15:37:00,62.4,47.9,0.00,SSE,158,5.4,6.5,59,0.00,,---,0.00,VWS V14.01,2013-09-02 20:37:00,
2013-09-02 15:38:00,62.6,48.0,0.00,South,180,5.6,6.5,59,0.00,,---,0.00,VWS V14.01,2013-09-02 20:38:00,
2013-09-02 15:39:00,62.6,48.0,0.00,South,180,5.6,6.5,59,0.00,,---,0.00,VWS V14.01,2013-09-02 20:39:00,
2013-09-02 15:40:00,62.6,48.0,0.00,SSE,158,4.9,6.5,59,0.00,,---,0.00,VWS V14.01,2013-09-02 20:40:00,
2013-09-02 15:41:00,62.6,48.0,0.00,South,180,5.6,6.5,59,0.00,,---,0.00,VWS V14.01,2013-09-02 20:41:00,
2013-09-02 15:42:00,62.6,48.0,0.00,South,180,5.4,6.5,59,0.00,,---,0.00,VWS V14.01,2013-09-02 20:42:00,
2013-09-02 15:43:00,62.6,48.0,0.00,South,180,5.4,6.5,59,0.00,,---,0.00,VWS V14.01,2013-09-02 20:43:00,
2013-09-02 15:44:00,62.7,48.2,0.00,South,180,4.9,6.5,59,0.00,,---,0.00,VWS V14.01,2013-09-02 20:44:00,
2013-09-02 15:45:00,62.7,48.2,0.00,South,180,3.8,6.5,59,0.00,,---,0.00,VWS V14.01,2013-09-02 20:45:00,
2013-09-02 15:46:00,62.7,48.7,0.00,South,180,4.3,4.3,60,0.00,,---,0.00,VWS V14.01,2013-09-02 20:46:00,
2013-09-02 15:47:00,62.7,48.2,0.00,South,180,4.3,4.7,59,0.00,,---,0.00,VWS V14.01,2013-09-02 20:47:00,
2013-09-02 15:48:00,91.7,48.7,0.00,SSE,158,7.8,10.3,23,0.00,,---,0.00,VWS V14.01,2013-09-02 20:48:00,
2013-09-02 15:49:00,62.7,48.2,0.00,SSE,158,4.7,4.7,59,0.00,,---,0.00,VWS V14.01,2013-09-02 20:49:00,
2013-09-02 15:50:00,62.7,48.2,0.00,South,180,5.6,6.5,59,0.00,,---,0.00,VWS V14.01,2013-09-02 20:50:00,
2013-09-02 15:51:00,62.7,48.2,0.00,South,180,3.6,6.5,59,0.00,,---,0.00,VWS V14.01,2013-09-02 20:51:00,
2013-09-02 15:52:00,62.7,48.2,0.00,South,180,6.3,6.5,59,0.00,,---,0.00,VWS V14.01,2013-09-02 20:52:00,
2013-09-02 15:53:00,62.7,48.2,0.00,SW,225,6.0,6.5,59,0.00,,---,0.00,VWS V14.01,2013-09-02 20:53:00,
2013-09-02 15:54:00,62.7,48.2,0.00,South,180,5.6,6.5,59,0.00,,---,0.00,VWS V14.01,2013-09-02 20:54:00,
2013-09-02 15:55:00,62.9,48.4,0.00,South,180,6.0,7.4,59,0.00,,---,0.00,VWS V14.01,2013-09-02 20:55:00,
2013-09-02 15:57:00,62.9,48.4,0.00,South,180,5.4,7.4,59,0.00,,---,0.00,VWS V14.01,2013-09-02 20:57:00,
2013-09-02 15:58:00,62.9,48.4,0.00,South,180,9.0,9.0,59,0.00,,---,0.00,VWS V14.01,2013-09-02 20:58:00,
2013-09-02 15:59:00,63.3,48.3,0.00,SW,225,6.5,9.0,58,0.00,,---,0.00,VWS V14.01,2013-09-02 20:59:00,
2013-09-02 16:00:00,63.3,48.3,0.00,South,180,4.9,9.0,58,0.00,,---,0.00,VWS V14.01,2013-09-02 21:00:00,
2013-09-02 16:01:00,63.3,48.3,0.00,South,180,5.8,5.8,58,0.00,,---,0.00,VWS V14.01,2013-09-02 21:01:00,
2013-09-02 16:02:00,63.3,48.3,0.00,South,180,4.3,5.8,58,0.00,,---,0.00,VWS V14.01,2013-09-02 21:02:00,
2013-09-02 16:04:00,63.3,48.3,0.00,SSE,158,3.8,5.8,58,0.00,,---,0.00,VWS V14.01,2013-09-02 21:04:00,
2013-09-02 16:05:00,63.3,48.3,0.00,South,180,4.9,5.8,58,0.00,,---,0.00,VWS V14.01,2013-09-02 21:05:00,
2013-09-02 16:06:00,63.3,48.3,0.00,South,180,3.8,5.8,58,0.00,,---,0.00,VWS V14.01,2013-09-02 21:06:00,
2013-09-02 16:07:00,63.1,48.1,0.00,South,180,4.3,5.8,58,0.00,,---,0.00,VWS V14.01,2013-09-02 21:07:00,
2013-09-02 16:08:00,63.1,48.1,0.00,South,180,3.8,5.8,58,0.00,,---,0.00,VWS V14.01,2013-09-02 21:08:00,
2013-09-02 16:09:00,62.9,47.9,0.00,South,180,6.0,6.0,58,0.00,,---,0.00,VWS V14.01,2013-09-02 21:09:00,
2013-09-02 16:10:00,62.9,47.9,0.00,South,180,5.4,6.3,58,0.00,,---,0.00,VWS V14.01,2013-09-02 21:10:00,
2013-09-02 16:11:00,62.9,47.9,0.00,South,180,4.3,6.3,58,0.00,,---,0.00,VWS V14.01,2013-09-02 21:11:00,
2013-09-02 16:13:00,62.9,48.4,0.00,SSW,202,4.0,6.3,59,0.00,,---,0.00,VWS V14.01,2013-09-02 21:13:00,
2013-09-02 16:14:00,62.9,48.4,0.00,SSW,202,4.0,6.3,59,0.00,,---,0.00,VWS V14.01,2013-09-02 21:14:00,
2013-09-02 16:15:00,62.9,48.4,0.00,South,180,4.3,6.3,59,0.00,,---,0.00,VWS V14.01,2013-09-02 21:15:00,
2013-09-02 16:16:00,62.9,48.4,0.00,South,180,3.4,4.3,59,0.00,,---,0.00,VWS V14.01,2013-09-02 21:16:00,
2013-09-02 16:17:00,62.7,48.2,0.00,South,180,3.4,4.3,59,0.00,,---,0.00,VWS V14.01,2013-09-02 21:17:00,
2013-09-02 16:18:00,62.7,48.2,0.00,South,180,3.8,4.3,59,0.00,,---,0.00,VWS V14.01,2013-09-02 21:18:00,
2013-09-02 16:19:00,62.7,48.7,0.00,South,180,3.4,4.3,60,0.00,,---,0.00,VWS V14.01,2013-09-02 21:19:00,
2013-09-02 16:20:00,62.6,48.5,0.00,South,180,4.0,4.3,60,0.00,,---,0.00,VWS V14.01,2013-09-02 21:20:00,
2013-09-02 16:21:00,62.6,48.5,0.00,South,180,4.3,4.3,60,0.00,,---,0.00,VWS V14.01,2013-09-02 21:21:00,
2013-09-02 16:22:00,62.6,48.5,0.00,South,180,5.6,6.5,60,0.00,,---,0.00,VWS V14.01,2013-09-02 21:22:00,
2013-09-02 16:23:00,62.7,48.7,0.00,South,180,4.9,7.6,60,0.00,,---,0.00,VWS V14.01,2013-09-02 21:23:00,
2013-09-02 16:24:00,62.7,49.1,0.00,South,180,4.3,7.6,61,0.00,,---,0.00,VWS V14.01,2013-09-02 21:24:00,
2013-09-02 16:25:00,62.7,49.1,0.00,South,180,5.4,7.6,61,0.00,,---,0.00,VWS V14.01,2013-09-02 21:25:00,
2013-09-02 16:26:00,62.9,49.3,0.00,South,180,6.0,7.6,61,0.00,,---,0.00,VWS V14.01,2013-09-02 21:26:00,
2013-09-02 16:27:00,62.9,48.8,0.00,South,180,7.8,7.8,60,0.00,,---,0.00,VWS V14.01,2013-09-02 21:27:00,
2013-09-02 16:28:00,62.9,48.8,0.00,South,180,8.1,8.7,60,0.00,,---,0.00,VWS V14.01,2013-09-02 21:28:00,
2013-09-02 16:29:00,63.3,49.2,0.00,South,180,7.6,8.7,60,0.00,,---,0.00,VWS V14.01,2013-09-02 21:29:00,
2013-09-02 16:30:00,63.3,49.2,0.00,South,180,7.2,9.6,60,0.00,,---,0.00,VWS V14.01,2013-09-02 21:30:00,
2013-09-02 16:31:00,63.5,49.3,0.00,South,180,6.5,7.2,60,0.00,,---,0.00,VWS V14.01,2013-09-02 21:31:00,
2013-09-02 16:32:00,63.5,49.3,0.00,South,180,6.5,7.2,60,0.00,,---,0.00,VWS V14.01,2013-09-02 21:32:00,
2013-09-02 16:33:00,63.5,48.9,0.00,South,180,7.6,9.8,59,0.00,,---,0.00,VWS V14.01,2013-09-02 21:33:00,
2013-09-02 16:34:00,63.6,49.1,0.00,South,180,11.0,11.0,59,0.00,,---,0.00,VWS V14.01,2013-09-02 21:34:00,
2013-09-02 16:35:00,63.8,49.2,0.00,South,180,10.1,11.9,59,0.00,,---,0.00,VWS V14.01,2013-09-02 21:35:00,
2013-09-02 16:36:00,63.8,48.8,0.00,South,180,8.5,11.9,58,0.00,,---,0.00,VWS V14.01,2013-09-02 21:36:00,
2013-09-02 16:37:00,64.0,48.9,0.00,South,180,10.3,11.9,58,0.00,,---,0.00,VWS V14.01,2013-09-02 21:37:00,
2013-09-02 16:38:00,64.0,48.9,0.00,South,180,8.5,12.5,58,0.00,,---,0.00,VWS V14.01,2013-09-02 21:38:00,
2013-09-02 16:39:00,64.0,48.9,0.00,South,180,8.1,12.5,58,0.00,,---,0.00,VWS V14.01,2013-09-02 21:39:00,
2013-09-02 16:40:00,64.4,48.8,0.00,SSW,202,7.8,12.5,57,0.00,,---,0.00,VWS V14.01,2013-09-02 21:40:00,
2013-09-02 16:41:00,64.4,48.8,0.00,South,180,8.5,12.5,57,0.00,,---,0.00,VWS V14.01,2013-09-02 21:41:00,
2013-09-02 16:42:00,64.4,48.8,0.00,South,180,6.7,12.5,57,0.00,,---,0.00,VWS V14.01,2013-09-02 21:42:00,
2013-09-02 16:44:00,64.4,48.8,0.00,South,180,7.2,12.5,57,0.00,,---,0.00,VWS V14.01,2013-09-02 21:44:00,
2013-09-02 16:45:00,64.4,48.8,0.00,South,180,4.5,12.5,57,0.00,,---,0.00,VWS V14.01,2013-09-02 21:45:00,
2013-09-02 16:46:00,64.2,48.7,0.00,South,180,4.9,5.4,57,0.00,,---,0.00,VWS V14.01,2013-09-02 21:46:00,
2013-09-02 16:47:00,64.2,48.7,0.00,South,180,4.9,5.4,57,0.00,,---,0.00,VWS V14.01,2013-09-02 21:47:00,
2013-09-02 16:49:00,64.0,48.9,0.00,SW,225,3.6,5.4,58,0.00,,---,0.00,VWS V14.01,2013-09-02 21:49:00,
2013-09-02 16:50:00,63.8,48.8,0.00,South,180,4.9,7.6,58,0.00,,---,0.00,VWS V14.01,2013-09-02 21:50:00,
2013-09-02 16:51:00,63.8,48.8,0.00,SW,225,5.4,7.6,58,0.00,,---,0.00,VWS V14.01,2013-09-02 21:51:00,
2013-09-02 16:52:00,63.8,48.8,0.00,South,180,4.9,7.6,58,0.00,,---,0.00,VWS V14.01,2013-09-02 21:52:00,
2013-09-02 16:53:00,63.6,49.1,0.00,SSW,202,4.3,7.6,59,0.00,,---,0.00,VWS V14.01,2013-09-02 21:53:00,
2013-09-02 16:54:00,63.6,49.1,0.00,South,180,4.0,7.6,59,0.00,,---,0.00,VWS V14.01,2013-09-02 21:54:00,
2013-09-02 16:55:00,63.6,49.1,0.00,South,180,4.0,7.6,59,0.00,,---,0.00,VWS V14.01,2013-09-02 21:55:00,
2013-09-02 16:56:00,63.6,49.1,0.00,South,180,6.3,7.6,59,0.00,,---,0.00,VWS V14.01,2013-09-02 21:56:00,
2013-09-02 16:57:00,63.6,49.1,0.00,SSW,202,6.0,7.6,59,0.00,,---,0.00,VWS V14.01,2013-09-02 21:57:00,
2013-09-02 16:58:00,63.6,49.1,0.00,SSW,202,3.8,7.6,59,0.00,,---,0.00,VWS V14.01,2013-09-02 21:58:00,
2013-09-02 16:59:00,63.6,49.1,0.00,South,180,4.0,7.6,59,0.00,,---,0.00,VWS V14.01,2013-09-02 21:59:00,
2013-09-02 17:00:00,63.6,49.1,0.00,South,180,3.4,7.6,59,0.00,,---,0.00,VWS V14.01,2013-09-02 22:00:00,
2013-09-02 17:01:00,63.5,48.9,0.00,SSW,202,3.1,3.6,59,0.00,,---,0.00,VWS V14.01,2013-09-02 22:01:00,
2013-09-02 17:02:00,63.5,48.9,0.00,SW,225,2.5,3.6,59,0.00,,---,0.00,VWS V14.01,2013-09-02 22:02:00,
2013-09-02 17:03:00,63.3,48.7,0.00,SW,225,2.2,3.6,59,0.00,,---,0.00,VWS V14.01,2013-09-02 22:03:00,
2013-09-02 17:04:00,63.3,48.7,0.00,SW,225,2.5,3.6,59,0.00,,---,0.00,VWS V14.01,2013-09-02 22:04:00,
2013-09-02 17:05:00,63.3,48.7,0.00,SW,225,2.0,3.6,59,0.00,,---,0.00,VWS V14.01,2013-09-02 22:05:00,
2013-09-02 17:06:00,63.3,48.7,0.00,SW,225,2.9,3.6,59,0.00,,---,0.00,VWS V14.01,2013-09-02 22:06:00,
2013-09-02 17:08:00,63.3,49.2,0.00,SW,225,3.4,3.6,60,0.00,,---,0.00,VWS V14.01,2013-09-02 22:08:00,
2013-09-02 17:09:00,63.3,49.2,0.00,SW,225,2.5,3.6,60,0.00,,---,0.00,VWS V14.01,2013-09-02 22:09:00,
2013-09-02 17:10:00,63.1,49.0,0.00,SW,225,2.5,3.6,60,0.00,,---,0.00,VWS V14.01,2013-09-02 22:10:00,
2013-09-02 17:11:00,63.1,49.0,0.00,SW,225,4.3,4.3,60,0.00,,---,0.00,VWS V14.01,2013-09-02 22:11:00,
2013-09-02 17:12:00,63.1,49.0,0.00,South,180,2.7,4.3,60,0.00,,---,0.00,VWS V14.01,2013-09-02 22:12:00,
2013-09-02 17:13:00,63.1,49.0,0.00,South,180,3.1,4.3,60,0.00,,---,0.00,VWS V14.01,2013-09-02 22:13:00,
2013-09-02 17:14:00,62.9,49.3,0.00,South,180,2.5,4.3,61,0.00,,---,0.00,VWS V14.01,2013-09-02 22:14:00,
2013-09-02 17:15:00,62.7,49.1,0.00,SW,225,3.6,4.3,61,0.00,,---,0.00,VWS V14.01,2013-09-02 22:15:00,
2013-09-02 17:16:00,62.7,48.7,0.00,SW,225,3.6,3.6,60,0.00,,---,0.00,VWS V14.01,2013-09-02 22:16:00,
2013-09-02 17:17:00,62.6,48.9,0.00,South,180,2.9,3.6,61,0.00,,---,0.00,VWS V14.01,2013-09-02 22:17:00,
2013-09-02 17:18:00,62.6,48.9,0.00,South,180,3.1,3.6,61,0.00,,---,0.00,VWS V14.01,2013-09-02 22:18:00,
2013-09-02 17:19:00,62.4,48.8,0.00,South,180,2.5,3.6,61,0.00,,---,0.00,VWS V14.01,2013-09-02 22:19:00,
2013-09-02 17:20:00,62.4,49.2,0.00,South,180,3.1,3.6,62,0.00,,---,0.00,VWS V14.01,2013-09-02 22:20:00,
2013-09-02 17:21:00,62.4,49.2,0.00,South,180,2.9,3.6,62,0.00,,---,0.00,VWS V14.01,2013-09-02 22:21:00,
2013-09-02 17:22:00,62.4,49.2,0.00,SW,225,4.7,4.7,62,0.00,,---,0.00,VWS V14.01,2013-09-02 22:22:00,
2013-09-02 17:23:00,62.4,49.2,0.00,South,180,2.5,4.7,62,0.00,,---,0.00,VWS V14.01,2013-09-02 22:23:00,
2013-09-02 17:24:00,62.2,49.5,0.00,South,180,2.7,4.7,63,0.00,,---,0.00,VWS V14.01,2013-09-02 22:24:00,
2013-09-02 17:25:00,62.2,49.0,0.00,SW,225,2.9,4.7,62,0.00,,---,0.00,VWS V14.01,2013-09-02 22:25:00,
2013-09-02 17:26:00,62.0,49.3,0.00,SW,225,3.6,4.7,63,0.00,,---,0.00,VWS V14.01,2013-09-02 22:26:00,
2013-09-02 17:27:00,62.0,49.3,0.00,South,180,3.1,4.7,63,0.00,,---,0.00,VWS V14.01,2013-09-02 22:27:00,
2013-09-02 17:28:00,62.0,49.3,0.00,South,180,3.1,4.7,63,0.00,,---,0.00,VWS V14.01,2013-09-02 22:28:00,
2013-09-02 17:29:00,62.0,49.3,0.00,SSW,202,2.9,4.7,63,0.00,,---,0.00,VWS V14.01,2013-09-02 22:29:00,
2013-09-02 17:30:00,62.0,49.3,0.00,South,180,3.8,4.7,63,0.00,,---,0.00,VWS V14.01,2013-09-02 22:30:00,
2013-09-02 17:32:00,62.0,49.7,0.00,SW,225,3.8,4.0,64,0.00,,---,0.00,VWS V14.01,2013-09-02 22:32:00,
2013-09-02 17:33:00,61.8,49.5,0.00,South,180,3.8,4.0,64,0.00,,---,0.00,VWS V14.01,2013-09-02 22:33:00,
2013-09-02 17:34:00,61.8,49.5,0.00,South,180,3.8,4.0,64,0.00,,---,0.00,VWS V14.01,2013-09-02 22:34:00,
2013-09-02 17:35:00,61.8,49.5,0.00,South,180,3.8,4.0,64,0.00,,---,0.00,VWS V14.01,2013-09-02 22:35:00,
2013-09-02 17:36:00,61.8,49.5,0.00,South,180,4.0,4.0,64,0.00,,---,0.00,VWS V14.01,2013-09-02 22:36:00,
2013-09-02 17:37:00,62.0,49.7,0.00,SSW,202,2.7,4.0,64,0.00,,---,0.00,VWS V14.01,2013-09-02 22:37:00,
2013-09-02 17:38:00,62.0,49.7,0.00,South,180,2.5,4.0,64,0.00,,---,0.00,VWS V14.01,2013-09-02 22:38:00,
2013-09-02 17:39:00,61.8,49.5,0.00,South,180,3.6,4.0,64,0.00,,---,0.00,VWS V14.01,2013-09-02 22:39:00,
2013-09-02 17:40:00,61.8,49.5,0.00,South,180,2.7,4.0,64,0.00,,---,0.00,VWS V14.01,2013-09-02 22:40:00,
2013-09-02 17:41:00,61.8,49.5,0.00,SW,225,2.5,4.0,64,0.00,,---,0.00,VWS V14.01,2013-09-02 22:41:00,
2013-09-02 17:42:00,61.8,49.5,0.00,South,180,3.6,4.0,64,0.00,,---,0.00,VWS V14.01,2013-09-02 22:42:00,
2013-09-02 17:43:00,61.8,49.5,0.00,SSW,202,3.4,4.0,64,0.00,,---,0.00,VWS V14.01,2013-09-02 22:43:00,
2013-09-02 17:44:00,61.8,49.5,0.00,SSW,202,3.1,4.0,64,0.00,,---,0.00,VWS V14.01,2013-09-02 22:44:00,
2013-09-02 17:45:00,61.8,49.5,0.00,SW,225,3.6,4.0,64,0.00,,---,0.00,VWS V14.01,2013-09-02 22:45:00,
2013-09-02 17:46:00,61.8,49.5,0.00,SW,225,4.3,4.3,64,0.00,,---,0.00,VWS V14.01,2013-09-02 22:46:00,
2013-09-02 17:47:00,61.8,49.5,0.00,SW,225,3.4,4.3,64,0.00,,---,0.00,VWS V14.01,2013-09-02 22:47:00,
2013-09-02 17:48:00,62.0,50.1,0.00,SSW,202,3.6,4.3,65,0.00,,---,0.00,VWS V14.01,2013-09-02 22:48:00,
2013-09-02 17:49:00,62.0,50.1,0.00,SSW,202,3.6,4.3,65,0.00,,---,0.00,VWS V14.01,2013-09-02 22:49:00,
2013-09-02 17:50:00,62.0,50.1,0.00,South,180,5.4,5.4,65,0.00,,---,0.00,VWS V14.01,2013-09-02 22:50:00,
2013-09-02 17:51:00,62.2,49.9,0.00,South,180,3.8,5.4,64,0.00,,---,0.00,VWS V14.01,2013-09-02 22:51:00,
2013-09-02 17:52:00,62.2,49.9,0.00,South,180,3.1,5.4,64,0.00,,---,0.00,VWS V14.01,2013-09-02 22:52:00,
2013-09-02 17:53:00,62.2,49.9,0.00,SW,225,3.1,5.4,64,0.00,,---,0.00,VWS V14.01,2013-09-02 22:53:00,
2013-09-02 17:54:00,62.2,49.9,0.00,SW,225,3.8,5.4,64,0.00,,---,0.00,VWS V14.01,2013-09-02 22:54:00,
2013-09-02 17:55:00,62.2,49.9,0.00,SSW,202,3.8,5.4,64,0.00,,---,0.00,VWS V14.01,2013-09-02 22:55:00,
2013-09-02 17:56:00,62.2,49.9,0.00,SW,225,4.0,5.4,64,0.00,,---,0.00,VWS V14.01,2013-09-02 22:56:00,
2013-09-02 17:57:00,62.2,49.9,0.00,South,180,5.4,5.4,64,0.00,,---,0.00,VWS V14.01,2013-09-02 22:57:00,
2013-09-02 17:58:00,62.2,49.9,0.00,South,180,4.3,5.4,64,0.00,,---,0.00,VWS V14.01,2013-09-02 22:58:00,
2013-09-02 17:59:00,62.2,49.9,0.00,SW,225,4.0,5.4,64,0.00,,---,0.00,VWS V14.01,2013-09-02 22:59:00,
2013-09-02 18:00:00,62.2,49.9,0.00,SSW,202,4.7,5.4,64,0.00,,---,0.00,VWS V14.01,2013-09-02 23:00:00,
2013-09-02 18:01:00,62.2,49.9,0.00,SW,225,3.4,4.7,64,0.00,,---,0.00,VWS V14.01,2013-09-02 23:01:00,
2013-09-02 18:02:00,62.2,49.9,0.00,SW,225,4.3,4.7,64,0.00,,---,0.00,VWS V14.01,2013-09-02 23:02:00,
2013-09-02 18:03:00,62.2,49.9,0.00,West,270,4.0,4.7,64,0.00,,---,0.00,VWS V14.01,2013-09-02 23:03:00,
2013-09-02 18:04:00,62.4,50.1,0.00,SW,225,3.6,4.7,64,0.00,,---,0.00,VWS V14.01,2013-09-02 23:04:00,
2013-09-02 18:05:00,62.4,50.1,0.00,SW,225,2.9,5.6,64,0.00,,---,0.00,VWS V14.01,2013-09-02 23:05:00,
2013-09-02 18:06:00,62.4,50.1,0.00,SW,225,3.4,5.6,64,0.00,,---,0.00,VWS V14.01,2013-09-02 23:06:00,
2013-09-02 18:07:00,62.4,50.1,0.00,SW,225,2.7,5.6,64,0.00,,---,0.00,VWS V14.01,2013-09-02 23:07:00,
2013-09-02 18:08:00,62.4,50.1,0.00,SW,225,4.3,5.6,64,0.00,,---,0.00,VWS V14.01,2013-09-02 23:08:00,
2013-09-02 18:09:00,62.6,50.2,0.00,SW,225,3.4,5.6,64,0.00,,---,0.00,VWS V14.01,2013-09-02 23:09:00,
2013-09-02 18:10:00,62.6,50.2,0.00,SSW,202,3.6,5.6,64,0.00,,---,0.00,VWS V14.01,2013-09-02 23:10:00,
2013-09-02 18:11:00,62.6,50.2,0.00,South,180,3.6,5.6,64,0.00,,---,0.00,VWS V14.01,2013-09-02 23:11:00,
2013-09-02 18:12:00,62.6,50.2,0.00,SSW,202,4.3,5.6,64,0.00,,---,0.00,VWS V14.01,2013-09-02 23:12:00,
2013-09-02 18:13:00,62.6,50.2,0.00,South,180,4.9,5.6,64,0.00,,---,0.00,VWS V14.01,2013-09-02 23:13:00,
2013-09-02 18:14:00,62.6,50.2,0.00,SW,225,6.5,8.1,64,0.00,,---,0.00,VWS V14.01,2013-09-02 23:14:00,
2013-09-02 18:15:00,62.6,49.8,0.00,South,180,4.9,8.1,63,0.00,,---,0.00,VWS V14.01,2013-09-02 23:15:00,
2013-09-02 18:16:00,62.7,50.0,0.00,SW,225,4.9,5.6,63,0.00,,---,0.00,VWS V14.01,2013-09-02 23:16:00,
2013-09-02 18:17:00,62.7,50.0,0.00,South,180,5.8,7.6,63,0.00,,---,0.00,VWS V14.01,2013-09-02 23:17:00,
2013-09-02 18:18:00,62.9,50.2,0.00,South,180,5.6,8.1,63,0.00,,---,0.00,VWS V14.01,2013-09-02 23:18:00,
2013-09-02 18:19:00,62.9,50.2,0.00,South,180,5.4,8.1,63,0.00,,---,0.00,VWS V14.01,2013-09-02 23:19:00,
2013-09-02 18:20:00,62.9,50.2,0.00,SSW,202,5.4,8.1,63,0.00,,---,0.00,VWS V14.01,2013-09-02 23:20:00,
2013-09-02 18:21:00,62.9,50.2,0.00,South,180,4.3,8.1,63,0.00,,---,0.00,VWS V14.01,2013-09-02 23:21:00,
2013-09-02 18:22:00,62.9,50.2,0.00,South,180,6.3,8.1,63,0.00,,---,0.00,VWS V14.01,2013-09-02 23:22:00,
2013-09-02 18:23:00,62.9,50.2,0.00,SW,225,6.3,8.1,63,0.00,,---,0.00,VWS V14.01,2013-09-02 23:23:00,
2013-09-02 18:24:00,62.9,50.2,0.00,South,180,4.3,8.1,63,0.00,,---,0.00,VWS V14.01,2013-09-02 23:24:00,
2013-09-02 18:25:00,62.9,49.7,0.00,SW,225,3.4,8.1,62,0.00,,---,0.00,VWS V14.01,2013-09-02 23:25:00,
2013-09-02 18:26:00,62.9,49.7,0.00,South,180,2.9,8.1,62,0.00,,---,0.00,VWS V14.01,2013-09-02 23:26:00,
2013-09-02 18:27:00,62.7,49.5,0.00,SSW,202,2.7,8.1,62,0.00,,---,0.00,VWS V14.01,2013-09-02 23:27:00,
2013-09-02 18:28:00,62.7,50.0,0.00,South,180,2.5,8.1,63,0.00,,---,0.00,VWS V14.01,2013-09-02 23:28:00,
2013-09-02 18:29:00,62.7,50.0,0.00,South,180,3.1,8.1,63,0.00,,---,0.00,VWS V14.01,2013-09-02 23:29:00,
2013-09-02 18:30:00,62.6,49.8,0.00,South,180,2.9,8.1,63,0.00,,---,0.00,VWS V14.01,2013-09-02 23:30:00,
2013-09-02 18:31:00,62.6,49.8,0.00,SSW,202,2.0,2.9,63,0.00,,---,0.00,VWS V14.01,2013-09-02 23:31:00,
2013-09-02 18:32:00,62.4,49.6,0.00,SSW,202,2.9,2.9,63,0.00,,---,0.00,VWS V14.01,2013-09-02 23:32:00,
2013-09-02 18:33:00,62.4,49.6,0.00,South,180,2.5,2.9,63,0.00,,---,0.00,VWS V14.01,2013-09-02 23:33:00,
2013-09-02 18:34:00,62.4,49.6,0.00,South,180,3.6,3.6,63,0.00,,---,0.00,VWS V14.01,2013-09-02 23:34:00,
2013-09-02 18:35:00,62.4,49.6,0.00,South,180,3.6,4.3,63,0.00,,---,0.00,VWS V14.01,2013-09-02 23:35:00,
2013-09-02 18:36:00,62.4,49.6,0.00,SSE,158,2.5,4.3,63,0.00,,---,0.00,VWS V14.01,2013-09-02 23:36:00,
2013-09-02 18:37:00,62.2,49.5,0.00,SE,135,2.2,4.3,63,0.00,,---,0.00,VWS V14.01,2013-09-02 23:37:00,
2013-09-02 18:38:00,62.2,49.5,0.00,SE,135,3.1,4.3,63,0.00,,---,0.00,VWS V14.01,2013-09-02 23:38:00,
2013-09-02 18:39:00,62.0,49.3,0.00,SSE,158,4.9,4.9,63,0.00,,---,0.00,VWS V14.01,2013-09-02 23:39:00,
2013-09-02 18:40:00,62.0,49.3,0.00,SE,135,4.0,4.9,63,0.00,,---,0.00,VWS V14.01,2013-09-02 23:40:00,
2013-09-02 18:41:00,61.8,49.5,0.00,South,180,2.0,4.9,64,0.00,,---,0.00,VWS V14.01,2013-09-02 23:41:00,
2013-09-02 18:42:00,61.8,49.5,0.00,SSE,158,3.1,4.9,64,0.00,,---,0.00,VWS V14.01,2013-09-02 23:42:00,
2013-09-02 18:43:00,61.7,49.0,0.00,SSE,158,2.5,4.9,63,0.00,,---,0.00,VWS V14.01,2013-09-02 23:43:00,
2013-09-02 18:44:00,61.7,49.0,0.00,SE,135,2.7,4.9,63,0.00,,---,0.00,VWS V14.01,2013-09-02 23:44:00,
2013-09-02 18:45:00,61.7,49.0,0.00,SE,135,2.7,4.9,63,0.00,,---,0.00,VWS V14.01,2013-09-02 23:45:00,
2013-09-02 18:46:00,61.5,48.8,0.00,SSE,158,2.9,2.9,63,0.00,,---,0.00,VWS V14.01,2013-09-02 23:46:00,
2013-09-02 18:47:00,61.5,48.8,0.00,SSE,158,2.7,2.9,63,0.00,,---,0.00,VWS V14.01,2013-09-02 23:47:00,
2013-09-02 18:48:00,61.5,49.2,0.00,SE,135,2.9,3.1,64,0.00,,---,0.00,VWS V14.01,2013-09-02 23:48:00,
2013-09-02 18:49:00,61.3,49.0,0.00,South,180,2.5,3.1,64,0.00,,---,0.00,VWS V14.01,2013-09-02 23:49:00,
2013-09-02 18:50:00,61.3,49.5,0.00,South,180,2.0,3.1,65,0.00,,---,0.00,VWS V14.01,2013-09-02 23:50:00,
2013-09-02 18:51:00,61.3,49.5,0.00,SSE,158,2.2,3.1,65,0.00,,---,0.00,VWS V14.01,2013-09-02 23:51:00,
2013-09-02 18:52:00,61.1,49.3,0.00,SSE,158,1.3,3.1,65,0.00,,---,0.00,VWS V14.01,2013-09-02 23:52:00,
2013-09-02 18:53:00,61.1,49.3,0.00,SSE,158,1.1,3.1,65,0.00,,---,0.00,VWS V14.01,2013-09-02 23:53:00,
2013-09-02 18:54:00,86.1,47.3,0.00,SE,135,16.6,17.7,26,0.00,,---,0.00,VWS V14.01,2013-09-02 23:54:00,
2013-09-02 18:55:00,61.1,49.3,0.00,SE,135,1.3,3.1,65,0.00,,---,0.00,VWS V14.01,2013-09-02 23:55:00,
2013-09-02 18:56:00,61.1,48.9,0.00,SE,135,1.6,3.1,64,0.00,,---,0.00,VWS V14.01,2013-09-02 23:56:00,
2013-09-02 18:57:00,61.1,48.9,0.00,SE,135,2.0,3.1,64,0.00,,---,0.00,VWS V14.01,2013-09-02 23:57:00,
2013-09-02 18:58:00,61.1,48.9,0.00,SE,135,1.6,3.1,64,0.00,,---,0.00,VWS V14.01,2013-09-02 23:58:00,
2013-09-02 18:59:00,61.1,48.9,0.00,SE,135,3.1,3.1,64,0.00,,---,0.00,VWS V14.01,2013-09-02 23:59:00,
2013-09-02 19:00:00,61.1,49.3,0.00,SE,135,3.1,3.1,65,0.00,,---,0.00,VWS V14.01,2013-09-03 00:00:00,
2013-09-02 19:01:00,61.1,49.3,0.00,SE,135,2.9,3.6,65,0.00,,---,0.00,VWS V14.01,2013-09-03 00:01:00,
2013-09-02 19:02:00,60.9,49.1,0.00,SE,135,3.1,3.6,65,0.00,,---,0.00,VWS V14.01,2013-09-03 00:02:00,
2013-09-02 19:03:00,60.9,49.1,0.00,SE,135,3.1,3.6,65,0.00,,---,0.00,VWS V14.01,2013-09-03 00:03:00,
2013-09-02 19:04:00,60.8,48.9,0.00,SE,135,3.4,3.6,65,0.00,,---,0.00,VWS V14.01,2013-09-03 00:04:00,
2013-09-02 19:05:00,60.8,48.9,0.00,SSE,158,4.9,4.9,65,0.00,,---,0.00,VWS V14.01,2013-09-03 00:05:00,
2013-09-02 19:06:00,60.8,48.9,0.00,SSE,158,4.9,4.9,65,0.00,,---,0.00,VWS V14.01,2013-09-03 00:06:00,
2013-09-02 19:07:00,60.8,48.9,0.00,SE,135,4.5,4.9,65,0.00,,---,0.00,VWS V14.01,2013-09-03 00:07:00,
2013-09-02 19:08:00,60.8,48.9,0.00,SE,135,3.6,4.9,65,0.00,,---,0.00,VWS V14.01,2013-09-03 00:08:00,
2013-09-02 19:09:00,60.8,48.9,0.00,SE,135,3.8,4.9,65,0.00,,---,0.00,VWS V14.01,2013-09-03 00:09:00,
2013-09-02 19:10:00,60.6,49.2,0.00,SE,135,3.8,4.9,66,0.00,,---,0.00,VWS V14.01,2013-09-03 00:10:00,
2013-09-02 19:11:00,60.6,49.2,0.00,SE,135,3.8,4.9,66,0.00,,---,0.00,VWS V14.01,2013-09-03 00:11:00,
2013-09-02 19:12:00,60.6,49.2,0.00,SSE,158,3.6,4.9,66,0.00,,---,0.00,VWS V14.01,2013-09-03 00:12:00,
2013-09-02 19:13:00,60.6,49.2,0.00,SE,135,3.1,4.9,66,0.00,,---,0.00,VWS V14.01,2013-09-03 00:13:00,
2013-09-02 19:14:00,60.4,49.0,0.00,SSE,158,3.6,4.9,66,0.00,,---,0.00,VWS V14.01,2013-09-03 00:14:00,
2013-09-02 19:15:00,60.4,49.0,0.00,SE,135,3.1,4.9,66,0.00,,---,0.00,VWS V14.01,2013-09-03 00:15:00,
2013-09-02 19:16:00,60.4,49.0,0.00,SE,135,2.7,3.1,66,0.00,,---,0.00,VWS V14.01,2013-09-03 00:16:00,
2013-09-02 19:17:00,60.4,48.6,0.00,SSE,158,2.9,3.1,65,0.00,,---,0.00,VWS V14.01,2013-09-03 00:17:00,
2013-09-02 19:18:00,60.2,48.8,0.00,SE,135,2.5,3.1,66,0.00,,---,0.00,VWS V14.01,2013-09-03 00:18:00,
2013-09-02 19:19:00,60.2,48.8,0.00,SE,135,2.9,3.1,66,0.00,,---,0.00,VWS V14.01,2013-09-03 00:19:00,
2013-09-02 19:20:00,60.2,48.8,0.00,SE,135,3.6,4.0,66,0.00,,---,0.00,VWS V14.01,2013-09-03 00:20:00,
2013-09-02 19:21:00,60.2,48.8,0.00,SE,135,3.6,4.0,66,0.00,,---,0.00,VWS V14.01,2013-09-03 00:21:00,
2013-09-02 19:23:00,60.2,48.8,0.00,SE,135,4.0,4.0,66,0.00,,---,0.00,VWS V14.01,2013-09-03 00:23:00,
2013-09-02 19:24:00,60.4,49.0,0.00,SE,135,4.0,4.0,66,0.00,,---,0.00,VWS V14.01,2013-09-03 00:24:00,
2013-09-02 19:25:00,60.4,49.0,0.00,SE,135,2.9,4.0,66,0.00,,---,0.00,VWS V14.01,2013-09-03 00:25:00,
2013-09-02 19:26:00,60.4,49.0,0.00,SE,135,3.8,4.3,66,0.00,,---,0.00,VWS V14.01,2013-09-03 00:26:00,
2013-09-02 19:27:00,60.4,49.0,0.00,SE,135,3.8,4.3,66,0.00,,---,0.00,VWS V14.01,2013-09-03 00:27:00,
2013-09-02 19:28:00,60.4,49.0,0.00,SE,135,4.3,4.3,66,0.00,,---,0.00,VWS V14.01,2013-09-03 00:28:00,
2013-09-02 19:29:00,60.4,49.0,0.00,SE,135,4.3,4.3,66,0.00,,---,0.00,VWS V14.01,2013-09-03 00:29:00,
2013-09-02 19:30:00,60.4,49.4,0.00,SE,135,4.3,4.9,67,0.00,,---,0.00,VWS V14.01,2013-09-03 00:30:00,
2013-09-02 19:31:00,60.6,49.6,0.00,SE,135,4.5,4.5,67,0.00,,---,0.00,VWS V14.01,2013-09-03 00:31:00,
2013-09-02 19:32:00,60.6,49.6,0.00,SE,135,4.0,4.5,67,0.00,,---,0.00,VWS V14.01,2013-09-03 00:32:00,
2013-09-02 19:33:00,60.8,49.8,0.00,SE,135,3.8,4.5,67,0.00,,---,0.00,VWS V14.01,2013-09-03 00:33:00,
2013-09-02 19:34:00,60.8,49.8,0.00,SE,135,4.3,4.5,67,0.00,,---,0.00,VWS V14.01,2013-09-03 00:34:00,
2013-09-02 19:35:00,60.8,49.8,0.00,SE,135,4.0,4.5,67,0.00,,---,0.00,VWS V14.01,2013-09-03 00:35:00,
2013-09-02 19:36:00,60.8,49.3,0.00,SE,135,4.3,4.7,66,0.00,,---,0.00,VWS V14.01,2013-09-03 00:36:00,
2013-09-02 19:37:00,60.8,49.3,0.00,SE,135,4.3,4.7,66,0.00,,---,0.00,VWS V14.01,2013-09-03 00:37:00,
2013-09-02 19:38:00,60.8,49.3,0.00,SE,135,4.3,4.7,66,0.00,,---,0.00,VWS V14.01,2013-09-03 00:38:00,
2013-09-02 19:39:00,61.1,49.7,0.00,SE,135,3.6,4.7,66,0.00,,---,0.00,VWS V14.01,2013-09-03 00:39:00,
2013-09-02 19:40:00,61.1,49.7,0.00,SE,135,3.1,4.7,66,0.00,,---,0.00,VWS V14.01,2013-09-03 00:40:00,
2013-09-02 19:41:00,61.3,49.9,0.00,SE,135,2.9,4.7,66,0.00,,---,0.00,VWS V14.01,2013-09-03 00:41:00,
2013-09-02 19:42:00,61.5,50.0,0.00,SE,135,2.5,4.7,66,0.00,,---,0.00,VWS V14.01,2013-09-03 00:42:00,
2013-09-02 19:43:00,61.5,49.6,0.00,SE,135,2.0,4.7,65,0.00,,---,0.00,VWS V14.01,2013-09-03 00:43:00,
2013-09-02 19:44:00,61.5,49.6,0.00,SE,135,2.2,4.7,65,0.00,,---,0.00,VWS V14.01,2013-09-03 00:44:00,
2013-09-02 19:45:00,61.7,49.8,0.00,SE,135,0.9,1.3,65,0.00,,---,0.00,VWS V14.01,2013-09-03 00:45:00,
2013-09-02 19:46:00,61.7,49.8,0.00,SE,135,1.3,1.3,65,0.00,,---,0.00,VWS V14.01,2013-09-03 00:46:00,
2013-09-02 19:47:00,61.7,49.8,0.00,SE,135,1.6,2.0,65,0.00,,---,0.00,VWS V14.01,2013-09-03 00:47:00,
2013-09-02 19:48:00,62.0,50.1,0.00,SE,135,1.6,2.0,65,0.00,,---,0.00,VWS V14.01,2013-09-03 00:48:00,
2013-09-02 19:49:00,62.2,49.9,0.00,SE,135,2.0,2.2,64,0.00,,---,0.00,VWS V14.01,2013-09-03 00:49:00,
2013-09-02 19:51:00,62.2,49.9,0.00,SE,135,2.5,2.5,64,0.00,,---,0.00,VWS V14.01,2013-09-03 00:51:00,
2013-09-02 19:52:00,62.6,50.2,0.00,SE,135,3.1,3.1,64,0.00,,---,0.00,VWS V14.01,2013-09-03 00:52:00,
2013-09-02 19:53:00,62.7,50.0,0.00,SE,135,2.7,3.1,63,0.00,,---,0.00,VWS V14.01,2013-09-03 00:53:00,
2013-09-02 19:54:00,62.7,50.0,0.00,SE,135,2.7,3.1,63,0.00,,---,0.00,VWS V14.01,2013-09-03 00:54:00,
2013-09-02 19:55:00,62.9,50.2,0.00,SE,135,3.4,3.6,63,0.00,,---,0.00,VWS V14.01,2013-09-03 00:55:00,
2013-09-02 19:56:00,62.9,49.7,0.00,SE,135,2.9,3.6,62,0.00,,---,0.00,VWS V14.01,2013-09-03 00:56:00,
2013-09-02 19:57:00,62.9,49.7,0.00,SSE,158,2.5,3.6,62,0.00,,---,0.00,VWS V14.01,2013-09-03 00:57:00,
2013-09-02 19:58:00,62.9,49.7,0.00,SE,135,2.7,3.6,62,0.00,,---,0.00,VWS V14.01,2013-09-03 00:58:00,
2013-09-02 19:59:00,63.1,49.9,0.00,SSE,158,2.5,3.6,62,0.00,,---,0.00,VWS V14.01,2013-09-03 00:59:00,
2013-09-02 20:00:00,63.1,49.9,0.00,SE,135,2.9,2.9,62,0.00,,---,0.00,VWS V14.01,2013-09-03 01:00:00,
2013-09-02 20:01:00,63.3,50.1,0.00,SSE,158,3.8,3.8,62,0.00,,---,0.00,VWS V14.01,2013-09-03 01:01:00,
2013-09-02 20:02:00,63.5,50.2,0.00,SSE,158,2.9,3.8,62,0.00,,---,0.00,VWS V14.01,2013-09-03 01:02:00,
2013-09-02 20:03:00,63.6,50.0,0.00,SE,135,4.3,4.3,61,0.00,,---,0.00,VWS V14.01,2013-09-03 01:03:00,
2013-09-02 20:04:00,63.8,50.1,0.00,SE,135,4.3,4.3,61,0.00,,---,0.00,VWS V14.01,2013-09-03 01:04:00,
2013-09-02 20:05:00,64.0,49.8,0.00,SSE,158,6.3,6.3,60,0.00,,---,0.00,VWS V14.01,2013-09-03 01:05:00,
2013-09-02 20:06:00,64.2,50.0,0.00,SE,135,5.4,6.3,60,0.00,,---,0.00,VWS V14.01,2013-09-03 01:06:00,
2013-09-02 20:07:00,64.4,49.7,0.00,SSE,158,4.3,6.3,59,0.00,,---,0.00,VWS V14.01,2013-09-03 01:07:00,
2013-09-02 20:08:00,64.5,49.9,0.00,SE,135,4.9,6.3,59,0.00,,---,0.00,VWS V14.01,2013-09-03 01:08:00,
2013-09-02 20:09:00,64.7,50.1,0.00,South,180,4.9,6.3,59,0.00,,---,0.00,VWS V14.01,2013-09-03 01:09:00,
2013-09-02 20:11:00,64.9,49.8,0.00,South,180,4.3,6.3,58,0.00,,---,0.00,VWS V14.01,2013-09-03 01:11:00,
2013-09-02 20:12:00,65.3,49.7,0.00,SSE,158,5.8,6.3,57,0.00,,---,0.00,VWS V14.01,2013-09-03 01:12:00,
2013-09-02 20:13:00,65.3,49.7,0.00,SE,135,5.6,6.3,57,0.00,,---,0.00,VWS V14.01,2013-09-03 01:13:00,
2013-09-02 20:14:00,65.6,50.0,0.00,SE,135,5.8,6.3,57,0.00,,---,0.00,VWS V14.01,2013-09-03 01:14:00,
2013-09-02 20:15:00,65.8,49.7,0.00,SE,135,5.6,6.3,56,0.00,,---,0.00,VWS V14.01,2013-09-03 01:15:00,
2013-09-02 20:16:00,65.8,49.7,0.00,SE,135,6.0,7.6,56,0.00,,---,0.00,VWS V14.01,2013-09-03 01:16:00,
2013-09-02 20:17:00,66.0,49.4,0.00,SE,135,4.9,7.6,55,0.00,,---,0.00,VWS V14.01,2013-09-03 01:17:00,
2013-09-02 20:18:00,66.2,49.5,0.00,SSE,158,4.9,7.6,55,0.00,,---,0.00,VWS V14.01,2013-09-03 01:18:00,
2013-09-02 20:19:00,66.3,49.2,0.00,SSE,158,5.8,7.6,54,0.00,,---,0.00,VWS V14.01,2013-09-03 01:19:00,
2013-09-02 20:20:00,66.3,49.2,0.00,SSE,158,5.6,7.6,54,0.00,,---,0.00,VWS V14.01,2013-09-03 01:20:00,
2013-09-02 20:21:00,66.3,49.2,0.00,SSE,158,4.7,7.6,54,0.00,,---,0.00,VWS V14.01,2013-09-03 01:21:00,
2013-09-02 20:22:00,66.3,49.2,0.00,SE,135,5.8,7.6,54,0.00,,---,0.00,VWS V14.01,2013-09-03 01:22:00,
2013-09-02 20:23:00,66.3,49.2,0.00,SSE,158,4.0,7.6,54,0.00,,---,0.00,VWS V14.01,2013-09-03 01:23:00,
2013-09-02 20:24:00,66.9,49.7,0.00,SE,135,4.9,7.6,54,0.00,,---,0.00,VWS V14.01,2013-09-03 01:24:00,
2013-09-02 20:25:00,67.1,49.4,0.00,South,180,5.8,7.6,53,0.00,,---,0.00,VWS V14.01,2013-09-03 01:25:00,
2013-09-02 20:26:00,67.2,49.5,0.00,SE,135,3.8,7.6,53,0.00,,---,0.00,VWS V14.01,2013-09-03 01:26:00,
2013-09-02 20:27:00,67.2,49.5,0.00,SSE,158,4.7,7.6,53,0.00,,---,0.00,VWS V14.01,2013-09-03 01:27:00,
2013-09-02 20:28:00,67.6,49.4,0.00,South,180,5.4,7.6,52,0.00,,---,0.00,VWS V14.01,2013-09-03 01:28:00,
2013-09-02 20:29:00,67.6,49.4,0.00,South,180,4.9,7.6,52,0.00,,---,0.00,VWS V14.01,2013-09-03 01:29:00,
2013-09-02 20:30:00,67.8,49.5,0.00,SE,135,4.9,7.6,52,0.00,,---,0.00,VWS V14.01,2013-09-03 01:30:00,
2013-09-02 20:31:00,67.8,49.5,0.00,SSE,158,3.8,4.9,52,0.00,,---,0.00,VWS V14.01,2013-09-03 01:31:00,
2013-09-02 20:32:00,68.0,49.2,0.00,South,180,4.3,4.9,51,0.00,,---,0.00,VWS V14.01,2013-09-03 01:32:00,
2013-09-02 20:33:00,68.0,49.2,0.00,South,180,3.6,5.4,51,0.00,,---,0.00,VWS V14.01,2013-09-03 01:33:00,
2013-09-02 20:34:00,68.1,49.3,0.00,South,180,5.6,5.6,51,0.00,,---,0.00,VWS V14.01,2013-09-03 01:34:00,
2013-09-02 20:35:00,68.1,49.3,0.00,SSE,158,6.0,6.0,51,0.00,,---,0.00,VWS V14.01,2013-09-03 01:35:00,
2013-09-02 20:36:00,68.3,49.5,0.00,South,180,4.9,6.0,51,0.00,,---,0.00,VWS V14.01,2013-09-03 01:36:00,
2013-09-02 20:37:00,68.3,49.5,0.00,South,180,4.3,6.0,51,0.00,,---,0.00,VWS V14.01,2013-09-03 01:37:00,
2013-09-02 20:38:00,68.5,49.7,0.00,South,180,5.4,6.0,51,0.00,,---,0.00,VWS V14.01,2013-09-03 01:38:00,
2013-09-02 20:39:00,68.7,49.8,0.00,South,180,7.2,7.2,51,0.00,,---,0.00,VWS V14.01,2013-09-03 01:39:00,
2013-09-02 20:40:00,68.9,49.5,0.00,South,180,6.3,7.4,50,0.00,,---,0.00,VWS V14.01,2013-09-03 01:40:00,
2013-09-02 20:41:00,69.0,49.6,0.00,South,180,6.3,7.4,50,0.00,,---,0.00,VWS V14.01,2013-09-03 01:41:00,
2013-09-02 20:42:00,69.0,49.6,0.00,South,180,5.8,7.4,50,0.00,,---,0.00,VWS V14.01,2013-09-03 01:42:00,
2013-09-02 20:43:00,69.2,49.8,0.00,South,180,7.6,10.1,50,0.00,,---,0.00,VWS V14.01,2013-09-03 01:43:00,
2013-09-02 20:44:00,69.0,49.6,0.00,South,180,10.5,10.7,50,0.00,,---,0.00,VWS V14.01,2013-09-03 01:44:00,
2013-09-02 20:45:00,69.0,49.6,0.00,SSW,202,7.4,10.7,50,0.00,,---,0.00,VWS V14.01,2013-09-03 01:45:00,
2013-09-02 20:46:00,69.0,49.1,0.00,SW,225,8.1,10.5,49,0.00,,---,0.00,VWS V14.01,2013-09-03 01:46:00,
2013-09-02 20:47:00,69.0,49.1,0.00,South,180,5.6,10.5,49,0.00,,---,0.00,VWS V14.01,2013-09-03 01:47:00,
2013-09-02 20:48:00,69.2,49.3,0.00,South,180,8.1,10.7,49,0.00,,---,0.00,VWS V14.01,2013-09-03 01:48:00,
2013-09-02 20:49:00,69.4,48.9,0.00,SW,225,7.6,10.7,48,0.00,,---,0.00,VWS V14.01,2013-09-03 01:49:00,
2013-09-02 20:50:00,69.4,49.4,0.00,South,180,8.7,10.7,49,0.00,,---,0.00,VWS V14.01,2013-09-03 01:50:00,
2013-09-02 20:51:00,69.6,49.0,0.00,South,180,7.8,10.7,48,0.00,,---,0.00,VWS V14.01,2013-09-03 01:51:00,
2013-09-02 20:52:00,69.6,49.0,0.00,South,180,8.1,10.7,48,0.00,,---,0.00,VWS V14.01,2013-09-03 01:52:00,
2013-09-02 20:53:00,69.8,49.2,0.00,South,180,7.6,10.7,48,0.00,,---,0.00,VWS V14.01,2013-09-03 01:53:00,
2013-09-02 20:54:00,69.9,49.4,0.00,South,180,8.5,10.7,48,0.00,,---,0.00,VWS V14.01,2013-09-03 01:54:00,
2013-09-02 20:56:00,70.3,49.7,0.00,South,180,7.8,10.7,48,0.00,,---,0.00,VWS V14.01,2013-09-03 01:56:00,
2013-09-02 20:57:00,70.5,49.9,0.00,SSW,202,8.5,10.7,48,0.00,,---,0.00,VWS V14.01,2013-09-03 01:57:00,
2013-09-02 20:58:00,70.7,50.0,0.00,SSW,202,6.3,10.7,48,0.00,,---,0.00,VWS V14.01,2013-09-03 01:58:00,
2013-09-02 20:59:00,70.7,49.5,0.00,SSW,202,11.2,15.4,47,0.00,,---,0.00,VWS V14.01,2013-09-03 01:59:00,
2013-09-02 21:00:00,70.7,49.5,0.00,SW,225,10.5,15.4,47,0.00,,---,0.00,VWS V14.01,2013-09-03 02:00:00,
2013-09-02 21:01:00,70.8,49.6,0.00,South,180,7.8,10.5,47,0.00,,---,0.00,VWS V14.01,2013-09-03 02:01:00,
2013-09-02 21:02:00,71.0,49.2,0.00,SW,225,7.4,10.5,46,0.00,,---,0.00,VWS V14.01,2013-09-03 02:02:00,
2013-09-02 21:03:00,71.2,49.4,0.00,SW,225,7.6,10.5,46,0.00,,---,0.00,VWS V14.01,2013-09-03 02:03:00,
2013-09-02 21:04:00,71.4,49.5,0.00,SW,225,7.6,10.5,46,0.00,,---,0.00,VWS V14.01,2013-09-03 02:04:00,
2013-09-02 21:05:00,71.4,49.5,0.00,South,180,8.7,10.7,46,0.00,,---,0.00,VWS V14.01,2013-09-03 02:05:00,
2013-09-02 21:06:00,71.6,49.1,0.00,South,180,10.5,10.7,45,0.00,,---,0.00,VWS V14.01,2013-09-03 02:06:00,
2013-09-02 21:07:00,71.6,49.7,0.00,South,180,6.5,11.0,46,0.00,,---,0.00,VWS V14.01,2013-09-03 02:07:00,
2013-09-02 21:08:00,71.6,49.7,0.00,SW,225,7.6,11.0,46,0.00,,---,0.00,VWS V14.01,2013-09-03 02:08:00,
2013-09-02 21:09:00,72.1,49.6,0.00,South,180,9.6,11.0,45,0.00,,---,0.00,VWS V14.01,2013-09-03 02:09:00,
2013-09-02 21:10:00,71.9,49.5,0.00,SSW,202,9.8,11.0,45,0.00,,---,0.00,VWS V14.01,2013-09-03 02:10:00,
2013-09-02 21:11:00,72.1,49.6,0.00,South,180,7.6,11.0,45,0.00,,---,0.00,VWS V14.01,2013-09-03 02:11:00,
2013-09-02 21:12:00,72.3,49.8,0.00,SSW,202,8.1,11.0,45,0.00,,---,0.00,VWS V14.01,2013-09-03 02:12:00,
2013-09-02 21:13:00,72.3,49.8,0.00,South,180,6.0,11.0,45,0.00,,---,0.00,VWS V14.01,2013-09-03 02:13:00,
2013-09-02 21:14:00,72.3,49.2,0.00,South,180,11.0,12.3,44,0.00,,---,0.00,VWS V14.01,2013-09-03 02:14:00,
2013-09-02 21:15:00,72.5,49.9,0.00,SW,225,7.8,12.3,45,0.00,,---,0.00,VWS V14.01,2013-09-03 02:15:00,
2013-09-02 21:16:00,72.5,49.9,0.00,SW,225,7.8,7.8,45,0.00,,---,0.00,VWS V14.01,2013-09-03 02:16:00,
2013-09-02 21:18:00,72.5,49.9,0.00,South,180,5.6,8.1,45,0.00,,---,0.00,VWS V14.01,2013-09-03 02:18:00,
2013-09-02 21:19:00,73.2,49.4,0.00,SSW,202,7.4,9.6,43,0.00,,---,0.00,VWS V14.01,2013-09-03 02:19:00,
2013-09-02 21:20:00,73.5,44.2,0.00,SSE,158,6.5,7.6,35,0.00,,---,0.00,VWS V14.01,2013-09-03 02:20:00,
2013-09-02 21:21:00,73.2,49.4,0.00,South,180,10.5,12.8,43,0.00,,---,0.00,VWS V14.01,2013-09-03 02:21:00,
2013-09-02 21:22:00,73.2,49.4,0.00,South,180,11.2,12.8,43,0.00,,---,0.00,VWS V14.01,2013-09-03 02:22:00,
2013-09-02 21:23:00,73.2,49.4,0.00,SSW,202,8.1,12.8,43,0.00,,---,0.00,VWS V14.01,2013-09-03 02:23:00,
2013-09-02 21:24:00,73.4,49.5,0.00,SSW,202,8.7,12.8,43,0.00,,---,0.00,VWS V14.01,2013-09-03 02:24:00,
2013-09-02 21:25:00,73.7,49.9,0.00,SW,225,7.8,12.8,43,0.00,,---,0.00,VWS V14.01,2013-09-03 02:25:00,
2013-09-02 21:26:00,73.7,49.2,0.00,South,180,10.3,12.8,42,0.00,,---,0.00,VWS V14.01,2013-09-03 02:26:00,
2013-09-02 21:27:00,73.9,49.4,0.00,South,180,12.8,12.8,42,0.00,,---,0.00,VWS V14.01,2013-09-03 02:27:00,
2013-09-02 21:29:00,73.9,49.4,0.00,South,180,8.5,12.8,42,0.00,,---,0.00,VWS V14.01,2013-09-03 02:29:00,
2013-09-02 21:30:00,74.1,49.5,0.00,South,180,11.0,12.8,42,0.00,,---,0.00,VWS V14.01,2013-09-03 02:30:00,
2013-09-02 21:31:00,73.9,49.4,0.00,SW,225,7.4,12.5,42,0.00,,---,0.00,VWS V14.01,2013-09-03 02:31:00,
2013-09-02 21:32:00,74.3,49.7,0.00,SW,225,8.1,12.5,42,0.00,,---,0.00,VWS V14.01,2013-09-03 02:32:00,
2013-09-02 21:33:00,74.4,49.9,0.00,South,180,6.7,12.5,42,0.00,,---,0.00,VWS V14.01,2013-09-03 02:33:00,
2013-09-02 21:34:00,74.8,49.5,0.00,SSW,202,8.5,12.5,41,0.00,,---,0.00,VWS V14.01,2013-09-03 02:34:00,
2013-09-02 21:35:00,74.8,49.5,0.00,South,180,13.0,13.0,41,0.00,,---,0.00,VWS V14.01,2013-09-03 02:35:00,
2013-09-02 21:36:00,75.0,49.7,0.00,South,180,7.6,13.0,41,0.00,,---,0.00,VWS V14.01,2013-09-03 02:36:00,
2013-09-02 21:37:00,75.0,49.7,0.00,South,180,13.0,13.0,41,0.00,,---,0.00,VWS V14.01,2013-09-03 02:37:00,
2013-09-02 21:38:00,75.0,49.7,0.00,South,180,13.0,13.0,41,0.00,,---,0.00,VWS V14.01,2013-09-03 02:38:00,
2013-09-02 21:39:00,75.0,49.7,0.00,SW,225,12.8,13.0,41,0.00,,---,0.00,VWS V14.01,2013-09-03 02:39:00,
2013-09-02 21:40:00,75.2,49.9,0.00,South,180,14.8,14.8,41,0.00,,---,0.00,VWS V14.01,2013-09-03 02:40:00,
2013-09-02 21:41:00,75.0,49.7,0.00,South,180,12.5,14.8,41,0.00,,---,0.00,VWS V14.01,2013-09-03 02:41:00,
2013-09-02 21:42:00,74.8,48.9,0.00,South,180,11.0,14.8,40,0.00,,---,0.00,VWS V14.01,2013-09-03 02:42:00,
2013-09-02 21:43:00,75.3,49.4,0.00,SW,225,7.6,14.8,40,0.00,,---,0.00,VWS V14.01,2013-09-03 02:43:00,
2013-09-02 21:44:00,75.5,49.5,0.00,SW,225,10.7,14.8,40,0.00,,---,0.00,VWS V14.01,2013-09-03 02:44:00,
2013-09-02 21:45:00,75.9,49.8,0.00,SW,225,10.5,14.8,40,0.00,,---,0.00,VWS V14.01,2013-09-03 02:45:00,
2013-09-02 21:47:00,76.1,50.0,0.00,SW,225,8.7,10.5,40,0.00,,---,0.00,VWS V14.01,2013-09-03 02:47:00,
2013-09-02 21:48:00,76.2,50.2,0.00,South,180,8.7,11.0,40,0.00,,---,0.00,VWS V14.01,2013-09-03 02:48:00,
2013-09-02 21:49:00,76.4,50.3,0.00,South,180,8.5,11.2,40,0.00,,---,0.00,VWS V14.01,2013-09-03 02:49:00,
2013-09-02 21:50:00,76.4,50.3,0.00,South,180,8.5,11.2,40,0.00,,---,0.00,VWS V14.01,2013-09-03 02:50:00,
2013-09-02 21:51:00,76.4,49.7,0.00,South,180,8.7,11.2,39,0.00,,---,0.00,VWS V14.01,2013-09-03 02:51:00,
2013-09-02 21:52:00,76.8,50.0,0.00,South,180,9.6,11.2,39,0.00,,---,0.00,VWS V14.01,2013-09-03 02:52:00,
2013-09-02 21:53:00,76.8,50.0,0.00,SSW,202,7.6,11.2,39,0.00,,---,0.00,VWS V14.01,2013-09-03 02:53:00,
2013-09-02 21:54:00,77.0,49.4,0.00,South,180,9.8,11.2,38,0.00,,---,0.00,VWS V14.01,2013-09-03 02:54:00,
2013-09-02 21:55:00,77.0,49.4,0.00,South,180,10.5,11.2,38,0.00,,---,0.00,VWS V14.01,2013-09-03 02:55:00,
2013-09-02 21:57:00,77.0,48.7,0.00,SSW,202,7.6,13.2,37,0.00,,---,0.00,VWS V14.01,2013-09-03 02:57:00,
2013-09-02 21:58:00,77.0,48.7,0.00,South,180,10.3,13.2,37,0.00,,---,0.00,VWS V14.01,2013-09-03 02:58:00,
2013-09-02 21:59:00,77.7,48.6,0.00,South,180,12.3,13.2,36,0.00,,---,0.00,VWS V14.01,2013-09-03 02:59:00,
2013-09-02 22:00:00,77.5,48.5,0.00,South,180,10.3,13.2,36,0.00,,---,0.00,VWS V14.01,2013-09-03 03:00:00,
2013-09-02 22:01:00,77.7,49.4,0.00,SE,135,14.5,14.5,37,0.00,,---,0.00,VWS V14.01,2013-09-03 03:01:00,
2013-09-02 22:02:00,77.9,49.5,0.00,South,180,12.5,14.5,37,0.00,,---,0.00,VWS V14.01,2013-09-03 03:02:00,
2013-09-02 22:03:00,77.9,49.5,0.00,South,180,10.7,14.5,37,0.00,,---,0.00,VWS V14.01,2013-09-03 03:03:00,
2013-09-02 22:04:00,77.9,48.8,0.00,SSW,202,9.8,14.5,36,0.00,,---,0.00,VWS V14.01,2013-09-03 03:04:00,
2013-09-02 22:05:00,78.2,49.1,0.00,SSE,158,15.2,15.2,36,0.00,,---,0.00,VWS V14.01,2013-09-03 03:05:00,
2013-09-02 22:06:00,78.2,49.1,0.00,SE,135,11.0,15.4,36,0.00,,---,0.00,VWS V14.01,2013-09-03 03:06:00,
2013-09-02 22:07:00,78.2,48.3,0.00,South,180,12.1,15.4,35,0.00,,---,0.00,VWS V14.01,2013-09-03 03:07:00,
2013-09-02 22:08:00,78.4,48.5,0.00,South,180,6.0,15.4,35,0.00,,---,0.00,VWS V14.01,2013-09-03 03:08:00,
2013-09-02 22:09:00,78.4,48.5,0.00,SSW,202,7.2,15.4,35,0.00,,---,0.00,VWS V14.01,2013-09-03 03:09:00,
2013-09-02 22:10:00,78.8,48.8,0.00,South,180,6.5,15.4,35,0.00,,---,0.00,VWS V14.01,2013-09-03 03:10:00,
2013-09-02 22:11:00,78.9,49.0,0.00,South,180,10.5,15.4,35,0.00,,---,0.00,VWS V14.01,2013-09-03 03:11:00,
2013-09-02 22:12:00,79.1,49.2,0.00,South,180,8.7,15.4,35,0.00,,---,0.00,VWS V14.01,2013-09-03 03:12:00,
2013-09-02 22:13:00,79.5,49.5,0.00,South,180,8.5,15.4,35,0.00,,---,0.00,VWS V14.01,2013-09-03 03:13:00,
2013-09-02 22:14:00,79.3,49.3,0.00,South,180,10.5,15.4,35,0.00,,---,0.00,VWS V14.01,2013-09-03 03:14:00,
2013-09-02 22:15:00,79.5,48.7,0.00,South,180,10.3,15.4,34,0.00,,---,0.00,VWS V14.01,2013-09-03 03:15:00,
2013-09-02 22:16:00,79.8,49.0,0.00,South,180,10.7,15.7,34,0.00,,---,0.00,VWS V14.01,2013-09-03 03:16:00,
2013-09-02 22:17:00,80.0,49.2,0.00,SSW,202,10.3,15.7,34,0.00,,---,0.00,VWS V14.01,2013-09-03 03:17:00,
2013-09-02 22:18:00,79.8,49.0,0.00,South,180,9.8,15.7,34,0.00,,---,0.00,VWS V14.01,2013-09-03 03:18:00,
2013-09-02 22:19:00,80.0,48.4,0.00,SSE,158,13.0,15.7,33,0.00,,---,0.00,VWS V14.01,2013-09-03 03:19:00,
2013-09-02 22:20:00,80.2,48.5,0.00,South,180,11.2,15.7,33,0.00,,---,0.00,VWS V14.01,2013-09-03 03:20:00,
2013-09-02 22:21:00,80.2,48.5,0.00,South,180,10.5,15.7,33,0.00,,---,0.00,VWS V14.01,2013-09-03 03:21:00,
2013-09-02 22:22:00,80.2,48.5,0.00,South,180,13.0,15.7,33,0.00,,---,0.00,VWS V14.01,2013-09-03 03:22:00,
2013-09-02 22:23:00,80.2,48.5,0.00,South,180,12.5,15.7,33,0.00,,---,0.00,VWS V14.01,2013-09-03 03:23:00,
2013-09-02 22:24:00,80.6,48.8,0.00,South,180,13.0,17.2,33,0.00,,---,0.00,VWS V14.01,2013-09-03 03:24:00,
2013-09-02 22:25:00,80.7,48.2,0.00,South,180,17.9,19.0,32,0.00,,---,0.00,VWS V14.01,2013-09-03 03:25:00,
2013-09-02 22:26:00,80.4,47.8,0.00,SSW,202,17.0,19.0,32,0.00,,---,0.00,VWS V14.01,2013-09-03 03:26:00,
2013-09-02 22:27:00,80.2,47.7,0.00,South,180,19.0,23.5,32,0.00,,---,0.00,VWS V14.01,2013-09-03 03:27:00,
2013-09-02 22:28:00,80.2,47.7,0.00,South,180,22.6,23.5,32,0.00,,---,0.00,VWS V14.01,2013-09-03 03:28:00,
2013-09-02 22:29:00,80.0,47.5,0.00,South,180,22.4,23.5,32,0.00,,---,0.00,VWS V14.01,2013-09-03 03:29:00,
2013-09-02 22:30:00,80.0,47.5,0.00,South,180,17.9,23.5,32,0.00,,---,0.00,VWS V14.01,2013-09-03 03:30:00,
2013-09-02 22:31:00,80.0,47.5,0.00,South,180,15.4,17.5,32,0.00,,---,0.00,VWS V14.01,2013-09-03 03:31:00,
2013-09-02 22:32:00,80.2,47.7,0.00,South,180,12.1,17.7,32,0.00,,---,0.00,VWS V14.01,2013-09-03 03:32:00,
2013-09-02 22:33:00,80.6,48.0,0.00,South,180,19.7,21.0,32,0.00,,---,0.00,VWS V14.01,2013-09-03 03:33:00,
2013-09-02 22:34:00,80.6,48.0,0.00,South,180,10.3,21.0,32,0.00,,---,0.00,VWS V14.01,2013-09-03 03:34:00,
2013-09-02 22:35:00,80.4,47.8,0.00,South,180,15.4,21.0,32,0.00,,---,0.00,VWS V14.01,2013-09-03 03:35:00,
2013-09-02 22:36:00,80.4,47.8,0.00,SW,225,13.9,21.0,32,0.00,,---,0.00,VWS V14.01,2013-09-03 03:36:00,
2013-09-02 22:37:00,80.4,47.8,0.00,SW,225,10.1,21.0,32,0.00,,---,0.00,VWS V14.01,2013-09-03 03:37:00,
2013-09-02 22:38:00,81.3,48.6,0.00,South,180,8.7,21.0,32,0.00,,---,0.00,VWS V14.01,2013-09-03 03:38:00,
2013-09-02 22:39:00,81.5,48.8,0.00,South,180,8.5,21.0,32,0.00,,---,0.00,VWS V14.01,2013-09-03 03:39:00,
2013-09-02 22:40:00,81.6,49.0,0.00,South,180,9.0,21.0,32,0.00,,---,0.00,VWS V14.01,2013-09-03 03:40:00,
2013-09-02 22:41:00,81.8,49.1,0.00,South,180,10.7,21.0,32,0.00,,---,0.00,VWS V14.01,2013-09-03 03:41:00,
2013-09-02 22:42:00,82.0,48.4,0.00,South,180,13.2,21.0,31,0.00,,---,0.00,VWS V14.01,2013-09-03 03:42:00,
2013-09-02 22:43:00,81.8,49.1,0.00,South,180,14.8,21.0,32,0.00,,---,0.00,VWS V14.01,2013-09-03 03:43:00,
2013-09-02 22:44:00,81.8,49.1,0.00,South,180,10.7,21.0,32,0.00,,---,0.00,VWS V14.01,2013-09-03 03:44:00,
2013-09-02 22:45:00,82.2,48.6,0.00,South,180,16.1,21.0,31,0.00,,---,0.00,VWS V14.01,2013-09-03 03:45:00,
2013-09-02 22:46:00,81.8,48.3,0.00,South,180,13.0,18.1,31,0.00,,---,0.00,VWS V14.01,2013-09-03 03:46:00,
2013-09-02 22:47:00,81.8,48.3,0.00,SSW,202,17.5,18.1,31,0.00,,---,0.00,VWS V14.01,2013-09-03 03:47:00,
2013-09-02 22:48:00,82.0,48.4,0.00,South,180,15.4,18.1,31,0.00,,---,0.00,VWS V14.01,2013-09-03 03:48:00,
2013-09-02 22:49:00,82.0,48.4,0.00,South,180,15.4,20.4,31,0.00,,---,0.00,VWS V14.01,2013-09-03 03:49:00,
2013-09-02 22:50:00,82.4,47.8,0.00,SW,225,12.3,20.4,30,0.00,,---,0.00,VWS V14.01,2013-09-03 03:50:00,
2013-09-02 22:52:00,82.5,48.9,0.00,South,180,11.0,20.4,31,0.00,,---,0.00,VWS V14.01,2013-09-03 03:52:00,
2013-09-02 22:53:00,82.7,48.2,0.00,SW,225,10.7,20.4,30,0.00,,---,0.00,VWS V14.01,2013-09-03 03:53:00,
2013-09-02 22:54:00,82.9,48.3,0.00,South,180,13.4,20.4,30,0.00,,---,0.00,VWS V14.01,2013-09-03 03:54:00,
2013-09-02 22:55:00,82.9,49.2,0.00,SW,225,14.8,20.4,31,0.00,,---,0.00,VWS V14.01,2013-09-03 03:55:00,
2013-09-02 22:56:00,83.1,49.3,0.00,South,180,11.4,20.4,31,0.00,,---,0.00,VWS V14.01,2013-09-03 03:56:00,
2013-09-02 22:57:00,83.1,48.5,0.00,South,180,17.5,20.4,30,0.00,,---,0.00,VWS V14.01,2013-09-03 03:57:00,
2013-09-02 22:58:00,83.1,48.5,0.00,SSW,202,12.8,20.4,30,0.00,,---,0.00,VWS V14.01,2013-09-03 03:58:00,
2013-09-02 22:59:00,82.7,48.2,0.00,SW,225,15.9,21.9,30,0.00,,---,0.00,VWS V14.01,2013-09-03 03:59:00,
2013-09-02 23:00:00,83.1,48.5,0.00,South,180,14.3,21.9,30,0.00,,---,0.00,VWS V14.01,2013-09-03 04:00:00,
2013-09-02 23:01:00,83.1,48.5,0.00,SW,225,14.8,19.5,30,0.00,,---,0.00,VWS V14.01,2013-09-03 04:01:00,
2013-09-02 23:02:00,83.3,48.6,0.00,SW,225,15.2,19.5,30,0.00,,---,0.00,VWS V14.01,2013-09-03 04:02:00,
2013-09-02 23:03:00,83.3,48.6,0.00,South,180,15.2,19.5,30,0.00,,---,0.00,VWS V14.01,2013-09-03 04:03:00,
2013-09-02 23:04:00,83.3,48.6,0.00,South,180,12.5,19.5,30,0.00,,---,0.00,VWS V14.01,2013-09-03 04:04:00,
2013-09-02 23:05:00,83.3,48.6,0.00,South,180,20.4,20.4,30,0.00,,---,0.00,VWS V14.01,2013-09-03 04:05:00,
2013-09-02 23:06:00,83.4,48.8,0.00,South,180,14.8,20.4,30,0.00,,---,0.00,VWS V14.01,2013-09-03 04:06:00,
2013-09-02 23:07:00,83.4,48.8,0.00,South,180,19.9,20.6,30,0.00,,---,0.00,VWS V14.01,2013-09-03 04:07:00,
2013-09-02 23:08:00,83.4,48.8,0.00,South,180,19.9,20.6,30,0.00,,---,0.00,VWS V14.01,2013-09-03 04:08:00,
2013-09-02 23:09:00,83.4,48.8,0.00,South,180,17.5,20.8,30,0.00,,---,0.00,VWS V14.01,2013-09-03 04:09:00,
2013-09-02 23:10:00,83.3,48.6,0.00,South,180,16.8,20.8,30,0.00,,---,0.00,VWS V14.01,2013-09-03 04:10:00,
2013-09-02 23:11:00,83.6,48.9,0.00,South,180,11.9,20.8,30,0.00,,---,0.00,VWS V14.01,2013-09-03 04:11:00,
2013-09-02 23:12:00,83.6,48.9,0.00,South,180,17.2,20.8,30,0.00,,---,0.00,VWS V14.01,2013-09-03 04:12:00,
2013-09-02 23:13:00,83.6,48.9,0.00,South,180,17.0,20.8,30,0.00,,---,0.00,VWS V14.01,2013-09-03 04:13:00,
2013-09-02 23:14:00,83.6,48.9,0.00,South,180,12.3,20.8,30,0.00,,---,0.00,VWS V14.01,2013-09-03 04:14:00,
2013-09-02 23:15:00,83.6,48.9,0.00,South,180,22.8,22.8,30,0.00,,---,0.00,VWS V14.01,2013-09-03 04:15:00,
2013-09-02 23:16:00,83.3,48.6,0.00,South,180,17.9,23.9,30,0.00,,---,0.00,VWS V14.01,2013-09-03 04:16:00,
2013-09-02 23:17:00,83.3,48.6,0.00,South,180,13.9,23.9,30,0.00,,---,0.00,VWS V14.01,2013-09-03 04:17:00,
2013-09-02 23:18:00,83.3,48.6,0.00,South,180,13.2,23.9,30,0.00,,---,0.00,VWS V14.01,2013-09-03 04:18:00,
2013-09-02 23:19:00,84.2,49.4,0.00,South,180,16.1,23.9,30,0.00,,---,0.00,VWS V14.01,2013-09-03 04:19:00,
2013-09-02 23:20:00,84.3,49.6,0.00,South,180,15.4,23.9,30,0.00,,---,0.00,VWS V14.01,2013-09-03 04:20:00,
2013-09-02 23:21:00,84.3,49.6,0.00,South,180,14.3,23.9,30,0.00,,---,0.00,VWS V14.01,2013-09-03 04:21:00,
2013-09-02 23:22:00,84.7,49.9,0.00,South,180,15.2,23.9,30,0.00,,---,0.00,VWS V14.01,2013-09-03 04:22:00,
2013-09-02 23:23:00,84.5,49.7,0.00,South,180,13.2,23.9,30,0.00,,---,0.00,VWS V14.01,2013-09-03 04:23:00,
2013-09-02 23:24:00,84.5,49.7,0.00,SW,225,11.4,23.9,30,0.00,,---,0.00,VWS V14.01,2013-09-03 04:24:00,
2013-09-02 23:26:00,84.9,49.1,0.00,SSW,202,13.0,23.9,29,0.00,,---,0.00,VWS V14.01,2013-09-03 04:26:00,
2013-09-02 23:27:00,84.7,49.9,0.00,South,180,14.3,23.9,30,0.00,,---,0.00,VWS V14.01,2013-09-03 04:27:00,
2013-09-02 23:28:00,84.7,49.9,0.00,South,180,13.0,23.9,30,0.00,,---,0.00,VWS V14.01,2013-09-03 04:28:00,
2013-09-02 23:29:00,85.1,50.2,0.00,SSW,202,12.8,23.9,30,0.00,,---,0.00,VWS V14.01,2013-09-03 04:29:00,
2013-09-02 23:30:00,85.2,50.3,0.00,South,180,12.8,12.8,30,0.00,,---,0.00,VWS V14.01,2013-09-03 04:30:00,
2013-09-02 23:31:00,85.2,50.3,0.00,South,180,15.9,15.9,30,0.00,,---,0.00,VWS V14.01,2013-09-03 04:31:00,
2013-09-02 23:32:00,85.1,49.3,0.00,South,180,17.5,17.9,29,0.00,,---,0.00,VWS V14.01,2013-09-03 04:32:00,
2013-09-02 23:33:00,84.7,49.0,0.00,South,180,15.4,21.5,29,0.00,,---,0.00,VWS V14.01,2013-09-03 04:33:00,
2013-09-02 23:34:00,84.5,48.8,0.00,SSE,158,17.9,21.5,29,0.00,,---,0.00,VWS V14.01,2013-09-03 04:34:00,
2013-09-02 23:35:00,84.7,49.0,0.00,South,180,14.1,21.5,29,0.00,,---,0.00,VWS V14.01,2013-09-03 04:35:00,
2013-09-02 23:36:00,85.1,50.2,0.00,South,180,13.9,21.5,30,0.00,,---,0.00,VWS V14.01,2013-09-03 04:36:00,
2013-09-02 23:37:00,85.1,50.2,0.00,SW,225,8.5,21.5,30,0.00,,---,0.00,VWS V14.01,2013-09-03 04:37:00,
2013-09-02 23:38:00,85.6,49.7,0.00,South,180,10.7,21.5,29,0.00,,---,0.00,VWS V14.01,2013-09-03 04:38:00,
2013-09-02 23:39:00,86.0,50.0,0.00,South,180,13.2,21.5,29,0.00,,---,0.00,VWS V14.01,2013-09-03 04:39:00,
2013-09-02 23:40:00,86.0,50.0,0.00,South,180,21.9,23.9,29,0.00,,---,0.00,VWS V14.01,2013-09-03 04:40:00,
2013-09-02 23:41:00,85.4,50.5,0.00,South,180,13.0,23.9,30,0.00,,---,0.00,VWS V14.01,2013-09-03 04:41:00,
2013-09-02 23:42:00,85.6,49.7,0.00,South,180,20.6,23.9,29,0.00,,---,0.00,VWS V14.01,2013-09-03 04:42:00,
2013-09-02 23:43:00,85.1,50.2,0.00,South,180,19.5,23.9,30,0.00,,---,0.00,VWS V14.01,2013-09-03 04:43:00,
2013-09-02 23:44:00,85.1,50.2,0.00,South,180,15.2,23.9,30,0.00,,---,0.00,VWS V14.01,2013-09-03 04:44:00,
2013-09-02 23:45:00,85.6,49.7,0.00,South,180,11.0,23.9,29,0.00,,---,0.00,VWS V14.01,2013-09-03 04:45:00,
2013-09-02 23:46:00,85.6,49.7,0.00,SW,225,13.2,13.2,29,0.00,,---,0.00,VWS V14.01,2013-09-03 04:46:00,
2013-09-02 23:47:00,86.0,50.0,0.00,South,180,14.5,14.5,29,0.00,,---,0.00,VWS V14.01,2013-09-03 04:47:00,
2013-09-02 23:48:00,85.8,49.9,0.00,SSE,158,14.8,17.7,29,0.00,,---,0.00,VWS V14.01,2013-09-03 04:48:00,
2013-09-02 23:49:00,86.0,50.0,0.00,South,180,15.4,17.7,29,0.00,,---,0.00,VWS V14.01,2013-09-03 04:49:00,
2013-09-02 23:50:00,85.4,49.6,0.00,South,180,18.1,18.1,29,0.00,,---,0.00,VWS V14.01,2013-09-03 04:50:00,
2013-09-02 23:51:00,85.8,49.9,0.00,South,180,12.5,18.1,29,0.00,,---,0.00,VWS V14.01,2013-09-03 04:51:00,
2013-09-02 23:52:00,85.8,49.9,0.00,South,180,13.6,18.1,29,0.00,,---,0.00,VWS V14.01,2013-09-03 04:52:00,
2013-09-02 23:53:00,86.3,50.3,0.00,SSE,158,20.8,20.8,29,0.00,,---,0.00,VWS V14.01,2013-09-03 04:53:00,
2013-09-02 23:54:00,86.1,50.2,0.00,South,180,12.8,20.8,29,0.00,,---,0.00,VWS V14.01,2013-09-03 04:54:00,
2013-09-02 23:55:00,86.1,50.2,0.00,SW,225,10.1,20.8,29,0.00,,---,0.00,VWS V14.01,2013-09-03 04:55:00,
2013-09-02 23:56:00,86.7,50.7,0.00,SSW,202,12.8,20.8,29,0.00,,---,0.00,VWS V14.01,2013-09-03 04:56:00,
2013-09-02 23:57:00,87.0,51.0,0.00,SSW,202,8.7,20.8,29,0.00,,---,0.00,VWS V14.01,2013-09-03 04:57:00,
2013-09-02 23:58:00,87.2,51.1,0.00,SW,225,14.3,20.8,29,0.00,,---,0.00,VWS V14.01,2013-09-03 04:58:00,
2013-09-02 23:59:00,87.2,51.1,0.00,South,180,13.6,20.8,29,0.00,,---,0.00,VWS V14.01,2013-09-03 04:59:00,